| time (UTC) | temp C | wind direction | speed KPH | gust KPH | rain 1hr cm | rain 24hr cm | rain mn cm | humidity % | barometer mb |
| 20260904065320 | 26 | 360 | 11.3 | 20.9 | 0.00 | 0.10 | 0.00 | 83 | 1014.4 |
| 20260904065221 | 26 | 360 | 9.7 | 20.9 | 0.00 | 0.10 | 0.00 | 83 | 1014.4 |
| 20260904065121 | 26 | 360 | 9.7 | 20.9 | 0.00 | 0.10 | 0.00 | 83 | 1014.4 |
| 20260904065021 | 26 | 360 | 9.7 | 22.5 | 0.00 | 0.10 | 0.00 | 83 | 1014.4 |
| 20260904064920 | 26 | 360 | 9.7 | 22.5 | 0.00 | 0.10 | 0.00 | 83 | 1014.4 |
| 20260904064825 | 26 | 360 | 8.0 | 24.1 | 0.00 | 0.10 | 0.00 | 83 | 1014.4 |
| 20260904064725 | 26 | 360 | 8.0 | 24.1 | 0.00 | 0.10 | 0.00 | 83 | 1014.4 |
| 20260904064645 | 26 | 360 | 8.0 | 24.1 | 0.00 | 0.10 | 0.00 | 83 | 1014.4 |
| 20260904064525 | 26 | 360 | 8.0 | 24.1 | 0.00 | 0.10 | 0.00 | 83 | 1014.4 |
| 20260904064446 | 26 | 360 | 11.3 | 24.1 | 0.00 | 0.10 | 0.00 | 83 | 1014.3 |
| 20260904064325 | 26 | 360 | 12.9 | 24.1 | 0.00 | 0.10 | 0.00 | 83 | 1014.3 |
| 20260904064247 | 26 | 360 | 12.9 | 30.6 | 0.00 | 0.10 | 0.00 | 83 | 1014.4 |
| 20260904064126 | 26 | 360 | 11.3 | 30.6 | 0.00 | 0.10 | 0.00 | 83 | 1014.4 |
| 20260904064026 | 26 | 360 | 8.0 | 30.6 | 0.00 | 0.10 | 0.00 | 83 | 1014.3 |
| 20260904063931 | 26 | 360 | 8.0 | 30.6 | 0.00 | 0.10 | 0.00 | 83 | 1014.3 |
| 20260904063832 | 26 | 360 | 8.0 | 30.6 | 0.00 | 0.10 | 0.00 | 83 | 1014.3 |
| 20260904063753 | 26 | 360 | 11.3 | 30.6 | 0.00 | 0.10 | 0.00 | 83 | 1014.3 |
| 20260904063653 | 26 | 360 | 11.3 | 30.6 | 0.00 | 0.10 | 0.00 | 83 | 1014.4 |
| 20260904063552 | 26 | 360 | 11.3 | 30.6 | 0.00 | 0.10 | 0.00 | 83 | 1014.3 |
| 20260904063431 | 26 | 360 | 11.3 | 20.9 | 0.00 | 0.10 | 0.00 | 83 | 1014.4 |
| 20260904063332 | 26 | 360 | 9.7 | 20.9 | 0.00 | 0.10 | 0.00 | 83 | 1014.4 |
| 20260904063252 | 26 | 360 | 9.7 | 20.9 | 0.00 | 0.10 | 0.00 | 83 | 1014.3 |
| 20260904063116 | 26 | 360 | 8.0 | 20.9 | 0.00 | 0.10 | 0.00 | 83 | 1014.4 |
| 20260904063016 | 26 | 360 | 9.7 | 20.9 | 0.00 | 0.10 | 0.00 | 83 | 1014.4 |
| 20260904062918 | 26 | 360 | 9.7 | 20.9 | 0.00 | 0.10 | 0.00 | 83 | 1014.4 |
| 20260904062820 | 26 | 360 | 11.3 | 20.9 | 0.00 | 0.10 | 0.00 | 83 | 1014.4 |
| 20260904062719 | 26 | 360 | 12.9 | 20.9 | 0.00 | 0.10 | 0.00 | 83 | 1014.3 |
| 20260904062619 | 26 | 360 | 14.5 | 20.9 | 0.00 | 0.10 | 0.00 | 83 | 1014.3 |
| 20260904062524 | 26 | 360 | 12.9 | 20.9 | 0.00 | 0.10 | 0.00 | 83 | 1014.3 |
| 20260904062444 | 26 | 360 | 11.3 | 20.9 | 0.00 | 0.10 | 0.00 | 83 | 1014.3 |
| 20260904062323 | 26 | 360 | 9.7 | 19.3 | 0.00 | 0.10 | 0.00 | 82 | 1014.3 |
| 20260904062223 | 26 | 360 | 9.7 | 19.3 | 0.00 | 0.10 | 0.00 | 82 | 1014.3 |
| 20260904062124 | 26 | 360 | 11.3 | 19.3 | 0.00 | 0.10 | 0.00 | 82 | 1014.3 |
| 20260904062024 | 26 | 360 | 11.3 | 19.3 | 0.00 | 0.10 | 0.00 | 82 | 1014.4 |
| 20260904061925 | 26 | 360 | 9.7 | 24.1 | 0.00 | 0.10 | 0.00 | 82 | 1014.3 |
| 20260904061830 | 26 | 360 | 9.7 | 24.1 | 0.00 | 0.10 | 0.00 | 82 | 1014.3 |
| 20260904061730 | 26 | 360 | 9.7 | 24.1 | 0.00 | 0.10 | 0.00 | 82 | 1014.3 |
| 20260904061630 | 26 | 360 | 9.7 | 24.1 | 0.00 | 0.10 | 0.00 | 82 | 1014.4 |
| 20260904061530 | 26 | 360 | 11.3 | 24.1 | 0.00 | 0.10 | 0.00 | 82 | 1014.3 |
| 20260904061431 | 26 | 360 | 11.3 | 24.1 | 0.00 | 0.10 | 0.00 | 82 | 1014.4 |
| 20260904061331 | 26 | 360 | 12.9 | 27.4 | 0.00 | 0.10 | 0.00 | 82 | 1014.3 |
| 20260904061251 | 26 | 360 | 12.9 | 27.4 | 0.00 | 0.10 | 0.00 | 82 | 1014.4 |
| 20260904061151 | 26 | 360 | 14.5 | 27.4 | 0.00 | 0.10 | 0.00 | 82 | 1014.4 |
| 20260904061034 | 26 | 360 | 12.9 | 27.4 | 0.00 | 0.10 | 0.00 | 82 | 1014.3 |
| 20260904060935 | 26 | 360 | 11.3 | 27.4 | 0.00 | 0.10 | 0.00 | 82 | 1014.4 |
| 20260904060854 | 26 | 360 | 12.9 | 27.4 | 0.00 | 0.10 | 0.00 | 82 | 1014.3 |
| 20260904060734 | 26 | 360 | 14.5 | 27.4 | 0.00 | 0.10 | 0.00 | 82 | 1014.4 |
| 20260904060655 | 26 | 360 | 16.1 | 27.4 | 0.00 | 0.10 | 0.00 | 82 | 1014.4 |
| 20260904060535 | 26 | 360 | 14.5 | 27.4 | 0.00 | 0.10 | 0.00 | 82 | 1014.4 |
| 20260904060435 | 26 | 360 | 14.5 | 30.6 | 0.00 | 0.10 | 0.00 | 82 | 1014.4 |
| 20260904060319 | 26 | 360 | 14.5 | 30.6 | 0.00 | 0.10 | 0.00 | 82 | 1014.4 |
| 20260904060219 | 26 | 360 | 12.9 | 30.6 | 0.00 | 0.10 | 0.00 | 82 | 1014.4 |
| 20260904060140 | 26 | 360 | 11.3 | 30.6 | 0.00 | 0.10 | 0.00 | 82 | 1014.3 |
| 20260904060020 | 26 | 360 | 9.7 | 30.6 | 0.00 | 0.10 | 0.00 | 82 | 1014.3 |
| 20260904055918 | 26 | 360 | 11.3 | 30.6 | 0.00 | 0.10 | 0.00 | 82 | 1014.4 |
| 20260904055820 | 26 | 360 | 14.5 | 30.6 | 0.00 | 0.10 | 0.00 | 81 | 1014.4 |
| 20260904055720 | 26 | 360 | 14.5 | 30.6 | 0.00 | 0.10 | 0.10 | 81 | 1014.4 |
| 20260904055626 | 26 | 360 | 16.1 | 30.6 | 0.00 | 0.10 | 0.10 | 81 | 1014.3 |
| 20260904055527 | 26 | 360 | 16.1 | 27.4 | 0.00 | 0.10 | 0.10 | 81 | 1014.3 |
| 20260904055427 | 26 | 360 | 16.1 | 27.4 | 0.00 | 0.10 | 0.10 | 81 | 1014.4 |
| 20260904055327 | 26 | 360 | 16.1 | 27.4 | 0.00 | 0.10 | 0.10 | 81 | 1014.4 |
| 20260904055228 | 26 | 360 | 16.1 | 27.4 | 0.00 | 0.10 | 0.10 | 81 | 1014.4 |
| 20260904055129 | 26 | 360 | 17.7 | 27.4 | 0.00 | 0.10 | 0.10 | 81 | 1014.4 |
| 20260904055030 | 26 | 360 | 17.7 | 27.4 | 0.00 | 0.10 | 0.10 | 81 | 1014.3 |
| 20260904054934 | 26 | 360 | 14.5 | 27.4 | 0.00 | 0.10 | 0.10 | 81 | 1014.4 |
| 20260904054835 | 26 | 360 | 14.5 | 29.0 | 0.00 | 0.10 | 0.10 | 81 | 1014.4 |
| 20260904054735 | 26 | 360 | 12.9 | 29.0 | 0.00 | 0.10 | 0.10 | 81 | 1014.4 |
| 20260904054635 | 26 | 360 | 16.1 | 29.0 | 0.00 | 0.10 | 0.10 | 81 | 1014.3 |
| 20260904054517 | 26 | 360 | 17.7 | 29.0 | 0.00 | 0.10 | 0.10 | 81 | 1014.4 |
| 20260904054437 | 26 | 360 | 16.1 | 32.2 | 0.00 | 0.10 | 0.10 | 81 | 1014.3 |
| 20260904054337 | 26 | 360 | 14.5 | 32.2 | 0.00 | 0.10 | 0.10 | 81 | 1014.3 |
| 20260904054220 | 26 | 360 | 14.5 | 33.8 | 0.00 | 0.10 | 0.10 | 81 | 1014.3 |
| 20260904054141 | 26 | 360 | 14.5 | 33.8 | 0.00 | 0.10 | 0.10 | 81 | 1014.3 |
| 20260904054021 | 26 | 360 | 16.1 | 33.8 | 0.00 | 0.10 | 0.10 | 81 | 1014.3 |
| 20260904053921 | 26 | 360 | 14.5 | 33.8 | 0.00 | 0.10 | 0.10 | 81 | 1014.3 |
| 20260904053822 | 26 | 360 | 14.5 | 33.8 | 0.00 | 0.10 | 0.10 | 81 | 1014.2 |
| 20260904053723 | 26 | 360 | 14.5 | 33.8 | 0.00 | 0.10 | 0.10 | 81 | 1014.2 |
| 20260904053624 | 26 | 360 | 16.1 | 33.8 | 0.00 | 0.10 | 0.10 | 81 | 1014.2 |
| 20260904053545 | 26 | 360 | 19.3 | 33.8 | 0.00 | 0.10 | 0.10 | 81 | 1014.2 |
| 20260904053448 | 26 | 360 | 20.9 | 33.8 | 0.00 | 0.10 | 0.10 | 81 | 1014.3 |
| 20260904053328 | 26 | 360 | 19.3 | 30.6 | 0.00 | 0.10 | 0.10 | 81 | 1014.2 |
| 20260904053248 | 26 | 360 | 17.7 | 29.0 | 0.00 | 0.10 | 0.10 | 81 | 1014.3 |
| 20260904053128 | 26 | 360 | 14.5 | 27.4 | 0.00 | 0.10 | 0.10 | 81 | 1014.1 |
| 20260904053028 | 26 | 360 | 14.5 | 30.6 | 0.00 | 0.10 | 0.10 | 81 | 1014.2 |
| 20260904052929 | 26 | 360 | 16.1 | 30.6 | 0.00 | 0.10 | 0.10 | 81 | 1014.3 |
| 20260904052830 | 26 | 360 | 16.1 | 30.6 | 0.00 | 0.10 | 0.10 | 81 | 1014.2 |
| 20260904052749 | 26 | 360 | 16.1 | 30.6 | 0.00 | 0.10 | 0.10 | 81 | 1014.2 |
| 20260904052633 | 26 | 360 | 14.5 | 30.6 | 0.00 | 0.10 | 0.10 | 81 | 1014.2 |
| 20260904052533 | 26 | 360 | 14.5 | 30.6 | 0.00 | 0.10 | 0.10 | 80 | 1014.2 |
| 20260904052434 | 26 | 360 | 14.5 | 30.6 | 0.00 | 0.10 | 0.10 | 80 | 1014.2 |
| 20260904052333 | 26 | 360 | 16.1 | 30.6 | 0.00 | 0.10 | 0.10 | 80 | 1014.2 |
| 20260904052254 | 26 | 360 | 16.1 | 30.6 | 0.00 | 0.10 | 0.10 | 80 | 1014.1 |
| 20260904052133 | 26 | 360 | 14.5 | 27.4 | 0.00 | 0.10 | 0.10 | 80 | 1014.2 |
| 20260904052054 | 26 | 360 | 14.5 | 27.4 | 0.00 | 0.10 | 0.10 | 80 | 1014.1 |
| 20260904051933 | 26 | 360 | 14.5 | 27.4 | 0.00 | 0.10 | 0.10 | 80 | 1014.1 |
| 20260904051817 | 26 | 360 | 16.1 | 29.0 | 0.00 | 0.10 | 0.10 | 80 | 1014.1 |
| 20260904051718 | 26 | 360 | 17.7 | 29.0 | 0.00 | 0.10 | 0.10 | 80 | 1014.1 |
| 20260904051639 | 26 | 360 | 17.7 | 29.0 | 0.00 | 0.10 | 0.10 | 80 | 1014.1 |
| 20260904051519 | 26 | 360 | 17.7 | 29.0 | 0.00 | 0.10 | 0.10 | 80 | 1014.1 |
| 20260904051417 | 26 | 360 | 17.7 | 29.0 | 0.00 | 0.10 | 0.10 | 80 | 1014.1 |
| 20260904051318 | 26 | 360 | 17.7 | 29.0 | 0.00 | 0.10 | 0.10 | 80 | 1014.1 |
| 20260904051218 | 26 | 180 | 17.7 | 29.0 | 0.00 | 0.10 | 0.10 | 80 | 1014.1 |
| 20260904051123 | 26 | 360 | 16.1 | 29.0 | 0.00 | 0.10 | 0.10 | 80 | 1014.1 |
| 20260904051044 | 26 | 360 | 16.1 | 29.0 | 0.00 | 0.10 | 0.10 | 80 | 1014.1 |
| 20260904050925 | 26 | 360 | 16.1 | 24.1 | 0.00 | 0.10 | 0.10 | 80 | 1014.1 |
| 20260904050825 | 26 | 360 | 16.1 | 24.1 | 0.00 | 0.10 | 0.10 | 80 | 1014.1 |
| 20260904050727 | 26 | 360 | 17.7 | 24.1 | 0.00 | 0.10 | 0.10 | 80 | 1014.1 |
| 20260904050628 | 26 | 360 | 16.1 | 24.1 | 0.00 | 0.10 | 0.10 | 80 | 1014.0 |
| 20260904050529 | 26 | 360 | 17.7 | 24.1 | 0.00 | 0.10 | 0.10 | 80 | 1014.1 |
| 20260904050432 | 26 | 360 | 17.7 | 24.1 | 0.00 | 0.10 | 0.10 | 80 | 1014.1 |
| 20260904050333 | 26 | 360 | 16.1 | 24.1 | 0.00 | 0.10 | 0.10 | 80 | 1014.1 |
| 20260904050234 | 26 | 360 | 17.7 | 24.1 | 0.00 | 0.10 | 0.10 | 80 | 1014.1 |
| 20260904050134 | 26 | 360 | 16.1 | 24.1 | 0.00 | 0.10 | 0.10 | 80 | 1014.1 |
| 20260904050036 | 26 | 360 | 16.1 | 24.1 | 0.00 | 0.10 | 0.10 | 80 | 1014.1 |
| 20260904045929 | 26 | 360 | 16.1 | 24.1 | 0.00 | 0.10 | 0.10 | 80 | 1014.2 |
| 20260904045832 | 26 | 360 | 16.1 | 24.1 | 0.00 | 0.10 | 0.10 | 80 | 1014.1 |
| 20260904045734 | 26 | 161 | 16.1 | 24.1 | 0.00 | 0.10 | 0.10 | 80 | 1014.2 |
| 20260904045635 | 26 | 360 | 16.1 | 24.1 | 0.00 | 0.10 | 0.10 | 80 | 1014.2 |
| 20260904045535 | 26 | 161 | 16.1 | 22.5 | 0.00 | 0.10 | 0.10 | 80 | 1014.2 |
| 20260904045435 | 26 | 180 | 16.1 | 22.5 | 0.00 | 0.10 | 0.10 | 80 | 1014.2 |
| 20260904045356 | 26 | 360 | 17.7 | 24.1 | 0.00 | 0.10 | 0.10 | 80 | 1014.2 |
| 20260904045235 | 26 | 360 | 17.7 | 33.8 | 0.00 | 0.10 | 0.10 | 80 | 1014.2 |
| 20260904045120 | 26 | 360 | 16.1 | 33.8 | 0.00 | 0.10 | 0.10 | 80 | 1014.1 |
| 20260904045020 | 26 | 360 | 16.1 | 33.8 | 0.00 | 0.10 | 0.10 | 80 | 1014.2 |
| 20260904044921 | 26 | 360 | 14.5 | 33.8 | 0.00 | 0.10 | 0.10 | 80 | 1014.1 |
| 20260904044823 | 26 | 360 | 14.5 | 33.8 | 0.00 | 0.10 | 0.10 | 80 | 1014.2 |
| 20260904044724 | 26 | 360 | 17.7 | 33.8 | 0.00 | 0.10 | 0.10 | 80 | 1014.1 |
| 20260904044624 | 26 | 360 | 20.9 | 33.8 | 0.00 | 0.10 | 0.10 | 80 | 1014.1 |
| 20260904044544 | 26 | 360 | 20.9 | 33.8 | 0.00 | 0.10 | 0.10 | 80 | 1014.1 |
| 20260904044445 | 26 | 360 | 19.3 | 32.2 | 0.00 | 0.10 | 0.10 | 80 | 1014.1 |
| 20260904044330 | 26 | 360 | 19.3 | 25.7 | 0.00 | 0.10 | 0.10 | 80 | 1014.1 |
| 20260904044230 | 26 | 360 | 17.7 | 25.7 | 0.00 | 0.10 | 0.10 | 80 | 1014.0 |
| 20260904044129 | 26 | 360 | 17.7 | 25.7 | 0.00 | 0.10 | 0.10 | 80 | 1014.0 |
| 20260904044030 | 26 | 360 | 17.7 | 25.7 | 0.00 | 0.10 | 0.10 | 80 | 1014.1 |
| 20260904043931 | 26 | 360 | 16.1 | 25.7 | 0.00 | 0.10 | 0.10 | 80 | 1014.0 |
| 20260904043832 | 26 | 360 | 14.5 | 25.7 | 0.00 | 0.10 | 0.10 | 80 | 1014.0 |
| 20260904043717 | 26 | 360 | 14.5 | 25.7 | 0.00 | 0.10 | 0.10 | 80 | 1014.0 |
| 20260904043617 | 26 | 360 | 14.5 | 25.7 | 0.00 | 0.10 | 0.10 | 80 | 1014.1 |
| 20260904043517 | 26 | 360 | 14.5 | 25.7 | 0.00 | 0.10 | 0.10 | 80 | 1014.1 |
| 20260904043418 | 26 | 360 | 16.1 | 25.7 | 0.00 | 0.10 | 0.10 | 80 | 1014.1 |
| 20260904043319 | 26 | 360 | 16.1 | 25.7 | 0.00 | 0.10 | 0.10 | 80 | 1014.1 |
| 20260904043220 | 26 | 360 | 16.1 | 25.7 | 0.00 | 0.10 | 0.10 | 80 | 1014.2 |
| 20260904043121 | 26 | 360 | 16.1 | 25.7 | 0.00 | 0.10 | 0.10 | 80 | 1014.1 |
| 20260904043025 | 26 | 360 | 14.5 | 22.5 | 0.00 | 0.10 | 0.10 | 80 | 1014.1 |
| 20260904042925 | 26 | 360 | 12.9 | 29.0 | 0.00 | 0.10 | 0.10 | 80 | 1014.1 |
| 20260904042828 | 26 | 360 | 14.5 | 29.0 | 0.00 | 0.10 | 0.10 | 80 | 1014.2 |
| 20260904042728 | 26 | 360 | 14.5 | 29.0 | 0.00 | 0.10 | 0.10 | 80 | 1014.2 |
| 20260904042629 | 26 | 360 | 14.5 | 29.0 | 0.00 | 0.10 | 0.10 | 80 | 1014.2 |
| 20260904042530 | 26 | 360 | 14.5 | 29.0 | 0.00 | 0.10 | 0.10 | 80 | 1014.2 |
| 20260904042434 | 26 | 360 | 14.5 | 29.0 | 0.00 | 0.10 | 0.10 | 80 | 1014.1 |
| 20260904042335 | 26 | 360 | 16.1 | 29.0 | 0.00 | 0.10 | 0.10 | 80 | 1014.1 |
| 20260904042235 | 26 | 360 | 19.3 | 29.0 | 0.00 | 0.10 | 0.10 | 80 | 1014.1 |
| 20260904042116 | 26 | 360 | 17.7 | 27.4 | 0.00 | 0.10 | 0.10 | 80 | 1014.2 |
| 20260904042017 | 26 | 360 | 17.7 | 27.4 | 0.00 | 0.10 | 0.10 | 80 | 1014.1 |
| 20260904041916 | 26 | 360 | 17.7 | 27.4 | 0.00 | 0.10 | 0.10 | 80 | 1014.1 |
| 20260904041821 | 26 | 360 | 16.1 | 27.4 | 0.00 | 0.10 | 0.10 | 80 | 1014.1 |
| 20260904041720 | 26 | 360 | 16.1 | 27.4 | 0.00 | 0.10 | 0.10 | 80 | 1014.1 |
| 20260904041621 | 26 | 360 | 16.1 | 27.4 | 0.00 | 0.10 | 0.10 | 80 | 1014.1 |
| 20260904041521 | 26 | 360 | 16.1 | 27.4 | 0.00 | 0.10 | 0.10 | 80 | 1014.1 |
| 20260904041441 | 26 | 360 | 17.7 | 27.4 | 0.00 | 0.10 | 0.10 | 79 | 1014.1 |
| 20260904041342 | 26 | 360 | 17.7 | 27.4 | 0.00 | 0.10 | 0.10 | 80 | 1014.1 |
| 20260904041220 | 26 | 360 | 16.1 | 27.4 | 0.00 | 0.10 | 0.10 | 80 | 1014.1 |
| 20260904041121 | 26 | 360 | 16.1 | 27.4 | 0.00 | 0.10 | 0.10 | 79 | 1014.1 |
| 20260904041026 | 26 | 360 | 14.5 | 27.4 | 0.00 | 0.10 | 0.10 | 79 | 1014.1 |
| 20260904040928 | 26 | 360 | 17.7 | 27.4 | 0.00 | 0.10 | 0.10 | 79 | 1014.1 |
| 20260904040828 | 26 | 360 | 19.3 | 27.4 | 0.00 | 0.10 | 0.10 | 79 | 1014.1 |
| 20260904040728 | 26 | 360 | 19.3 | 27.4 | 0.00 | 0.10 | 0.10 | 79 | 1014.1 |
| 20260904040628 | 26 | 360 | 17.7 | 27.4 | 0.00 | 0.10 | 0.10 | 79 | 1014.0 |
| 20260904040530 | 26 | 360 | 14.5 | 27.4 | 0.00 | 0.10 | 0.10 | 79 | 1014.1 |
| 20260904040430 | 26 | 360 | 14.5 | 27.4 | 0.00 | 0.10 | 0.10 | 79 | 1014.0 |
| 20260904040335 | 26 | 360 | 16.1 | 27.4 | 0.00 | 0.10 | 0.10 | 79 | 1014.0 |
| 20260904040216 | 26 | 360 | 17.7 | 33.8 | 0.00 | 0.10 | 0.10 | 79 | 1014.0 |
| 20260904040117 | 26 | 360 | 16.1 | 33.8 | 0.00 | 0.10 | 0.10 | 79 | 1014.1 |
| 20260904040017 | 26 | 360 | 16.1 | 33.8 | 0.00 | 0.10 | 0.10 | 79 | 1014.0 |
| 20260904035917 | 26 | 360 | 16.1 | 33.8 | 0.00 | 0.10 | 0.10 | 79 | 1014.0 |
| 20260904035819 | 27 | 360 | 17.7 | 33.8 | 0.00 | 0.10 | 0.10 | 79 | 1013.9 |
| 20260904035743 | 27 | 360 | 17.7 | 33.8 | 0.00 | 0.10 | 0.10 | 79 | 1014.0 |
| 20260904035623 | 27 | 360 | 19.3 | 33.8 | 0.00 | 0.10 | 0.10 | 79 | 1014.0 |
| 20260904035524 | 27 | 360 | 20.9 | 33.8 | 0.00 | 0.10 | 0.10 | 79 | 1014.0 |
| 20260904035423 | 27 | 360 | 20.9 | 33.8 | 0.00 | 0.10 | 0.10 | 79 | 1013.9 |
| 20260904035323 | 27 | 360 | 22.5 | 33.8 | 0.00 | 0.10 | 0.10 | 79 | 1014.0 |
| 20260904035224 | 27 | 360 | 20.9 | 30.6 | 0.00 | 0.10 | 0.10 | 79 | 1013.9 |
| 20260904035122 | 27 | 360 | 19.3 | 29.0 | 0.00 | 0.10 | 0.10 | 79 | 1014.0 |
| 20260904035023 | 27 | 360 | 19.3 | 29.0 | 0.00 | 0.10 | 0.10 | 79 | 1013.9 |
| 20260904034928 | 27 | 360 | 17.7 | 29.0 | 0.00 | 0.10 | 0.10 | 79 | 1013.9 |
| 20260904034828 | 27 | 360 | 19.3 | 29.0 | 0.00 | 0.10 | 0.10 | 78 | 1013.9 |
| 20260904034729 | 27 | 360 | 19.3 | 29.0 | 0.00 | 0.10 | 0.10 | 78 | 1014.0 |
| 20260904034629 | 27 | 360 | 20.9 | 29.0 | 0.00 | 0.10 | 0.10 | 78 | 1013.9 |
| 20260904034530 | 27 | 360 | 19.3 | 27.4 | 0.00 | 0.10 | 0.10 | 78 | 1013.9 |
| 20260904034430 | 27 | 360 | 19.3 | 27.4 | 0.00 | 0.10 | 0.10 | 78 | 1013.9 |
| 20260904034335 | 27 | 360 | 17.7 | 27.4 | 0.00 | 0.10 | 0.10 | 78 | 1013.9 |
| 20260904034236 | 27 | 360 | 17.7 | 27.4 | 0.00 | 0.10 | 0.10 | 78 | 1014.0 |
| 20260904034156 | 27 | 360 | 17.7 | 27.4 | 0.00 | 0.10 | 0.10 | 78 | 1013.9 |
| 20260904034035 | 27 | 360 | 17.7 | 27.4 | 0.00 | 0.10 | 0.10 | 78 | 1013.9 |
| 20260904033935 | 27 | 360 | 17.7 | 25.7 | 0.00 | 0.10 | 0.10 | 78 | 1014.0 |
| 20260904033836 | 27 | 360 | 16.1 | 25.7 | 0.00 | 0.10 | 0.10 | 78 | 1014.0 |
| 20260904033735 | 27 | 360 | 16.1 | 25.7 | 0.00 | 0.10 | 0.10 | 78 | 1014.0 |
| 20260904033619 | 27 | 360 | 14.5 | 25.7 | 0.00 | 0.10 | 0.10 | 78 | 1014.0 |
| 20260904033519 | 27 | 360 | 12.9 | 25.7 | 0.00 | 0.10 | 0.10 | 78 | 1014.0 |
| 20260904033440 | 27 | 360 | 12.9 | 25.7 | 0.00 | 0.10 | 0.10 | 78 | 1014.0 |
| 20260904033319 | 27 | 360 | 14.5 | 27.4 | 0.00 | 0.10 | 0.10 | 77 | 1014.0 |
| 20260904033219 | 27 | 360 | 16.1 | 27.4 | 0.00 | 0.10 | 0.10 | 77 | 1014.0 |
| 20260904033141 | 27 | 360 | 17.7 | 27.4 | 0.00 | 0.10 | 0.10 | 77 | 1013.9 |
| 20260904033021 | 27 | 360 | 17.7 | 27.4 | 0.00 | 0.10 | 0.10 | 77 | 1014.0 |
| 20260904032922 | 27 | 360 | 17.7 | 27.4 | 0.00 | 0.10 | 0.10 | 77 | 1014.0 |
| 20260904032827 | 27 | 360 | 17.7 | 27.4 | 0.00 | 0.10 | 0.10 | 77 | 1014.0 |
| 20260904032727 | 27 | 360 | 19.3 | 27.4 | 0.00 | 0.10 | 0.10 | 77 | 1014.0 |
| 20260904032629 | 27 | 360 | 20.9 | 27.4 | 0.00 | 0.10 | 0.10 | 77 | 1014.0 |
| 20260904032529 | 27 | 360 | 19.3 | 27.4 | 0.00 | 0.10 | 0.10 | 77 | 1014.0 |
| 20260904032429 | 27 | 360 | 17.7 | 27.4 | 0.00 | 0.10 | 0.10 | 77 | 1014.0 |
| 20260904032330 | 27 | 360 | 16.1 | 27.4 | 0.00 | 0.10 | 0.10 | 77 | 1014.0 |
| 20260904032235 | 27 | 360 | 14.5 | 27.4 | 0.00 | 0.10 | 0.10 | 77 | 1013.9 |
| 20260904032135 | 27 | 360 | 14.5 | 27.4 | 0.00 | 0.10 | 0.10 | 77 | 1013.9 |
| 20260904032017 | 27 | 360 | 14.5 | 27.4 | 0.00 | 0.10 | 0.10 | 77 | 1013.9 |
| 20260904031917 | 27 | 360 | 14.5 | 27.4 | 0.00 | 0.10 | 0.10 | 77 | 1013.9 |
| 20260904031818 | 27 | 360 | 16.1 | 27.4 | 0.00 | 0.10 | 0.10 | 77 | 1013.9 |
| 20260904031718 | 27 | 360 | 17.7 | 27.4 | 0.00 | 0.10 | 0.10 | 77 | 1013.9 |
| 20260904031623 | 27 | 360 | 16.1 | 27.4 | 0.00 | 0.10 | 0.10 | 77 | 1013.9 |
| 20260904031524 | 27 | 360 | 17.7 | 27.4 | 0.00 | 0.10 | 0.10 | 77 | 1013.8 |
| 20260904031446 | 27 | 360 | 17.7 | 27.4 | 0.00 | 0.10 | 0.10 | 77 | 1013.8 |
| 20260904031326 | 27 | 163 | 17.7 | 27.4 | 0.00 | 0.10 | 0.10 | 77 | 1013.8 |
| 20260904031246 | 27 | 360 | 17.7 | 27.4 | 0.00 | 0.10 | 0.10 | 77 | 1013.7 |
| 20260904031125 | 27 | 360 | 16.1 | 27.4 | 0.00 | 0.10 | 0.10 | 77 | 1013.8 |
| 20260904031026 | 27 | 360 | 17.7 | 27.4 | 0.00 | 0.10 | 0.10 | 77 | 1013.8 |
| 20260904030928 | 27 | 360 | 16.1 | 27.4 | 0.00 | 0.10 | 0.10 | 77 | 1013.7 |
| 20260904030852 | 27 | 360 | 16.1 | 27.4 | 0.00 | 0.10 | 0.10 | 76 | 1013.7 |
| 20260904030733 | 27 | 360 | 16.1 | 25.7 | 0.00 | 0.10 | 0.10 | 76 | 1013.7 |
| 20260904030654 | 27 | 360 | 14.5 | 25.7 | 0.00 | 0.10 | 0.10 | 76 | 1013.8 |
| 20260904030534 | 27 | 360 | 16.1 | 25.7 | 0.00 | 0.10 | 0.10 | 76 | 1013.7 |
| 20260904030434 | 27 | 360 | 17.7 | 25.7 | 0.00 | 0.10 | 0.10 | 76 | 1013.7 |
| 20260904030336 | 27 | 360 | 16.1 | 25.7 | 0.00 | 0.10 | 0.10 | 76 | 1013.7 |
| 20260904030235 | 27 | 158 | 14.5 | 25.7 | 0.00 | 0.10 | 0.10 | 76 | 1013.7 |
| 20260904030120 | 27 | 360 | 14.5 | 22.5 | 0.00 | 0.10 | 0.10 | 76 | 1013.6 |
| 20260904030040 | 27 | 360 | 14.5 | 22.5 | 0.00 | 0.10 | 0.10 | 76 | 1013.7 |
| 20260904025920 | 27 | 360 | 16.1 | 25.7 | 0.00 | 0.10 | 0.10 | 76 | 1013.7 |
| 20260904025821 | 27 | 360 | 16.1 | 29.0 | 0.00 | 0.10 | 0.10 | 76 | 1013.7 |
| 20260904025720 | 27 | 360 | 16.1 | 29.0 | 0.00 | 0.10 | 0.10 | 76 | 1013.7 |
| 20260904025621 | 27 | 360 | 12.9 | 29.0 | 0.00 | 0.10 | 0.10 | 76 | 1013.7 |
| 20260904025522 | 27 | 360 | 12.9 | 29.0 | 0.00 | 0.10 | 0.10 | 75 | 1013.7 |
| 20260904025426 | 27 | 360 | 12.9 | 29.0 | 0.00 | 0.10 | 0.10 | 75 | 1013.7 |
| 20260904025346 | 27 | 360 | 16.1 | 29.0 | 0.00 | 0.10 | 0.10 | 75 | 1013.7 |
| 20260904025226 | 27 | 360 | 19.3 | 29.0 | 0.00 | 0.10 | 0.10 | 75 | 1013.6 |
| 20260904025127 | 27 | 360 | 17.7 | 29.0 | 0.00 | 0.10 | 0.10 | 75 | 1013.6 |
| 20260904025048 | 27 | 360 | 19.3 | 29.0 | 0.00 | 0.10 | 0.10 | 75 | 1013.5 |
| 20260904024928 | 27 | 360 | 17.7 | 25.7 | 0.00 | 0.10 | 0.10 | 75 | 1013.6 |
| 20260904024849 | 27 | 360 | 17.7 | 25.7 | 0.00 | 0.10 | 0.10 | 75 | 1013.5 |
| 20260904024729 | 27 | 360 | 17.7 | 25.7 | 0.00 | 0.10 | 0.10 | 75 | 1013.5 |
| 20260904024633 | 27 | 360 | 17.7 | 25.7 | 0.00 | 0.10 | 0.10 | 75 | 1013.5 |
| 20260904024534 | 27 | 360 | 19.3 | 25.7 | 0.00 | 0.10 | 0.10 | 75 | 1013.5 |
| 20260904024433 | 27 | 360 | 16.1 | 27.4 | 0.00 | 0.10 | 0.10 | 75 | 1013.5 |
| 20260904024333 | 27 | 360 | 14.5 | 27.4 | 0.00 | 0.10 | 0.10 | 74 | 1013.5 |
| 20260904024252 | 27 | 360 | 14.5 | 27.4 | 0.00 | 0.10 | 0.10 | 74 | 1013.5 |
| 20260904024152 | 27 | 360 | 16.1 | 30.6 | 0.00 | 0.10 | 0.10 | 74 | 1013.4 |
| 20260904024031 | 27 | 360 | 17.7 | 30.6 | 0.00 | 0.10 | 0.10 | 74 | 1013.4 |
| 20260904023932 | 27 | 360 | 19.3 | 32.2 | 0.00 | 0.10 | 0.10 | 74 | 1013.3 |
| 20260904023831 | 27 | 360 | 20.9 | 33.8 | 0.00 | 0.10 | 0.10 | 74 | 1013.4 |
| 20260904023718 | 27 | 360 | 20.9 | 33.8 | 0.00 | 0.10 | 0.10 | 74 | 1013.4 |
| 20260904023639 | 27 | 360 | 19.3 | 33.8 | 0.00 | 0.10 | 0.10 | 74 | 1013.4 |
| 20260904023518 | 27 | 360 | 19.3 | 33.8 | 0.00 | 0.10 | 0.10 | 74 | 1013.3 |
| 20260904023418 | 27 | 360 | 20.9 | 33.8 | 0.00 | 0.10 | 0.10 | 74 | 1013.4 |
| 20260904023319 | 28 | 360 | 22.5 | 33.8 | 0.00 | 0.10 | 0.10 | 74 | 1013.3 |
| 20260904023220 | 28 | 360 | 22.5 | 33.8 | 0.00 | 0.10 | 0.10 | 74 | 1013.4 |
| 20260904023124 | 27 | 360 | 20.9 | 33.8 | 0.00 | 0.10 | 0.10 | 74 | 1013.4 |
| 20260904023024 | 28 | 360 | 19.3 | 33.8 | 0.00 | 0.10 | 0.10 | 74 | 1013.4 |
| 20260904022925 | 28 | 360 | 19.3 | 33.8 | 0.00 | 0.10 | 0.10 | 73 | 1013.4 |
| 20260904022826 | 28 | 360 | 20.9 | 33.8 | 0.00 | 0.10 | 0.10 | 73 | 1013.5 |
| 20260904022725 | 28 | 360 | 19.3 | 33.8 | 0.00 | 0.10 | 0.10 | 73 | 1013.4 |
| 20260904022645 | 28 | 360 | 20.9 | 29.0 | 0.00 | 0.10 | 0.10 | 73 | 1013.4 |
| 20260904022524 | 28 | 360 | 19.3 | 27.4 | 0.00 | 0.10 | 0.10 | 73 | 1013.4 |
| 20260904022430 | 28 | 360 | 19.3 | 29.0 | 0.00 | 0.10 | 0.10 | 73 | 1013.4 |
| 20260904022331 | 28 | 360 | 19.3 | 29.0 | 0.00 | 0.10 | 0.10 | 73 | 1013.3 |
| 20260904022231 | 28 | 360 | 16.1 | 29.0 | 0.00 | 0.10 | 0.10 | 73 | 1013.3 |
| 20260904022132 | 28 | 360 | 16.1 | 29.0 | 0.00 | 0.10 | 0.10 | 73 | 1013.3 |
| 20260904022031 | 28 | 360 | 17.7 | 29.0 | 0.00 | 0.10 | 0.10 | 72 | 1013.3 |
| 20260904021932 | 28 | 360 | 19.3 | 29.0 | 0.00 | 0.10 | 0.10 | 72 | 1013.2 |
| 20260904021817 | 28 | 360 | 19.3 | 29.0 | 0.00 | 0.10 | 0.10 | 72 | 1013.2 |
| 20260904021737 | 28 | 360 | 19.3 | 29.0 | 0.00 | 0.10 | 0.10 | 72 | 1013.2 |
| 20260904021616 | 28 | 360 | 20.9 | 29.0 | 0.00 | 0.10 | 0.10 | 72 | 1013.2 |
| 20260904021518 | 28 | 360 | 20.9 | 29.0 | 0.00 | 0.10 | 0.10 | 72 | 1013.2 |
| 20260904021418 | 28 | 360 | 17.7 | 29.0 | 0.00 | 0.10 | 0.10 | 72 | 1013.2 |
| 20260904021319 | 28 | 360 | 16.1 | 27.4 | 0.00 | 0.10 | 0.10 | 72 | 1013.2 |
| 20260904021240 | 28 | 360 | 12.9 | 25.7 | 0.00 | 0.10 | 0.10 | 72 | 1013.2 |
| 20260904021119 | 28 | 360 | 12.9 | 25.7 | 0.00 | 0.10 | 0.10 | 72 | 1013.2 |
| 20260904021023 | 28 | 360 | 16.1 | 25.7 | 0.00 | 0.10 | 0.10 | 72 | 1013.2 |
| 20260904020924 | 28 | 360 | 16.1 | 25.7 | 0.00 | 0.10 | 0.10 | 71 | 1013.2 |
| 20260904020825 | 28 | 360 | 17.7 | 25.7 | 0.00 | 0.10 | 0.10 | 71 | 1013.3 |
| 20260904020746 | 28 | 360 | 16.1 | 25.7 | 0.00 | 0.10 | 0.10 | 71 | 1013.2 |
| 20260904020645 | 28 | 360 | 14.5 | 22.5 | 0.00 | 0.10 | 0.10 | 71 | 1013.2 |
| 20260904020524 | 28 | 360 | 14.5 | 20.9 | 0.00 | 0.10 | 0.10 | 71 | 1013.2 |
| 20260904020425 | 28 | 360 | 14.5 | 20.9 | 0.00 | 0.10 | 0.10 | 71 | 1013.2 |
| 20260904020329 | 28 | 360 | 16.1 | 27.4 | 0.00 | 0.10 | 0.10 | 71 | 1013.2 |
| 20260904020230 | 28 | 360 | 16.1 | 27.4 | 0.00 | 0.10 | 0.10 | 71 | 1013.2 |
| 20260904020131 | 28 | 360 | 14.5 | 27.4 | 0.00 | 0.10 | 0.10 | 71 | 1013.2 |
| 20260904020030 | 28 | 360 | 14.5 | 27.4 | 0.00 | 0.10 | 0.10 | 71 | 1013.2 |
| 20260904015931 | 28 | 360 | 12.9 | 33.8 | 0.00 | 0.10 | 0.10 | 71 | 1013.1 |
| 20260904015834 | 28 | 360 | 14.5 | 33.8 | 0.00 | 0.10 | 0.10 | 71 | 1013.1 |
| 20260904015717 | 28 | 360 | 17.7 | 33.8 | 0.00 | 0.10 | 0.10 | 71 | 1013.1 |
| 20260904015618 | 28 | 360 | 19.3 | 33.8 | 0.00 | 0.10 | 0.10 | 71 | 1013.2 |
| 20260904015519 | 28 | 360 | 19.3 | 33.8 | 0.00 | 0.10 | 0.10 | 71 | 1013.0 |
| 20260904015440 | 28 | 360 | 16.1 | 33.8 | 0.00 | 0.10 | 0.10 | 71 | 1013.0 |
| 20260904015319 | 28 | 360 | 14.5 | 33.8 | 0.00 | 0.10 | 0.10 | 71 | 1013.0 |
| 20260904015220 | 28 | 360 | 16.1 | 33.8 | 0.00 | 0.10 | 0.10 | 70 | 1013.0 |
| 20260904015120 | 28 | 360 | 17.7 | 33.8 | 0.00 | 0.10 | 0.10 | 70 | 1013.0 |
| 20260904015025 | 28 | 360 | 19.3 | 33.8 | 0.00 | 0.10 | 0.10 | 70 | 1012.9 |
| 20260904014926 | 28 | 360 | 20.9 | 33.8 | 0.00 | 0.10 | 0.10 | 70 | 1012.9 |
| 20260904014827 | 28 | 360 | 20.9 | 33.8 | 0.00 | 0.10 | 0.10 | 70 | 1012.8 |
| 20260904014748 | 28 | 360 | 20.9 | 32.2 | 0.00 | 0.10 | 0.10 | 70 | 1012.9 |
| 20260904014627 | 28 | 360 | 20.9 | 32.2 | 0.00 | 0.10 | 0.10 | 70 | 1012.8 |
| 20260904014529 | 28 | 360 | 20.9 | 32.2 | 0.00 | 0.10 | 0.10 | 70 | 1012.8 |
| 20260904014428 | 28 | 360 | 20.9 | 32.2 | 0.00 | 0.10 | 0.10 | 70 | 1012.8 |
| 20260904014334 | 28 | 360 | 19.3 | 32.2 | 0.00 | 0.10 | 0.10 | 70 | 1012.7 |
| 20260904014234 | 28 | 360 | 19.3 | 32.2 | 0.00 | 0.10 | 0.10 | 70 | 1012.8 |
| 20260904014155 | 28 | 360 | 19.3 | 30.6 | 0.00 | 0.10 | 0.10 | 70 | 1012.7 |
| 20260904014035 | 28 | 360 | 19.3 | 30.6 | 0.00 | 0.10 | 0.10 | 70 | 1012.8 |
| 20260904013935 | 28 | 360 | 19.3 | 30.6 | 0.00 | 0.10 | 0.10 | 70 | 1012.8 |
| 20260904013856 | 28 | 360 | 19.3 | 30.6 | 0.00 | 0.10 | 0.10 | 70 | 1012.7 |
| 20260904013735 | 28 | 360 | 20.9 | 30.6 | 0.00 | 0.10 | 0.10 | 70 | 1012.7 |
| 20260904013616 | 28 | 360 | 19.3 | 30.6 | 0.00 | 0.10 | 0.10 | 69 | 1012.6 |
| 20260904013520 | 28 | 360 | 17.7 | 30.6 | 0.00 | 0.10 | 0.10 | 69 | 1012.5 |
| 20260904013420 | 28 | 360 | 16.1 | 29.0 | 0.00 | 0.10 | 0.10 | 69 | 1012.6 |
| 20260904013320 | 28 | 360 | 16.1 | 29.0 | 0.00 | 0.10 | 0.10 | 69 | 1012.5 |
| 20260904013220 | 29 | 360 | 17.7 | 29.0 | 0.00 | 0.10 | 0.10 | 69 | 1012.5 |
| 20260904013121 | 29 | 360 | 19.3 | 29.0 | 0.00 | 0.10 | 0.10 | 69 | 1012.5 |
| 20260904013021 | 29 | 360 | 20.9 | 29.0 | 0.00 | 0.10 | 0.10 | 69 | 1012.5 |
| 20260904012922 | 29 | 155 | 20.9 | 29.0 | 0.00 | 0.10 | 0.10 | 69 | 1012.6 |
| 20260904012827 | 29 | 360 | 20.9 | 33.8 | 0.00 | 0.10 | 0.10 | 69 | 1012.6 |
| 20260904012726 | 29 | 360 | 17.7 | 33.8 | 0.00 | 0.10 | 0.10 | 69 | 1012.6 |
| 20260904012627 | 29 | 360 | 16.1 | 33.8 | 0.00 | 0.10 | 0.10 | 69 | 1012.6 |
| 20260904012527 | 29 | 360 | 14.5 | 33.8 | 0.00 | 0.10 | 0.10 | 69 | 1012.5 |
| 20260904012428 | 29 | 360 | 16.1 | 33.8 | 0.00 | 0.10 | 0.10 | 68 | 1012.5 |
| 20260904012329 | 29 | 360 | 17.7 | 33.8 | 0.00 | 0.10 | 0.10 | 68 | 1012.6 |
| 20260904012233 | 29 | 360 | 17.7 | 33.8 | 0.00 | 0.10 | 0.10 | 68 | 1012.6 |
| 20260904012155 | 29 | 360 | 17.7 | 33.8 | 0.00 | 0.10 | 0.10 | 68 | 1012.5 |
| 20260904012034 | 29 | 360 | 16.1 | 33.8 | 0.00 | 0.10 | 0.10 | 68 | 1012.6 |
| 20260904011935 | 29 | 360 | 14.5 | 30.6 | 0.00 | 0.10 | 0.10 | 68 | 1012.5 |
| 20260904011835 | 29 | 360 | 16.1 | 30.6 | 0.00 | 0.10 | 0.10 | 68 | 1012.6 |
| 20260904011717 | 29 | 360 | 17.7 | 30.6 | 0.00 | 0.10 | 0.10 | 68 | 1012.6 |
| 20260904011616 | 29 | 360 | 17.7 | 30.6 | 0.00 | 0.10 | 0.10 | 68 | 1012.6 |
| 20260904011521 | 29 | 360 | 16.1 | 30.6 | 0.00 | 0.10 | 0.10 | 68 | 1012.6 |
| 20260904011422 | 29 | 360 | 19.3 | 30.6 | 0.00 | 0.10 | 0.10 | 68 | 1012.6 |
| 20260904011322 | 29 | 360 | 17.7 | 30.6 | 0.00 | 0.10 | 0.10 | 68 | 1012.6 |
| 20260904011224 | 29 | 360 | 19.3 | 30.6 | 0.00 | 0.10 | 0.10 | 68 | 1012.6 |
| 20260904011125 | 29 | 360 | 17.7 | 25.7 | 0.00 | 0.10 | 0.10 | 68 | 1012.6 |
| 20260904011026 | 29 | 360 | 17.7 | 24.1 | 0.00 | 0.10 | 0.10 | 68 | 1012.6 |
| 20260904010930 | 29 | 360 | 19.3 | 24.1 | 0.00 | 0.10 | 0.10 | 68 | 1012.6 |
| 20260904010832 | 29 | 360 | 17.7 | 25.7 | 0.00 | 0.10 | 0.10 | 68 | 1012.6 |
| 20260904010732 | 29 | 360 | 16.1 | 25.7 | 0.00 | 0.10 | 0.10 | 68 | 1012.6 |
| 20260904010633 | 29 | 360 | 14.5 | 32.2 | 0.00 | 0.10 | 0.10 | 68 | 1012.6 |
| 20260904010534 | 29 | 360 | 12.9 | 32.2 | 0.00 | 0.10 | 0.10 | 68 | 1012.6 |
| 20260904010435 | 29 | 360 | 14.5 | 32.2 | 0.00 | 0.10 | 0.10 | 68 | 1012.6 |
| 20260904010354 | 29 | 360 | 16.1 | 32.2 | 0.00 | 0.10 | 0.10 | 68 | 1012.5 |
| 20260904010218 | 29 | 360 | 16.1 | 32.2 | 0.00 | 0.10 | 0.10 | 68 | 1012.5 |
| 20260904010119 | 29 | 360 | 16.1 | 32.2 | 0.00 | 0.10 | 0.10 | 68 | 1012.6 |
| 20260904010019 | 29 | 360 | 17.7 | 32.2 | 0.00 | 0.10 | 0.10 | 68 | 1012.6 |
| 20260904005939 | 29 | 360 | 16.1 | 32.2 | 0.00 | 0.10 | 0.10 | 68 | 1012.6 |
| 20260904005821 | 30 | 360 | 16.1 | 32.2 | 0.00 | 0.10 | 0.10 | 68 | 1012.6 |
| 20260904005718 | 29 | 360 | 14.5 | 32.2 | 0.00 | 0.10 | 0.10 | 68 | 1012.5 |
| 20260904005639 | 30 | 360 | 11.3 | 29.0 | 0.00 | 0.10 | 0.10 | 68 | 1012.5 |
| 20260904005539 | 30 | 360 | 11.3 | 33.8 | 0.00 | 0.10 | 0.10 | 68 | 1012.5 |
| 20260904005443 | 30 | 360 | 11.3 | 33.8 | 0.00 | 0.10 | 0.10 | 68 | 1012.5 |
| 20260904005316 | 30 | 360 | 14.5 | 33.8 | 0.00 | 0.10 | 0.10 | 67 | 1012.6 |
| 20260904005216 | 30 | 360 | 14.5 | 33.8 | 0.00 | 0.10 | 0.10 | 67 | 1012.6 |
| 20260904005117 | 30 | 360 | 17.7 | 33.8 | 0.00 | 0.10 | 0.10 | 67 | 1012.5 |
| 20260904005017 | 30 | 360 | 17.7 | 33.8 | 0.00 | 0.10 | 0.10 | 67 | 1012.5 |
| 20260904004917 | 30 | 360 | 20.9 | 33.8 | 0.00 | 0.10 | 0.10 | 67 | 1012.5 |
| 20260904004817 | 30 | 360 | 20.9 | 33.8 | 0.00 | 0.10 | 0.10 | 67 | 1012.5 |
| 20260904004722 | 30 | 360 | 22.5 | 33.8 | 0.00 | 0.10 | 0.10 | 67 | 1012.5 |
| 20260904004624 | 30 | 360 | 20.9 | 30.6 | 0.00 | 0.10 | 0.10 | 67 | 1012.5 |
| 20260904004525 | 30 | 360 | 19.3 | 30.6 | 0.00 | 0.10 | 0.10 | 67 | 1012.5 |
| 20260904004425 | 30 | 360 | 16.1 | 29.0 | 0.00 | 0.10 | 0.10 | 67 | 1012.5 |
| 20260904004326 | 30 | 150 | 16.1 | 25.7 | 0.00 | 0.10 | 0.10 | 67 | 1012.6 |
| 20260904004225 | 30 | 360 | 17.7 | 25.7 | 0.00 | 0.10 | 0.10 | 67 | 1012.5 |
| 20260904004130 | 30 | 360 | 17.7 | 27.4 | 0.00 | 0.10 | 0.10 | 67 | 1012.6 |
| 20260904004051 | 30 | 360 | 17.7 | 27.4 | 0.00 | 0.10 | 0.10 | 66 | 1012.6 |
| 20260904003930 | 30 | 360 | 16.1 | 27.4 | 0.00 | 0.10 | 0.10 | 66 | 1012.6 |
| 20260904003830 | 30 | 360 | 17.7 | 35.4 | 0.00 | 0.10 | 0.10 | 66 | 1012.6 |
| 20260904003731 | 30 | 360 | 16.1 | 35.4 | 0.00 | 0.10 | 0.10 | 66 | 1012.6 |
| 20260904003632 | 30 | 360 | 16.1 | 35.4 | 0.00 | 0.10 | 0.10 | 66 | 1012.6 |
| 20260904003534 | 30 | 360 | 17.7 | 35.4 | 0.00 | 0.10 | 0.10 | 66 | 1012.6 |
| 20260904003439 | 30 | 360 | 19.3 | 35.4 | 0.00 | 0.10 | 0.10 | 66 | 1012.6 |
| 20260904003317 | 30 | 360 | 19.3 | 35.4 | 0.00 | 0.10 | 0.10 | 66 | 1012.6 |
| 20260904003218 | 30 | 360 | 20.9 | 41.8 | 0.00 | 0.10 | 0.10 | 66 | 1012.6 |
| 20260904003119 | 30 | 360 | 22.5 | 41.8 | 0.00 | 0.10 | 0.10 | 66 | 1012.6 |
| 20260904003019 | 30 | 360 | 22.5 | 41.8 | 0.00 | 0.10 | 0.10 | 66 | 1012.5 |
| 20260904002919 | 30 | 360 | 20.9 | 41.8 | 0.00 | 0.10 | 0.10 | 66 | 1012.5 |
| 20260904002821 | 30 | 360 | 19.3 | 43.5 | 0.00 | 0.10 | 0.10 | 65 | 1012.5 |
| 20260904002725 | 30 | 360 | 19.3 | 43.5 | 0.00 | 0.10 | 0.10 | 65 | 1012.5 |
| 20260904002625 | 30 | 360 | 20.9 | 43.5 | 0.00 | 0.10 | 0.10 | 65 | 1012.6 |
| 20260904002525 | 30 | 360 | 22.5 | 43.5 | 0.00 | 0.10 | 0.10 | 65 | 1012.5 |
| 20260904002426 | 30 | 360 | 27.4 | 43.5 | 0.00 | 0.10 | 0.10 | 65 | 1012.4 |
| 20260904002327 | 30 | 360 | 29.0 | 43.5 | 0.00 | 0.10 | 0.10 | 65 | 1012.5 |
| 20260904002229 | 30 | 360 | 27.4 | 43.5 | 0.00 | 0.10 | 0.10 | 65 | 1012.4 |
| 20260904002134 | 30 | 360 | 25.7 | 43.5 | 0.00 | 0.10 | 0.10 | 65 | 1012.5 |
| 20260904002034 | 30 | 360 | 22.5 | 43.5 | 0.00 | 0.10 | 0.10 | 65 | 1012.6 |
| 20260904001934 | 30 | 360 | 19.3 | 41.8 | 0.00 | 0.10 | 0.10 | 65 | 1012.5 |
| 20260904001835 | 30 | 360 | 19.3 | 41.8 | 0.00 | 0.10 | 0.10 | 65 | 1012.5 |
| 20260904001716 | 30 | 360 | 20.9 | 41.8 | 0.00 | 0.10 | 0.10 | 65 | 1012.5 |
| 20260904001616 | 30 | 360 | 24.1 | 41.8 | 0.00 | 0.10 | 0.10 | 65 | 1012.5 |
| 20260904001521 | 30 | 360 | 25.7 | 41.8 | 0.00 | 0.10 | 0.10 | 65 | 1012.5 |
| 20260904001421 | 30 | 360 | 25.7 | 41.8 | 0.00 | 0.10 | 0.10 | 65 | 1012.5 |
| 20260904001322 | 30 | 360 | 25.7 | 41.8 | 0.00 | 0.10 | 0.10 | 65 | 1012.5 |
| 20260904001223 | 30 | 360 | 22.5 | 35.4 | 0.00 | 0.10 | 0.10 | 65 | 1012.5 |
| 20260904001142 | 30 | 360 | 22.5 | 32.2 | 0.00 | 0.10 | 0.10 | 65 | 1012.4 |
| 20260904001022 | 30 | 360 | 20.9 | 33.8 | 0.00 | 0.10 | 0.10 | 66 | 1012.5 |
| 20260904000922 | 30 | 360 | 20.9 | 33.8 | 0.00 | 0.10 | 0.10 | 66 | 1012.4 |
| 20260904000842 | 30 | 360 | 22.5 | 33.8 | 0.00 | 0.10 | 0.10 | 65 | 1012.5 |
| 20260904000726 | 30 | 360 | 22.5 | 33.8 | 0.00 | 0.10 | 0.10 | 65 | 1012.5 |
| 20260904000626 | 30 | 360 | 22.5 | 33.8 | 0.00 | 0.10 | 0.10 | 65 | 1012.5 |
| 20260904000527 | 30 | 360 | 20.9 | 33.8 | 0.00 | 0.10 | 0.10 | 65 | 1012.4 |
| 20260904000427 | 31 | 360 | 19.3 | 33.8 | 0.00 | 0.10 | 0.10 | 65 | 1012.4 |
| 20260904000327 | 31 | 360 | 19.3 | 33.8 | 0.00 | 0.10 | 0.10 | 65 | 1012.4 |
| 20260904000248 | 31 | 360 | 20.9 | 33.8 | 0.00 | 0.10 | 0.10 | 65 | 1012.4 |
| 20260904000128 | 31 | 360 | 20.9 | 33.8 | 0.00 | 0.10 | 0.10 | 65 | 1012.4 |
| 20260904000030 | 31 | 360 | 20.9 | 33.8 | 0.00 | 0.10 | 0.10 | 65 | 1012.4 |
| 20260903235952 | 31 | 360 | 19.3 | 33.8 | 0.00 | 0.10 | 0.10 | 64 | 1012.4 |
| 20260903235833 | 31 | 360 | 17.7 | 29.0 | 0.00 | 0.10 | 0.10 | 64 | 1012.3 |
| 20260903235754 | 31 | 360 | 17.7 | 29.0 | 0.00 | 0.10 | 0.10 | 64 | 1012.4 |
| 20260903235633 | 31 | 163 | 16.1 | 29.0 | 0.00 | 0.10 | 0.10 | 64 | 1012.4 |
| 20260903235533 | 31 | 360 | 16.1 | 29.0 | 0.00 | 0.10 | 0.10 | 64 | 1012.4 |
| 20260903235434 | 31 | 360 | 16.1 | 29.0 | 0.00 | 0.10 | 0.10 | 64 | 1012.5 |
| 20260903235318 | 31 | 360 | 16.1 | 27.4 | 0.00 | 0.10 | 0.10 | 63 | 1012.4 |
| 20260903235239 | 31 | 360 | 16.1 | 27.4 | 0.00 | 0.10 | 0.10 | 64 | 1012.4 |
| 20260903235119 | 31 | 360 | 14.5 | 27.4 | 0.00 | 0.10 | 0.10 | 63 | 1012.4 |
| 20260903235019 | 31 | 360 | 14.5 | 25.7 | 0.00 | 0.10 | 0.10 | 63 | 1012.4 |
| 20260903234941 | 31 | 360 | 14.5 | 25.7 | 0.00 | 0.10 | 0.10 | 63 | 1012.4 |
| 20260903234816 | 31 | 360 | 14.5 | 30.6 | 0.00 | 0.10 | 0.10 | 64 | 1012.3 |
| 20260903234737 | 31 | 360 | 12.9 | 30.6 | 0.00 | 0.10 | 0.10 | 63 | 1012.3 |
| 20260903234637 | 31 | 360 | 14.5 | 30.6 | 0.00 | 0.10 | 0.10 | 63 | 1012.2 |
| 20260903234516 | 31 | 360 | 14.5 | 30.6 | 0.00 | 0.10 | 0.10 | 63 | 1012.3 |
| 20260903234422 | 31 | 360 | 16.1 | 33.8 | 0.00 | 0.10 | 0.10 | 63 | 1012.2 |
| 20260903234322 | 31 | 360 | 19.3 | 33.8 | 0.00 | 0.10 | 0.10 | 63 | 1012.3 |
| 20260903234223 | 31 | 360 | 20.9 | 33.8 | 0.00 | 0.10 | 0.10 | 63 | 1012.3 |
| 20260903234124 | 31 | 360 | 20.9 | 33.8 | 0.00 | 0.10 | 0.10 | 63 | 1012.2 |
| 20260903234026 | 31 | 360 | 20.9 | 33.8 | 0.00 | 0.10 | 0.10 | 63 | 1012.2 |
| 20260903233927 | 31 | 360 | 19.3 | 33.8 | 0.00 | 0.10 | 0.10 | 63 | 1012.1 |
| 20260903233831 | 31 | 360 | 19.3 | 33.8 | 0.00 | 0.10 | 0.10 | 63 | 1012.1 |
| 20260903233731 | 31 | 360 | 19.3 | 33.8 | 0.03 | 0.10 | 0.10 | 63 | 1012.1 |
| 20260903233632 | 31 | 360 | 17.7 | 33.8 | 0.03 | 0.10 | 0.10 | 64 | 1012.2 |
| 20260903233533 | 31 | 360 | 16.1 | 30.6 | 0.03 | 0.10 | 0.10 | 64 | 1012.1 |
| 20260903233434 | 31 | 360 | 16.1 | 30.6 | 0.03 | 0.10 | 0.10 | 64 | 1012.1 |
| 20260903233336 | 31 | 360 | 17.7 | 30.6 | 0.03 | 0.10 | 0.10 | 64 | 1012.2 |
| 20260903233219 | 31 | 360 | 17.7 | 32.2 | 0.03 | 0.10 | 0.10 | 64 | 1012.2 |
| 20260903233120 | 31 | 360 | 19.3 | 32.2 | 0.03 | 0.10 | 0.10 | 65 | 1012.1 |
| 20260903233021 | 31 | 360 | 17.7 | 32.2 | 0.03 | 0.10 | 0.10 | 65 | 1012.3 |
| 20260903232922 | 31 | 360 | 17.7 | 33.8 | 0.05 | 0.10 | 0.10 | 65 | 1012.2 |
| 20260903232824 | 31 | 360 | 19.3 | 33.8 | 0.05 | 0.10 | 0.10 | 65 | 1012.1 |
| 20260903232723 | 31 | 360 | 19.3 | 33.8 | 0.05 | 0.10 | 0.10 | 66 | 1012.1 |
| 20260903232623 | 31 | 360 | 22.5 | 33.8 | 0.08 | 0.10 | 0.10 | 65 | 1012.2 |
| 20260903232528 | 31 | 360 | 22.5 | 33.8 | 0.08 | 0.10 | 0.10 | 65 | 1012.1 |
| 20260903232429 | 31 | 360 | 22.5 | 33.8 | 0.10 | 0.10 | 0.10 | 66 | 1012.2 |
| 20260903232329 | 31 | 360 | 20.9 | 33.8 | 0.10 | 0.10 | 0.10 | 66 | 1012.2 |
| 20260903232230 | 31 | 360 | 19.3 | 33.8 | 0.10 | 0.10 | 0.10 | 66 | 1012.1 |
| 20260903232130 | 31 | 360 | 17.7 | 33.8 | 0.10 | 0.10 | 0.10 | 66 | 1012.1 |
| 20260903232031 | 31 | 360 | 14.5 | 33.8 | 0.10 | 0.10 | 0.10 | 67 | 1012.2 |
| 20260903231952 | 31 | 360 | 16.1 | 33.8 | 0.10 | 0.10 | 0.10 | 67 | 1012.0 |
| 20260903231835 | 31 | 360 | 16.1 | 37.0 | 0.10 | 0.10 | 0.10 | 67 | 1012.1 |
| 20260903231736 | 31 | 360 | 17.7 | 46.7 | 0.10 | 0.10 | 0.10 | 66 | 1012.1 |
| 20260903231635 | 31 | 360 | 20.9 | 46.7 | 0.10 | 0.10 | 0.10 | 67 | 1012.1 |
| 20260903231516 | 31 | 360 | 22.5 | 46.7 | 0.10 | 0.10 | 0.10 | 67 | 1012.1 |
| 20260903231417 | 31 | 360 | 22.5 | 46.7 | 0.10 | 0.10 | 0.10 | 66 | 1012.2 |
| 20260903231318 | 31 | 360 | 22.5 | 46.7 | 0.10 | 0.10 | 0.10 | 67 | 1012.3 |
| 20260903231223 | 31 | 360 | 24.1 | 46.7 | 0.10 | 0.10 | 0.10 | 67 | 1012.3 |
| 20260903231124 | 31 | 360 | 27.4 | 48.3 | 0.10 | 0.10 | 0.10 | 67 | 1012.3 |
| 20260903231024 | 31 | 360 | 30.6 | 48.3 | 0.10 | 0.10 | 0.10 | 68 | 1012.3 |
| 20260903230925 | 31 | 360 | 32.2 | 48.3 | 0.10 | 0.10 | 0.10 | 67 | 1012.2 |
| 20260903230826 | 31 | 360 | 32.2 | 48.3 | 0.10 | 0.10 | 0.10 | 67 | 1012.3 |
| 20260903230725 | 31 | 360 | 32.2 | 48.3 | 0.10 | 0.10 | 0.10 | 67 | 1012.3 |
| 20260903230626 | 31 | 360 | 32.2 | 48.3 | 0.10 | 0.10 | 0.10 | 67 | 1012.3 |
| 20260903230531 | 31 | 360 | 33.8 | 48.3 | 0.10 | 0.10 | 0.10 | 67 | 1012.2 |
| 20260903230432 | 31 | 360 | 33.8 | 48.3 | 0.10 | 0.10 | 0.10 | 67 | 1012.1 |
| 20260903230332 | 31 | 360 | 30.6 | 48.3 | 0.10 | 0.10 | 0.10 | 66 | 1012.1 |
| 20260903230231 | 31 | 360 | 27.4 | 48.3 | 0.10 | 0.10 | 0.10 | 66 | 1012.1 |
| 20260903230131 | 31 | 360 | 24.1 | 38.6 | 0.10 | 0.10 | 0.10 | 66 | 1012.1 |
| 20260903230053 | 31 | 360 | 24.1 | 38.6 | 0.10 | 0.10 | 0.10 | 65 | 1012.0 |
| 20260903225952 | 31 | 360 | 24.1 | 38.6 | 0.10 | 0.10 | 0.10 | 63 | 1012.0 |
| 20260903225832 | 31 | 360 | 24.1 | 43.5 | 0.10 | 0.10 | 0.10 | 63 | 1012.0 |
| 20260903225716 | 31 | 360 | 25.7 | 43.5 | 0.10 | 0.10 | 0.10 | 63 | 1012.0 |
| 20260903225617 | 31 | 360 | 27.4 | 43.5 | 0.10 | 0.10 | 0.10 | 62 | 1012.0 |
| 20260903225517 | 31 | 360 | 27.4 | 43.5 | 0.10 | 0.10 | 0.10 | 62 | 1011.9 |
| 20260903225417 | 31 | 360 | 25.7 | 43.5 | 0.10 | 0.10 | 0.10 | 62 | 1011.9 |
| 20260903225318 | 31 | 360 | 27.4 | 43.5 | 0.10 | 0.10 | 0.10 | 61 | 1011.9 |
| 20260903225220 | 32 | 360 | 25.7 | 43.5 | 0.10 | 0.10 | 0.10 | 61 | 1011.9 |
| 20260903225124 | 32 | 360 | 24.1 | 43.5 | 0.10 | 0.10 | 0.10 | 60 | 1011.8 |
| 20260903225042 | 32 | 360 | 20.9 | 43.5 | 0.10 | 0.10 | 0.10 | 60 | 1011.8 |
| 20260903224921 | 32 | 360 | 19.3 | 43.5 | 0.10 | 0.10 | 0.10 | 60 | 1011.8 |
| 20260903224842 | 32 | 360 | 17.7 | 37.0 | 0.10 | 0.10 | 0.10 | 60 | 1011.7 |
| 20260903224716 | 32 | 360 | 14.5 | 29.0 | 0.10 | 0.10 | 0.10 | 60 | 1011.7 |
| 20260903224617 | 32 | 360 | 14.5 | 33.8 | 0.10 | 0.10 | 0.10 | 61 | 1011.6 |
| 20260903224518 | 31 | 360 | 14.5 | 33.8 | 0.10 | 0.10 | 0.10 | 62 | 1011.7 |
| 20260903224424 | 31 | 360 | 16.1 | 33.8 | 0.10 | 0.10 | 0.10 | 61 | 1011.6 |
| 20260903224323 | 31 | 360 | 16.1 | 33.8 | 0.10 | 0.10 | 0.10 | 61 | 1011.7 |
| 20260903224224 | 31 | 360 | 16.1 | 33.8 | 0.10 | 0.10 | 0.10 | 62 | 1011.7 |
| 20260903224124 | 31 | 360 | 17.7 | 33.8 | 0.10 | 0.10 | 0.10 | 63 | 1011.7 |
| 20260903224025 | 31 | 360 | 19.3 | 33.8 | 0.10 | 0.10 | 0.10 | 63 | 1011.7 |
| 20260903223945 | 31 | 360 | 20.9 | 33.8 | 0.10 | 0.10 | 0.10 | 63 | 1011.7 |
| 20260903223824 | 31 | 360 | 22.5 | 33.8 | 0.08 | 0.08 | 0.08 | 62 | 1011.6 |
| 20260903223723 | 31 | 360 | 20.9 | 33.8 | 0.08 | 0.08 | 0.08 | 62 | 1011.7 |
| 20260903223628 | 31 | 360 | 20.9 | 29.0 | 0.08 | 0.08 | 0.08 | 62 | 1011.6 |
| 20260903223549 | 31 | 360 | 19.3 | 33.8 | 0.08 | 0.08 | 0.08 | 63 | 1011.7 |
| 20260903223429 | 31 | 360 | 16.1 | 33.8 | 0.08 | 0.08 | 0.08 | 63 | 1011.7 |
| 20260903223329 | 31 | 360 | 14.5 | 33.8 | 0.08 | 0.08 | 0.08 | 62 | 1011.7 |
| 20260903223229 | 31 | 360 | 12.9 | 33.8 | 0.08 | 0.08 | 0.08 | 63 | 1011.6 |
| 20260903223130 | 32 | 360 | 14.5 | 33.8 | 0.08 | 0.08 | 0.08 | 62 | 1011.6 |
| 20260903223030 | 32 | 360 | 17.7 | 33.8 | 0.08 | 0.08 | 0.08 | 60 | 1011.7 |
| 20260903222935 | 32 | 360 | 20.9 | 33.8 | 0.05 | 0.05 | 0.05 | 60 | 1011.6 |
| 20260903222836 | 32 | 360 | 22.5 | 33.8 | 0.05 | 0.05 | 0.05 | 57 | 1011.6 |
| 20260903222735 | 32 | 360 | 22.5 | 33.8 | 0.03 | 0.03 | 0.03 | 57 | 1011.7 |
| 20260903222656 | 33 | 360 | 17.7 | 33.8 | 0.03 | 0.03 | 0.03 | 57 | 1011.6 |
| 20260903222516 | 33 | 360 | 14.5 | 32.2 | 0.00 | 0.00 | 0.00 | 57 | 1011.6 |
| 20260903222416 | 33 | 360 | 16.1 | 32.2 | 0.00 | 0.00 | 0.00 | 55 | 1011.6 |
| 20260903222322 | 33 | 360 | 17.7 | 35.4 | 0.00 | 0.00 | 0.00 | 54 | 1011.7 |
| 20260903222243 | 33 | 360 | 17.7 | 35.4 | 0.00 | 0.00 | 0.00 | 53 | 1011.7 |
| 20260903222123 | 33 | 125 | 16.1 | 35.4 | 0.00 | 0.00 | 0.00 | 53 | 1011.6 |
| 20260903222024 | 33 | 360 | 16.1 | 37.0 | 0.00 | 0.00 | 0.00 | 53 | 1011.7 |
| 20260903221944 | 33 | 360 | 17.7 | 37.0 | 0.00 | 0.00 | 0.00 | 53 | 1011.6 |
| 20260903221822 | 33 | 360 | 20.9 | 37.0 | 0.00 | 0.00 | 0.00 | 53 | 1011.6 |
| 20260903221723 | 33 | 360 | 22.5 | 37.0 | 0.00 | 0.00 | 0.00 | 53 | 1011.6 |
| 20260903221623 | 33 | 360 | 24.1 | 40.2 | 0.00 | 0.00 | 0.00 | 53 | 1011.6 |
| 20260903221523 | 33 | 360 | 22.5 | 40.2 | 0.00 | 0.00 | 0.00 | 53 | 1011.7 |
| 20260903221427 | 34 | 360 | 20.9 | 43.5 | 0.00 | 0.00 | 0.00 | 53 | 1011.6 |
| 20260903221327 | 34 | 360 | 20.9 | 46.7 | 0.00 | 0.00 | 0.00 | 53 | 1011.6 |
| 20260903221228 | 34 | 360 | 22.5 | 46.7 | 0.00 | 0.00 | 0.00 | 53 | 1011.7 |
| 20260903221129 | 34 | 360 | 24.1 | 46.7 | 0.00 | 0.00 | 0.00 | 53 | 1011.6 |
| 20260903221029 | 34 | 360 | 25.7 | 46.7 | 0.00 | 0.00 | 0.00 | 53 | 1011.6 |
| 20260903220929 | 34 | 360 | 27.4 | 46.7 | 0.00 | 0.00 | 0.00 | 53 | 1011.5 |
| 20260903220834 | 34 | 360 | 27.4 | 46.7 | 0.00 | 0.00 | 0.00 | 53 | 1011.4 |
| 20260903220736 | 34 | 360 | 24.1 | 46.7 | 0.00 | 0.00 | 0.00 | 52 | 1011.4 |
| 20260903220616 | 34 | 360 | 24.1 | 43.5 | 0.00 | 0.00 | 0.00 | 52 | 1011.4 |
| 20260903220516 | 35 | 360 | 22.5 | 41.8 | 0.00 | 0.00 | 0.00 | 52 | 1011.4 |
| 20260903220437 | 35 | 360 | 24.1 | 41.8 | 0.00 | 0.00 | 0.00 | 51 | 1011.4 |
| 20260903220315 | 35 | 360 | 24.1 | 41.8 | 0.00 | 0.00 | 0.00 | 51 | 1011.3 |
| 20260903220216 | 35 | 360 | 20.9 | 33.8 | 0.00 | 0.00 | 0.00 | 50 | 1011.4 |
| 20260903220121 | 35 | 360 | 17.7 | 33.8 | 0.00 | 0.00 | 0.00 | 50 | 1011.3 |
| 20260903220042 | 35 | 360 | 16.1 | 33.8 | 0.00 | 0.00 | 0.00 | 50 | 1011.4 |
| 20260903215922 | 35 | 360 | 17.7 | 33.8 | 0.00 | 0.00 | 0.00 | 49 | 1011.4 |
| 20260903215843 | 35 | 360 | 16.1 | 30.6 | 0.00 | 0.00 | 0.00 | 49 | 1011.3 |
| 20260903215741 | 35 | 360 | 19.3 | 30.6 | 0.00 | 0.00 | 0.00 | 49 | 1011.3 |
| 20260903215640 | 35 | 360 | 17.7 | 30.6 | 0.00 | 0.00 | 0.00 | 49 | 1011.2 |
| 20260903215519 | 36 | 360 | 17.7 | 30.6 | 0.00 | 0.00 | 0.00 | 48 | 1011.3 |
| 20260903215419 | 36 | 360 | 12.9 | 22.5 | 0.00 | 0.00 | 0.00 | 48 | 1011.2 |
| 20260903215324 | 36 | 360 | 11.3 | 22.5 | 0.00 | 0.00 | 0.00 | 48 | 1011.3 |
| 20260903215224 | 36 | 360 | 8.0 | 22.5 | 0.00 | 0.00 | 0.00 | 49 | 1011.3 |
| 20260903215125 | 36 | 360 | 8.0 | 22.5 | 0.00 | 0.00 | 0.00 | 48 | 1011.3 |
| 20260903215026 | 36 | 360 | 9.7 | 22.5 | 0.00 | 0.00 | 0.00 | 48 | 1011.4 |
| 20260903214926 | 36 | 360 | 11.3 | 22.5 | 0.00 | 0.00 | 0.00 | 49 | 1011.3 |
| 20260903214826 | 36 | 360 | 12.9 | 22.5 | 0.00 | 0.00 | 0.00 | 49 | 1011.3 |
| 20260903214727 | 36 | 360 | 12.9 | 22.5 | 0.00 | 0.00 | 0.00 | 49 | 1011.4 |
| 20260903214631 | 36 | 360 | 11.3 | 19.3 | 0.00 | 0.00 | 0.00 | 48 | 1011.3 |
| 20260903214532 | 36 | 360 | 8.0 | 17.7 | 0.00 | 0.00 | 0.00 | 48 | 1011.4 |
| 20260903214431 | 36 | 360 | 6.4 | 17.7 | 0.00 | 0.00 | 0.00 | 49 | 1011.3 |
| 20260903214331 | 36 | 360 | 6.4 | 19.3 | 0.00 | 0.00 | 0.00 | 49 | 1011.4 |
| 20260903214232 | 36 | 360 | 6.4 | 25.7 | 0.00 | 0.00 | 0.00 | 49 | 1011.4 |
| 20260903214133 | 36 | 360 | 6.4 | 25.7 | 0.00 | 0.00 | 0.00 | 49 | 1011.3 |
| 20260903214017 | 36 | 360 | 9.7 | 25.7 | 0.00 | 0.00 | 0.00 | 49 | 1011.4 |
| 20260903213917 | 36 | 360 | 9.7 | 25.7 | 0.00 | 0.00 | 0.00 | 49 | 1011.4 |
| 20260903213837 | 36 | 360 | 11.3 | 25.7 | 0.00 | 0.00 | 0.00 | 49 | 1011.4 |
| 20260903213717 | 36 | 360 | 12.9 | 25.7 | 0.00 | 0.00 | 0.00 | 49 | 1011.4 |
| 20260903213617 | 36 | 360 | 14.5 | 25.7 | 0.00 | 0.00 | 0.00 | 49 | 1011.4 |
| 20260903213517 | 36 | 360 | 16.1 | 25.7 | 0.00 | 0.00 | 0.00 | 49 | 1011.4 |
| 20260903213418 | 36 | 360 | 16.1 | 25.7 | 0.00 | 0.00 | 0.00 | 49 | 1011.4 |
| 20260903213324 | 36 | 360 | 16.1 | 25.7 | 0.00 | 0.00 | 0.00 | 49 | 1011.4 |
| 20260903213224 | 36 | 360 | 17.7 | 33.8 | 0.00 | 0.00 | 0.00 | 49 | 1011.4 |
| 20260903213125 | 36 | 360 | 16.1 | 38.6 | 0.00 | 0.00 | 0.00 | 49 | 1011.4 |
| 20260903213027 | 36 | 360 | 16.1 | 38.6 | 0.00 | 0.00 | 0.00 | 49 | 1011.5 |
| 20260903212928 | 36 | 360 | 12.9 | 38.6 | 0.00 | 0.00 | 0.00 | 49 | 1011.4 |
| 20260903212830 | 36 | 360 | 14.5 | 38.6 | 0.00 | 0.00 | 0.00 | 49 | 1011.5 |
| 20260903212730 | 36 | 360 | 14.5 | 38.6 | 0.00 | 0.00 | 0.00 | 49 | 1011.5 |
| 20260903212655 | 36 | 360 | 19.3 | 38.6 | 0.00 | 0.00 | 0.00 | 49 | 1011.5 |
| 20260903212535 | 36 | 360 | 20.9 | 38.6 | 0.00 | 0.00 | 0.00 | 49 | 1011.5 |
| 20260903212435 | 36 | 360 | 24.1 | 38.6 | 0.00 | 0.00 | 0.00 | 48 | 1011.5 |
| 20260903212355 | 36 | 360 | 22.5 | 38.6 | 0.00 | 0.00 | 0.00 | 48 | 1011.5 |
| 20260903212234 | 36 | 360 | 17.7 | 33.8 | 0.00 | 0.00 | 0.00 | 48 | 1011.5 |
| 20260903212134 | 36 | 360 | 12.9 | 29.0 | 0.00 | 0.00 | 0.00 | 48 | 1011.5 |
| 20260903212036 | 36 | 360 | 14.5 | 24.1 | 0.00 | 0.00 | 0.00 | 48 | 1011.5 |
| 20260903211920 | 36 | 360 | 16.1 | 25.7 | 0.00 | 0.00 | 0.00 | 48 | 1011.4 |
| 20260903211821 | 36 | 360 | 14.5 | 30.6 | 0.00 | 0.00 | 0.00 | 48 | 1011.5 |
| 20260903211721 | 36 | 360 | 11.3 | 30.6 | 0.00 | 0.00 | 0.00 | 48 | 1011.5 |
| 20260903211622 | 36 | 360 | 8.0 | 30.6 | 0.00 | 0.00 | 0.00 | 48 | 1011.5 |
| 20260903211542 | 36 | 360 | 8.0 | 30.6 | 0.00 | 0.00 | 0.00 | 48 | 1011.4 |
| 20260903211422 | 36 | 360 | 11.3 | 30.6 | 0.00 | 0.00 | 0.00 | 48 | 1011.4 |
| 20260903211323 | 36 | 360 | 14.5 | 30.6 | 0.00 | 0.00 | 0.00 | 48 | 1011.5 |
| 20260903211228 | 36 | 360 | 17.7 | 30.6 | 0.00 | 0.00 | 0.00 | 48 | 1011.6 |
| 20260903211128 | 36 | 360 | 19.3 | 30.6 | 0.00 | 0.00 | 0.00 | 47 | 1011.6 |
| 20260903211029 | 37 | 360 | 17.7 | 30.6 | 0.00 | 0.00 | 0.00 | 47 | 1011.6 |
| 20260903210929 | 37 | 360 | 12.9 | 24.1 | 0.00 | 0.00 | 0.00 | 47 | 1011.6 |
| 20260903210849 | 37 | 360 | 9.7 | 24.1 | 0.00 | 0.00 | 0.00 | 47 | 1011.7 |
| 20260903210729 | 36 | 360 | 8.0 | 24.1 | 0.00 | 0.00 | 0.00 | 47 | 1011.6 |
| 20260903210649 | 36 | 360 | 9.7 | 24.1 | 0.00 | 0.00 | 0.00 | 47 | 1011.6 |
| 20260903210533 | 36 | 360 | 11.3 | 24.1 | 0.00 | 0.00 | 0.00 | 47 | 1011.6 |
| 20260903210433 | 36 | 360 | 11.3 | 24.1 | 0.00 | 0.00 | 0.00 | 47 | 1011.7 |
| 20260903210333 | 36 | 360 | 9.7 | 24.1 | 0.00 | 0.00 | 0.00 | 47 | 1011.7 |
| 20260903210234 | 36 | 360 | 11.3 | 29.0 | 0.00 | 0.00 | 0.00 | 46 | 1011.8 |
| 20260903210134 | 36 | 360 | 11.3 | 29.0 | 0.00 | 0.00 | 0.00 | 47 | 1011.8 |
| 20260903210035 | 36 | 360 | 11.3 | 29.0 | 0.00 | 0.00 | 0.00 | 47 | 1011.7 |
| 20260903205918 | 36 | 360 | 12.9 | 29.0 | 0.00 | 0.00 | 0.00 | 47 | 1011.8 |
| 20260903205820 | 36 | 360 | 14.5 | 29.0 | 0.00 | 0.00 | 0.00 | 47 | 1011.8 |
| 20260903205720 | 36 | 360 | 16.1 | 29.0 | 0.00 | 0.00 | 0.00 | 48 | 1011.9 |
| 20260903205621 | 36 | 360 | 17.7 | 29.0 | 0.00 | 0.00 | 0.00 | 48 | 1011.8 |
| 20260903205542 | 36 | 169 | 16.1 | 29.0 | 0.00 | 0.00 | 0.00 | 47 | 1011.7 |
| 20260903205416 | 36 | 360 | 16.1 | 27.4 | 0.00 | 0.00 | 0.00 | 47 | 1011.8 |
| 20260903205317 | 36 | 360 | 12.9 | 24.1 | 0.00 | 0.00 | 0.00 | 47 | 1011.8 |
| 20260903205221 | 36 | 134 | 12.9 | 20.9 | 0.00 | 0.00 | 0.00 | 47 | 1011.7 |
| 20260903205142 | 36 | 360 | 11.3 | 20.9 | 0.00 | 0.00 | 0.00 | 46 | 1011.7 |
| 20260903205022 | 36 | 360 | 9.7 | 20.9 | 0.00 | 0.00 | 0.00 | 46 | 1011.8 |
| 20260903204942 | 36 | 360 | 6.4 | 17.7 | 0.00 | 0.00 | 0.00 | 47 | 1011.8 |
| 20260903204842 | 36 | 360 | 4.8 | 17.7 | 0.00 | 0.00 | 0.00 | 48 | 1011.8 |
| 20260903204721 | 36 | 360 | 6.4 | 20.9 | 0.00 | 0.00 | 0.00 | 47 | 1011.8 |
| 20260903204620 | 36 | 360 | 8.0 | 20.9 | 0.00 | 0.00 | 0.00 | 47 | 1011.8 |
| 20260903204521 | 36 | 360 | 8.0 | 20.9 | 0.00 | 0.00 | 0.00 | 47 | 1011.9 |
| 20260903204426 | 36 | 360 | 6.4 | 20.9 | 0.00 | 0.00 | 0.00 | 47 | 1011.8 |
| 20260903204347 | 36 | 360 | 8.0 | 20.9 | 0.00 | 0.00 | 0.00 | 48 | 1011.9 |
| 20260903204226 | 36 | 360 | 9.7 | 20.9 | 0.00 | 0.00 | 0.00 | 47 | 1012.0 |
| 20260903204147 | 36 | 360 | 12.9 | 20.9 | 0.00 | 0.00 | 0.00 | 48 | 1011.9 |
| 20260903204046 | 36 | 360 | 12.9 | 20.9 | 0.00 | 0.00 | 0.00 | 47 | 1012.0 |
| 20260903203925 | 36 | 360 | 11.3 | 24.1 | 0.00 | 0.00 | 0.00 | 47 | 1012.0 |
| 20260903203826 | 37 | 360 | 11.3 | 24.1 | 0.00 | 0.00 | 0.00 | 47 | 1012.0 |
| 20260903203725 | 37 | 360 | 9.7 | 24.1 | 0.00 | 0.00 | 0.00 | 47 | 1012.1 |
| 20260903203630 | 37 | 360 | 9.7 | 24.1 | 0.00 | 0.00 | 0.00 | 47 | 1012.0 |
| 20260903203550 | 37 | 360 | 8.0 | 24.1 | 0.00 | 0.00 | 0.00 | 47 | 1012.1 |
| 20260903203429 | 37 | 360 | 11.3 | 24.1 | 0.00 | 0.00 | 0.00 | 46 | 1012.0 |
| 20260903203330 | 37 | 360 | 14.5 | 24.1 | 0.00 | 0.00 | 0.00 | 47 | 1012.1 |
| 20260903203231 | 37 | 113 | 14.5 | 24.1 | 0.00 | 0.00 | 0.00 | 47 | 1012.1 |
| 20260903203152 | 37 | 360 | 12.9 | 24.1 | 0.00 | 0.00 | 0.00 | 46 | 1012.1 |
| 20260903203031 | 37 | 360 | 9.7 | 24.1 | 0.00 | 0.00 | 0.00 | 48 | 1012.1 |
| 20260903202952 | 36 | 360 | 6.4 | 14.5 | 0.00 | 0.00 | 0.00 | 47 | 1012.1 |
| 20260903202816 | 36 | 360 | 4.8 | 14.5 | 0.00 | 0.00 | 0.00 | 48 | 1012.2 |
| 20260903202716 | 36 | 360 | 4.8 | 14.5 | 0.00 | 0.00 | 0.00 | 48 | 1012.1 |
| 20260903202637 | 36 | 360 | 6.4 | 14.5 | 0.00 | 0.00 | 0.00 | 47 | 1012.2 |
| 20260903202559 | 36 | 360 | 6.4 | 16.1 | 0.00 | 0.00 | 0.00 | 48 | 1012.1 |
| 20260903202457 | 36 | 360 | 4.8 | 24.1 | 0.00 | 0.00 | 0.00 | 48 | 1012.3 |
| 20260903202335 | 36 | 360 | 3.2 | 27.4 | 0.00 | 0.00 | 0.00 | 48 | 1012.3 |
| 20260903202236 | 36 | 360 | 4.8 | 27.4 | 0.00 | 0.00 | 0.00 | 49 | 1012.3 |
| 20260903202156 | 36 | 360 | 4.8 | 27.4 | 0.00 | 0.00 | 0.00 | 49 | 1012.3 |
| 20260903202057 | 36 | 360 | 6.4 | 27.4 | 0.00 | 0.00 | 0.00 | 49 | 1012.3 |
| 20260903201921 | 36 | 360 | 6.4 | 27.4 | 0.00 | 0.00 | 0.00 | 48 | 1012.3 |
| 20260903201820 | 36 | 360 | 11.3 | 27.4 | 0.00 | 0.00 | 0.00 | 48 | 1012.3 |
| 20260903201721 | 36 | 360 | 16.1 | 27.4 | 0.00 | 0.00 | 0.00 | 48 | 1012.3 |
| 20260903201621 | 36 | 360 | 17.7 | 27.4 | 0.00 | 0.00 | 0.00 | 46 | 1012.3 |
| 20260903201522 | 37 | 360 | 12.9 | 24.1 | 0.00 | 0.00 | 0.00 | 46 | 1012.4 |
| 20260903201422 | 37 | 360 | 8.0 | 24.1 | 0.00 | 0.00 | 0.00 | 48 | 1012.3 |
| 20260903201327 | 37 | 360 | 6.4 | 20.9 | 0.00 | 0.00 | 0.00 | 47 | 1012.3 |
| 20260903201227 | 37 | 360 | 4.8 | 20.9 | 0.00 | 0.00 | 0.00 | 47 | 1012.3 |
| 20260903201127 | 37 | 360 | 6.4 | 20.9 | 0.00 | 0.00 | 0.00 | 48 | 1012.2 |
| 20260903201028 | 37 | 360 | 8.0 | 20.9 | 0.00 | 0.00 | 0.00 | 47 | 1012.3 |
| 20260903200928 | 37 | 360 | 8.0 | 20.9 | 0.00 | 0.00 | 0.00 | 47 | 1012.3 |
| 20260903200827 | 37 | 360 | 9.7 | 20.9 | 0.00 | 0.00 | 0.00 | 47 | 1012.4 |
| 20260903200748 | 37 | 360 | 9.7 | 20.9 | 0.00 | 0.00 | 0.00 | 47 | 1012.4 |
| 20260903200628 | 37 | 360 | 9.7 | 20.9 | 0.00 | 0.00 | 0.00 | 48 | 1012.4 |
| 20260903200531 | 37 | 360 | 9.7 | 19.3 | 0.00 | 0.00 | 0.00 | 48 | 1012.4 |
| 20260903200433 | 37 | 360 | 4.8 | 17.7 | 0.00 | 0.00 | 0.00 | 49 | 1012.4 |
| 20260903200334 | 36 | 360 | 4.8 | 19.3 | 0.00 | 0.00 | 0.00 | 49 | 1012.4 |
| 20260903200254 | 36 | 360 | 4.8 | 19.3 | 0.00 | 0.00 | 0.00 | 49 | 1012.4 |
| 20260903200134 | 36 | 360 | 6.4 | 19.3 | 0.00 | 0.00 | 0.00 | 48 | 1012.3 |
| 20260903200033 | 36 | 360 | 6.4 | 19.3 | 0.00 | 0.00 | 0.00 | 49 | 1012.4 |
| 20260903195953 | 36 | 360 | 6.4 | 19.3 | 0.00 | 0.00 | 0.00 | 48 | 1012.3 |
| 20260903195833 | 36 | 360 | 8.0 | 19.3 | 0.00 | 0.00 | 0.00 | 48 | 1012.4 |
| 20260903195717 | 36 | 360 | 9.7 | 19.3 | 0.00 | 0.00 | 0.00 | 48 | 1012.5 |
| 20260903195616 | 36 | 360 | 9.7 | 19.3 | 0.00 | 0.00 | 0.00 | 48 | 1012.5 |
| 20260903195517 | 36 | 360 | 9.7 | 19.3 | 0.00 | 0.00 | 0.00 | 48 | 1012.5 |
| 20260903195417 | 37 | 360 | 9.7 | 19.3 | 0.00 | 0.00 | 0.00 | 47 | 1012.5 |
| 20260903195318 | 37 | 360 | 8.0 | 19.3 | 0.00 | 0.00 | 0.00 | 46 | 1012.5 |
| 20260903195219 | 37 | 360 | 6.4 | 19.3 | 0.00 | 0.00 | 0.00 | 46 | 1012.6 |
| 20260903195123 | 37 | 360 | 3.2 | 17.7 | 0.00 | 0.00 | 0.00 | 46 | 1012.5 |
| 20260903195023 | 37 | 360 | 3.2 | 17.7 | 0.00 | 0.00 | 0.00 | 46 | 1012.5 |
| 20260903194923 | 37 | 360 | 3.2 | 17.7 | 0.00 | 0.00 | 0.00 | 46 | 1012.4 |
| 20260903194822 | 37 | 360 | 3.2 | 17.7 | 0.00 | 0.00 | 0.00 | 47 | 1012.5 |
| 20260903194723 | 37 | 360 | 3.2 | 17.7 | 0.00 | 0.00 | 0.00 | 48 | 1012.5 |
| 20260903194623 | 37 | 360 | 3.2 | 17.7 | 0.00 | 0.00 | 0.00 | 48 | 1012.5 |
| 20260903194524 | 36 | 360 | 8.0 | 17.7 | 0.00 | 0.00 | 0.00 | 48 | 1012.6 |
| 20260903194428 | 37 | 360 | 8.0 | 17.7 | 0.00 | 0.00 | 0.00 | 47 | 1012.6 |
| 20260903194328 | 37 | 360 | 6.4 | 17.7 | 0.00 | 0.00 | 0.00 | 49 | 1012.5 |
| 20260903194228 | 36 | 360 | 4.8 | 20.9 | 0.00 | 0.00 | 0.00 | 48 | 1012.6 |
| 20260903194129 | 36 | 360 | 3.2 | 20.9 | 0.00 | 0.00 | 0.00 | 48 | 1012.6 |
| 20260903194030 | 36 | 360 | 3.2 | 20.9 | 0.00 | 0.00 | 0.00 | 48 | 1012.6 |
| 20260903193930 | 36 | 360 | 4.8 | 20.9 | 0.00 | 0.00 | 0.00 | 48 | 1012.6 |
| 20260903193831 | 36 | 360 | 6.4 | 20.9 | 0.00 | 0.00 | 0.00 | 48 | 1012.6 |
| 20260903193755 | 36 | 360 | 9.7 | 20.9 | 0.00 | 0.00 | 0.00 | 48 | 1012.7 |
| 20260903193654 | 36 | 360 | 11.3 | 20.9 | 0.00 | 0.00 | 0.00 | 48 | 1012.7 |
| 20260903193554 | 36 | 360 | 12.9 | 20.9 | 0.00 | 0.00 | 0.00 | 49 | 1012.7 |
| 20260903193433 | 36 | 360 | 11.3 | 20.9 | 0.00 | 0.00 | 0.00 | 47 | 1012.7 |
| 20260903193333 | 36 | 360 | 8.0 | 20.9 | 0.00 | 0.00 | 0.00 | 48 | 1012.7 |
| 20260903193233 | 37 | 360 | 4.8 | 20.9 | 0.00 | 0.00 | 0.00 | 48 | 1012.7 |
| 20260903193133 | 36 | 360 | 4.8 | 20.9 | 0.00 | 0.00 | 0.00 | 47 | 1012.8 |
| 20260903193033 | 36 | 360 | 4.8 | 20.9 | 0.00 | 0.00 | 0.00 | 48 | 1012.7 |
| 20260903192918 | 36 | 360 | 8.0 | 20.9 | 0.00 | 0.00 | 0.00 | 49 | 1012.7 |
| 20260903192819 | 36 | 360 | 8.0 | 20.9 | 0.00 | 0.00 | 0.00 | 49 | 1012.8 |
| 20260903192718 | 36 | 360 | 8.0 | 20.9 | 0.00 | 0.00 | 0.00 | 49 | 1012.8 |
| 20260903192620 | 36 | 360 | 9.7 | 20.9 | 0.00 | 0.00 | 0.00 | 49 | 1012.8 |
| 20260903192519 | 36 | 360 | 11.3 | 20.9 | 0.00 | 0.00 | 0.00 | 49 | 1012.9 |
| 20260903192440 | 36 | 360 | 9.7 | 20.9 | 0.00 | 0.00 | 0.00 | 50 | 1012.8 |
| 20260903192319 | 36 | 360 | 8.0 | 20.9 | 0.00 | 0.00 | 0.00 | 49 | 1012.8 |
| 20260903192240 | 36 | 360 | 6.4 | 17.7 | 0.00 | 0.00 | 0.00 | 49 | 1012.8 |
| 20260903192124 | 36 | 360 | 8.0 | 19.3 | 0.00 | 0.00 | 0.00 | 49 | 1012.8 |
| 20260903192024 | 36 | 360 | 6.4 | 24.1 | 0.00 | 0.00 | 0.00 | 50 | 1012.9 |
| 20260903191925 | 36 | 360 | 8.0 | 24.1 | 0.00 | 0.00 | 0.00 | 51 | 1012.9 |
| 20260903191826 | 36 | 114 | 8.0 | 24.1 | 0.00 | 0.00 | 0.00 | 51 | 1012.9 |
| 20260903191726 | 36 | 360 | 11.3 | 24.1 | 0.00 | 0.00 | 0.00 | 50 | 1013.0 |
| 20260903191626 | 36 | 360 | 11.3 | 27.4 | 0.00 | 0.00 | 0.00 | 49 | 1012.9 |
| 20260903191530 | 36 | 360 | 12.9 | 27.4 | 0.00 | 0.00 | 0.00 | 49 | 1013.0 |
| 20260903191431 | 36 | 360 | 14.5 | 27.4 | 0.00 | 0.00 | 0.00 | 50 | 1013.0 |
| 20260903191332 | 36 | 360 | 16.1 | 27.4 | 0.00 | 0.00 | 0.00 | 51 | 1013.0 |
| 20260903191232 | 36 | 360 | 16.1 | 27.4 | 0.00 | 0.00 | 0.00 | 51 | 1013.0 |
| 20260903191132 | 36 | 360 | 16.1 | 27.4 | 0.00 | 0.00 | 0.00 | 50 | 1013.0 |
| 20260903191053 | 36 | 360 | 17.7 | 27.4 | 0.00 | 0.00 | 0.00 | 51 | 1013.0 |
| 20260903190953 | 36 | 360 | 16.1 | 27.4 | 0.00 | 0.00 | 0.00 | 51 | 1013.1 |
| 20260903190852 | 36 | 360 | 12.9 | 27.4 | 0.00 | 0.00 | 0.00 | 50 | 1013.1 |
| 20260903190716 | 36 | 360 | 8.0 | 22.5 | 0.00 | 0.00 | 0.00 | 50 | 1013.2 |
| 20260903190637 | 36 | 360 | 9.7 | 24.1 | 0.00 | 0.00 | 0.00 | 50 | 1013.2 |
| 20260903190536 | 36 | 360 | 9.7 | 24.1 | 0.00 | 0.00 | 0.00 | 50 | 1013.2 |
| 20260903190435 | 36 | 360 | 8.0 | 24.1 | 0.00 | 0.00 | 0.00 | 50 | 1013.2 |
| 20260903190335 | 36 | 360 | 9.7 | 24.1 | 0.00 | 0.00 | 0.00 | 51 | 1013.2 |
| 20260903190237 | 36 | 360 | 11.3 | 24.1 | 0.00 | 0.00 | 0.00 | 52 | 1013.2 |
| 20260903190136 | 36 | 360 | 8.0 | 24.1 | 0.00 | 0.00 | 0.00 | 52 | 1013.2 |
| 20260903190035 | 36 | 360 | 4.8 | 24.1 | 0.00 | 0.00 | 0.00 | 51 | 1013.3 |
| 20260903185920 | 35 | 360 | 3.2 | 24.1 | 0.00 | 0.00 | 0.00 | 51 | 1013.2 |
| 20260903185822 | 35 | 360 | 6.4 | 24.1 | 0.00 | 0.00 | 0.00 | 52 | 1013.2 |
| 20260903185722 | 35 | 360 | 11.3 | 24.1 | 0.00 | 0.00 | 0.00 | 52 | 1013.3 |
| 20260903185622 | 35 | 360 | 14.5 | 24.1 | 0.00 | 0.00 | 0.00 | 52 | 1013.4 |
| 20260903185522 | 35 | 360 | 16.1 | 24.1 | 0.00 | 0.00 | 0.00 | 51 | 1013.4 |
| 20260903185422 | 35 | 360 | 14.5 | 24.1 | 0.00 | 0.00 | 0.00 | 52 | 1013.4 |
| 20260903185327 | 35 | 360 | 12.9 | 17.7 | 0.00 | 0.00 | 0.00 | 52 | 1013.4 |
| 20260903185227 | 35 | 360 | 8.0 | 17.7 | 0.00 | 0.00 | 0.00 | 51 | 1013.4 |
| 20260903185128 | 35 | 360 | 4.8 | 16.1 | 0.00 | 0.00 | 0.00 | 52 | 1013.4 |
| 20260903185027 | 35 | 360 | 4.8 | 16.1 | 0.00 | 0.00 | 0.00 | 51 | 1013.4 |
| 20260903184928 | 35 | 360 | 4.8 | 16.1 | 0.00 | 0.00 | 0.00 | 51 | 1013.5 |
| 20260903184828 | 35 | 360 | 4.8 | 16.1 | 0.00 | 0.00 | 0.00 | 52 | 1013.5 |
| 20260903184729 | 35 | 360 | 8.0 | 16.1 | 0.00 | 0.00 | 0.00 | 52 | 1013.5 |
| 20260903184649 | 35 | 360 | 9.7 | 22.5 | 0.00 | 0.00 | 0.00 | 51 | 1013.5 |
| 20260903184532 | 35 | 360 | 9.7 | 22.5 | 0.00 | 0.00 | 0.00 | 51 | 1013.6 |
| 20260903184432 | 35 | 360 | 8.0 | 22.5 | 0.00 | 0.00 | 0.00 | 50 | 1013.6 |
| 20260903184332 | 35 | 360 | 8.0 | 22.5 | 0.00 | 0.00 | 0.00 | 50 | 1013.7 |
| 20260903184233 | 35 | 360 | 6.4 | 22.5 | 0.00 | 0.00 | 0.00 | 50 | 1013.7 |
| 20260903184134 | 35 | 360 | 6.4 | 22.5 | 0.00 | 0.00 | 0.00 | 51 | 1013.7 |
| 20260903184034 | 35 | 360 | 9.7 | 22.5 | 0.00 | 0.00 | 0.00 | 51 | 1013.8 |
| 20260903183918 | 35 | 360 | 12.9 | 22.5 | 0.00 | 0.00 | 0.00 | 52 | 1013.7 |
| 20260903183818 | 35 | 360 | 14.5 | 25.7 | 0.00 | 0.00 | 0.00 | 51 | 1013.7 |
| 20260903183719 | 35 | 360 | 16.1 | 27.4 | 0.00 | 0.00 | 0.00 | 51 | 1013.7 |
| 20260903183619 | 35 | 360 | 16.1 | 27.4 | 0.00 | 0.00 | 0.00 | 51 | 1013.7 |
| 20260903183518 | 35 | 360 | 17.7 | 27.4 | 0.00 | 0.00 | 0.00 | 51 | 1013.7 |
| 20260903183439 | 35 | 360 | 16.1 | 27.4 | 0.00 | 0.00 | 0.00 | 50 | 1013.8 |
| 20260903183318 | 35 | 360 | 14.5 | 27.4 | 0.00 | 0.00 | 0.00 | 50 | 1013.7 |
| 20260903183219 | 35 | 360 | 14.5 | 27.4 | 0.00 | 0.00 | 0.00 | 51 | 1013.8 |
| 20260903183140 | 35 | 360 | 16.1 | 27.4 | 0.00 | 0.00 | 0.00 | 51 | 1013.8 |
| 20260903183020 | 35 | 360 | 16.1 | 27.4 | 0.00 | 0.00 | 0.00 | 50 | 1013.7 |
| 20260903182920 | 35 | 360 | 12.9 | 27.4 | 0.00 | 0.00 | 0.00 | 51 | 1013.8 |
| 20260903182822 | 35 | 360 | 9.7 | 22.5 | 0.00 | 0.00 | 0.00 | 51 | 1013.9 |
| 20260903182722 | 35 | 360 | 6.4 | 22.5 | 0.00 | 0.00 | 0.00 | 51 | 1013.8 |
| 20260903182642 | 35 | 360 | 4.8 | 22.5 | 0.00 | 0.00 | 0.00 | 51 | 1013.8 |
| 20260903182521 | 35 | 360 | 3.2 | 22.5 | 0.00 | 0.00 | 0.00 | 52 | 1013.8 |
| 20260903182426 | 35 | 360 | 4.8 | 22.5 | 0.00 | 0.00 | 0.00 | 56 | 1013.8 |
| 20260903182327 | 35 | 360 | 4.8 | 32.2 | 0.00 | 0.00 | 0.00 | 56 | 1013.8 |
| 20260903182228 | 34 | 360 | 6.4 | 32.2 | 0.00 | 0.00 | 0.00 | 55 | 1013.8 |
| 20260903182129 | 34 | 360 | 9.7 | 32.2 | 0.00 | 0.00 | 0.00 | 54 | 1013.9 |
| 20260903182050 | 34 | 360 | 11.3 | 32.2 | 0.00 | 0.00 | 0.00 | 54 | 1013.9 |
| 20260903181929 | 34 | 360 | 8.0 | 32.2 | 0.00 | 0.00 | 0.00 | 54 | 1013.9 |
| 20260903181850 | 34 | 360 | 6.4 | 32.2 | 0.00 | 0.00 | 0.00 | 53 | 1013.9 |
| 20260903181730 | 34 | 360 | 11.3 | 32.2 | 0.00 | 0.00 | 0.00 | 54 | 1013.9 |
| 20260903181634 | 34 | 360 | 16.1 | 32.2 | 0.00 | 0.00 | 0.00 | 54 | 1014.0 |
| 20260903181555 | 34 | 360 | 16.1 | 32.2 | 0.00 | 0.00 | 0.00 | 53 | 1013.9 |
| 20260903181434 | 34 | 360 | 12.9 | 30.6 | 0.00 | 0.00 | 0.00 | 53 | 1014.0 |
| 20260903181334 | 34 | 360 | 14.5 | 30.6 | 0.00 | 0.00 | 0.00 | 53 | 1013.9 |
| 20260903181255 | 34 | 360 | 19.3 | 30.6 | 0.00 | 0.00 | 0.00 | 53 | 1014.0 |
| 20260903181135 | 35 | 360 | 17.7 | 30.6 | 0.00 | 0.00 | 0.00 | 52 | 1014.0 |
| 20260903181035 | 35 | 360 | 16.1 | 27.4 | 0.00 | 0.00 | 0.00 | 52 | 1014.0 |
| 20260903180939 | 35 | 360 | 14.5 | 25.7 | 0.00 | 0.00 | 0.00 | 53 | 1014.0 |
| 20260903180820 | 35 | 360 | 11.3 | 25.7 | 0.00 | 0.00 | 0.00 | 53 | 1014.1 |
| 20260903180739 | 34 | 360 | 9.7 | 25.7 | 0.00 | 0.00 | 0.00 | 53 | 1014.0 |
| 20260903180639 | 34 | 360 | 9.7 | 25.7 | 0.00 | 0.00 | 0.00 | 53 | 1014.1 |
| 20260903180519 | 34 | 360 | 9.7 | 25.7 | 0.00 | 0.00 | 0.00 | 54 | 1014.1 |
| 20260903180419 | 34 | 360 | 8.0 | 25.7 | 0.00 | 0.00 | 0.00 | 55 | 1014.1 |
| 20260903180319 | 34 | 360 | 9.7 | 25.7 | 0.00 | 0.00 | 0.00 | 55 | 1014.1 |
| 20260903180219 | 34 | 360 | 12.9 | 25.7 | 0.00 | 0.00 | 0.00 | 54 | 1014.1 |
| 20260903180139 | 34 | 360 | 14.5 | 25.7 | 0.00 | 0.00 | 0.00 | 53 | 1014.1 |
| 20260903180023 | 34 | 360 | 14.5 | 25.7 | 0.00 | 0.00 | 0.00 | 53 | 1014.1 |
| 20260903175924 | 35 | 360 | 11.3 | 22.5 | 0.00 | 0.00 | 0.00 | 55 | 1014.2 |
| 20260903175826 | 35 | 360 | 8.0 | 22.5 | 0.00 | 0.00 | 0.00 | 54 | 1014.1 |
| 20260903175746 | 35 | 360 | 4.8 | 19.3 | 0.00 | 0.00 | 0.00 | 54 | 1014.1 |
| 20260903175626 | 35 | 360 | 4.8 | 19.3 | 0.00 | 0.00 | 0.00 | 54 | 1014.1 |
| 20260903175526 | 34 | 360 | 4.8 | 19.3 | 0.00 | 0.00 | 0.00 | 53 | 1014.1 |
| 20260903175447 | 35 | 360 | 8.0 | 19.3 | 0.00 | 0.00 | 0.00 | 54 | 1014.3 |
| 20260903175330 | 35 | 360 | 6.4 | 19.3 | 0.00 | 0.00 | 0.00 | 54 | 1014.2 |
| 20260903175251 | 35 | 360 | 6.4 | 24.1 | 0.00 | 0.00 | 0.00 | 53 | 1014.3 |
| 20260903175151 | 35 | 230 | 8.0 | 24.1 | 0.00 | 0.00 | 0.00 | 53 | 1014.2 |
| 20260903175029 | 35 | 360 | 8.0 | 33.8 | 0.00 | 0.00 | 0.00 | 53 | 1014.3 |
| 20260903174930 | 35 | 360 | 8.0 | 33.8 | 0.00 | 0.00 | 0.00 | 53 | 1014.2 |
| 20260903174851 | 35 | 360 | 8.0 | 33.8 | 0.00 | 0.00 | 0.00 | 54 | 1014.2 |
| 20260903174751 | 35 | 360 | 8.0 | 33.8 | 0.00 | 0.00 | 0.00 | 55 | 1014.2 |
| 20260903174651 | 35 | 360 | 8.0 | 33.8 | 0.00 | 0.00 | 0.00 | 55 | 1014.2 |
| 20260903174549 | 34 | 360 | 8.0 | 33.8 | 0.00 | 0.00 | 0.00 | 56 | 1014.2 |
| 20260903174429 | 33 | 360 | 12.9 | 33.8 | 0.00 | 0.00 | 0.00 | 56 | 1014.1 |
| 20260903174335 | 33 | 360 | 17.7 | 33.8 | 0.00 | 0.00 | 0.00 | 55 | 1014.2 |
| 20260903174235 | 34 | 360 | 17.7 | 33.8 | 0.00 | 0.00 | 0.00 | 55 | 1014.2 |
| 20260903174135 | 34 | 360 | 12.9 | 25.7 | 0.00 | 0.00 | 0.00 | 56 | 1014.1 |
| 20260903174056 | 34 | 360 | 9.7 | 25.7 | 0.00 | 0.00 | 0.00 | 56 | 1014.2 |
| 20260903173917 | 33 | 360 | 9.7 | 25.7 | 0.00 | 0.00 | 0.00 | 57 | 1014.2 |
| 20260903173816 | 33 | 360 | 9.7 | 27.4 | 0.00 | 0.00 | 0.00 | 57 | 1014.2 |
| 20260903173721 | 33 | 360 | 11.3 | 27.4 | 0.00 | 0.00 | 0.00 | 57 | 1014.3 |
| 20260903173621 | 33 | 360 | 11.3 | 27.4 | 0.00 | 0.00 | 0.00 | 57 | 1014.2 |
| 20260903173522 | 33 | 360 | 12.9 | 27.4 | 0.00 | 0.00 | 0.00 | 59 | 1014.3 |
| 20260903173443 | 33 | 360 | 9.7 | 27.4 | 0.00 | 0.00 | 0.00 | 59 | 1014.3 |
| 20260903173343 | 33 | 360 | 9.7 | 27.4 | 0.00 | 0.00 | 0.00 | 58 | 1014.3 |
| 20260903173223 | 33 | 178 | 9.7 | 27.4 | 0.00 | 0.00 | 0.00 | 58 | 1014.3 |
| 20260903173123 | 33 | 360 | 14.5 | 27.4 | 0.00 | 0.00 | 0.00 | 58 | 1014.3 |
| 20260903173023 | 33 | 360 | 14.5 | 27.4 | 0.00 | 0.00 | 0.00 | 58 | 1014.4 |
| 20260903172927 | 33 | 360 | 14.5 | 27.4 | 0.00 | 0.00 | 0.00 | 58 | 1014.3 |
| 20260903172829 | 33 | 360 | 14.5 | 25.7 | 0.00 | 0.00 | 0.00 | 58 | 1014.3 |
| 20260903172729 | 33 | 360 | 16.1 | 25.7 | 0.00 | 0.00 | 0.00 | 58 | 1014.3 |
| 20260903172650 | 33 | 360 | 14.5 | 25.7 | 0.00 | 0.00 | 0.00 | 58 | 1014.3 |
| 20260903172530 | 33 | 360 | 14.5 | 25.7 | 0.00 | 0.00 | 0.00 | 57 | 1014.4 |
| 20260903172430 | 34 | 360 | 12.9 | 25.7 | 0.00 | 0.00 | 0.00 | 57 | 1014.5 |
| 20260903172331 | 34 | 360 | 12.9 | 24.1 | 0.00 | 0.00 | 0.00 | 57 | 1014.6 |
| 20260903172215 | 35 | 166 | 8.0 | 20.9 | 0.00 | 0.00 | 0.00 | 55 | 1014.6 |
| 20260903172116 | 35 | 360 | 6.4 | 20.9 | 0.00 | 0.00 | 0.00 | 56 | 1014.6 |
| 20260903172016 | 34 | 360 | 3.2 | 20.9 | 0.00 | 0.00 | 0.00 | 55 | 1014.6 |
| 20260903171917 | 34 | 360 | 6.4 | 20.9 | 0.00 | 0.00 | 0.00 | 56 | 1014.6 |
| 20260903171836 | 34 | 360 | 6.4 | 20.9 | 0.00 | 0.00 | 0.00 | 59 | 1014.7 |
| 20260903171735 | 34 | 360 | 9.7 | 20.9 | 0.00 | 0.00 | 0.00 | 59 | 1014.7 |
| 20260903171615 | 33 | 360 | 9.7 | 20.9 | 0.00 | 0.00 | 0.00 | 59 | 1014.6 |
| 20260903171517 | 33 | 360 | 9.7 | 20.9 | 0.00 | 0.00 | 0.00 | 58 | 1014.7 |
| 20260903171436 | 33 | 360 | 8.0 | 20.9 | 0.00 | 0.00 | 0.00 | 60 | 1014.7 |
| 20260903171357 | 33 | 360 | 6.4 | 19.3 | 0.00 | 0.00 | 0.00 | 60 | 1014.7 |
| 20260903171235 | 33 | 360 | 9.7 | 19.3 | 0.00 | 0.00 | 0.00 | 60 | 1014.7 |
| 20260903171135 | 33 | 360 | 11.3 | 19.3 | 0.00 | 0.00 | 0.00 | 60 | 1014.7 |
| 20260903171036 | 33 | 360 | 11.3 | 25.7 | 0.00 | 0.00 | 0.00 | 59 | 1014.7 |
| 20260903170916 | 33 | 360 | 11.3 | 25.7 | 0.00 | 0.00 | 0.00 | 59 | 1014.8 |
| 20260903170840 | 33 | 360 | 8.0 | 25.7 | 0.00 | 0.00 | 0.00 | 60 | 1014.7 |
| 20260903170720 | 33 | 360 | 8.0 | 25.7 | 0.00 | 0.00 | 0.00 | 59 | 1014.7 |
| 20260903170620 | 33 | 360 | 6.4 | 25.7 | 0.00 | 0.00 | 0.00 | 59 | 1014.7 |
| 20260903170520 | 33 | 360 | 6.4 | 25.7 | 0.00 | 0.00 | 0.00 | 61 | 1014.7 |
| 20260903170422 | 33 | 360 | 6.4 | 25.7 | 0.00 | 0.00 | 0.00 | 61 | 1014.7 |
| 20260903170321 | 32 | 360 | 9.7 | 25.7 | 0.00 | 0.00 | 0.00 | 60 | 1014.8 |
| 20260903170222 | 33 | 360 | 12.9 | 25.7 | 0.00 | 0.00 | 0.00 | 60 | 1014.7 |
| 20260903170147 | 33 | 360 | 16.1 | 22.5 | 0.00 | 0.00 | 0.00 | 61 | 1014.8 |
| 20260903170026 | 33 | 360 | 17.7 | 22.5 | 0.00 | 0.00 | 0.00 | 60 | 1014.8 |
| 20260903165947 | 33 | 360 | 14.5 | 22.5 | 0.00 | 0.00 | 0.00 | 59 | 1014.8 |
| 20260903165827 | 33 | 360 | 9.7 | 22.5 | 0.00 | 0.00 | 0.00 | 58 | 1014.8 |
| 20260903165746 | 33 | 360 | 6.4 | 24.1 | 0.00 | 0.00 | 0.00 | 60 | 1014.8 |
| 20260903165646 | 33 | 360 | 8.0 | 24.1 | 0.00 | 0.00 | 0.00 | 60 | 1014.8 |
| 20260903165526 | 32 | 360 | 9.7 | 30.6 | 0.00 | 0.00 | 0.00 | 60 | 1014.8 |
| 20260903165426 | 32 | 360 | 9.7 | 30.6 | 0.00 | 0.00 | 0.00 | 60 | 1014.8 |
| 20260903165347 | 32 | 360 | 6.4 | 30.6 | 0.00 | 0.00 | 0.00 | 59 | 1014.8 |
| 20260903165231 | 32 | 360 | 8.0 | 30.6 | 0.00 | 0.00 | 0.00 | 59 | 1014.8 |
| 20260903165131 | 32 | 360 | 8.0 | 30.6 | 0.00 | 0.00 | 0.00 | 59 | 1014.9 |
| 20260903165032 | 32 | 360 | 9.7 | 30.6 | 0.00 | 0.00 | 0.00 | 58 | 1014.8 |
| 20260903164952 | 32 | 360 | 9.7 | 30.6 | 0.00 | 0.00 | 0.00 | 58 | 1014.8 |
| 20260903164831 | 33 | 360 | 12.9 | 30.6 | 0.00 | 0.00 | 0.00 | 59 | 1014.9 |
| 20260903164732 | 32 | 360 | 16.1 | 30.6 | 0.00 | 0.00 | 0.00 | 59 | 1014.8 |
| 20260903164617 | 33 | 360 | 16.1 | 30.6 | 0.00 | 0.00 | 0.00 | 60 | 1014.8 |
| 20260903164516 | 33 | 360 | 12.9 | 30.6 | 0.00 | 0.00 | 0.00 | 61 | 1014.8 |
| 20260903164418 | 33 | 360 | 8.0 | 22.5 | 0.00 | 0.00 | 0.00 | 61 | 1014.9 |
| 20260903164317 | 32 | 360 | 6.4 | 24.1 | 0.00 | 0.00 | 0.00 | 62 | 1014.8 |
| 20260903164218 | 32 | 360 | 8.0 | 24.1 | 0.00 | 0.00 | 0.00 | 63 | 1015.0 |
| 20260903164119 | 32 | 360 | 11.3 | 24.1 | 0.00 | 0.00 | 0.00 | 63 | 1015.0 |
| 20260903164038 | 32 | 360 | 12.9 | 24.1 | 0.00 | 0.00 | 0.00 | 62 | 1015.0 |
| 20260903163922 | 32 | 360 | 11.3 | 24.1 | 0.00 | 0.00 | 0.00 | 63 | 1015.0 |
| 20260903163823 | 32 | 360 | 8.0 | 24.1 | 0.00 | 0.00 | 0.00 | 63 | 1015.0 |
| 20260903163724 | 32 | 360 | 12.9 | 27.4 | 0.00 | 0.00 | 0.00 | 63 | 1015.0 |
| 20260903163625 | 32 | 360 | 12.9 | 27.4 | 0.00 | 0.00 | 0.00 | 64 | 1015.0 |
| 20260903163526 | 32 | 360 | 12.9 | 27.4 | 0.00 | 0.00 | 0.00 | 64 | 1015.0 |
| 20260903163426 | 32 | 360 | 11.3 | 27.4 | 0.00 | 0.00 | 0.00 | 63 | 1015.0 |
| 20260903163346 | 32 | 360 | 11.3 | 27.4 | 0.00 | 0.00 | 0.00 | 63 | 1014.9 |
| 20260903163230 | 32 | 360 | 11.3 | 27.4 | 0.00 | 0.00 | 0.00 | 63 | 1015.0 |
| 20260903163131 | 32 | 360 | 12.9 | 27.4 | 0.00 | 0.00 | 0.00 | 63 | 1015.0 |
| 20260903163051 | 32 | 360 | 12.9 | 27.4 | 0.00 | 0.00 | 0.00 | 63 | 1015.0 |
| 20260903162951 | 32 | 360 | 12.9 | 27.4 | 0.00 | 0.00 | 0.00 | 62 | 1015.0 |
| 20260903162850 | 32 | 360 | 8.0 | 24.1 | 0.00 | 0.00 | 0.00 | 63 | 1015.0 |
| 20260903162730 | 32 | 360 | 11.3 | 24.1 | 0.00 | 0.00 | 0.00 | 63 | 1015.1 |
| 20260903162629 | 32 | 360 | 12.9 | 25.7 | 0.00 | 0.00 | 0.00 | 63 | 1015.0 |
| 20260903162550 | 32 | 360 | 12.9 | 25.7 | 0.00 | 0.00 | 0.00 | 63 | 1015.0 |
| 20260903162428 | 32 | 360 | 8.0 | 25.7 | 0.00 | 0.00 | 0.00 | 63 | 1015.0 |
| 20260903162333 | 32 | 360 | 8.0 | 25.7 | 0.00 | 0.00 | 0.00 | 64 | 1015.0 |
| 20260903162235 | 32 | 360 | 8.0 | 25.7 | 0.00 | 0.00 | 0.00 | 64 | 1015.0 |
| 20260903162136 | 32 | 360 | 9.7 | 25.7 | 0.00 | 0.00 | 0.00 | 65 | 1015.0 |
| 20260903162016 | 31 | 360 | 12.9 | 25.7 | 0.00 | 0.00 | 0.00 | 65 | 1015.0 |
| 20260903161937 | 31 | 360 | 14.5 | 25.7 | 0.00 | 0.00 | 0.00 | 65 | 1015.0 |
| 20260903161816 | 31 | 360 | 14.5 | 25.7 | 0.00 | 0.00 | 0.00 | 65 | 1015.0 |
| 20260903161717 | 31 | 360 | 14.5 | 30.6 | 0.00 | 0.00 | 0.00 | 65 | 1015.1 |
| 20260903161620 | 31 | 360 | 16.1 | 30.6 | 0.00 | 0.00 | 0.00 | 65 | 1015.1 |
| 20260903161521 | 31 | 360 | 14.5 | 30.6 | 0.00 | 0.00 | 0.00 | 64 | 1015.0 |
| 20260903161421 | 32 | 360 | 12.9 | 30.6 | 0.00 | 0.00 | 0.00 | 64 | 1015.0 |
| 20260903161344 | 32 | 360 | 12.9 | 30.6 | 0.00 | 0.00 | 0.00 | 64 | 1015.0 |
| 20260903161223 | 32 | 360 | 11.3 | 30.6 | 0.00 | 0.00 | 0.00 | 63 | 1015.0 |
| 20260903161124 | 32 | 360 | 11.3 | 30.6 | 0.00 | 0.00 | 0.00 | 63 | 1014.9 |
| 20260903161043 | 32 | 360 | 8.0 | 30.6 | 0.00 | 0.00 | 0.00 | 63 | 1015.0 |
| 20260903160923 | 32 | 360 | 9.7 | 30.6 | 0.00 | 0.00 | 0.00 | 63 | 1015.0 |
| 20260903160827 | 32 | 360 | 6.4 | 29.0 | 0.00 | 0.00 | 0.00 | 64 | 1014.9 |
| 20260903160728 | 32 | 360 | 8.0 | 29.0 | 0.00 | 0.00 | 0.00 | 65 | 1015.0 |
| 20260903160628 | 31 | 360 | 8.0 | 29.0 | 0.00 | 0.00 | 0.00 | 65 | 1014.9 |
| 20260903160529 | 31 | 360 | 9.7 | 29.0 | 0.00 | 0.00 | 0.00 | 64 | 1014.9 |
| 20260903160430 | 31 | 360 | 9.7 | 30.6 | 0.00 | 0.00 | 0.00 | 64 | 1014.9 |
| 20260903160331 | 31 | 360 | 9.7 | 30.6 | 0.00 | 0.00 | 0.00 | 64 | 1014.9 |
| 20260903160232 | 31 | 360 | 11.3 | 30.6 | 0.00 | 0.00 | 0.00 | 64 | 1014.9 |
| 20260903160116 | 31 | 360 | 8.0 | 30.6 | 0.00 | 0.00 | 0.00 | 64 | 1014.9 |
| 20260903160016 | 31 | 360 | 8.0 | 30.6 | 0.00 | 0.00 | 0.00 | 64 | 1015.0 |
| 20260903155917 | 31 | 360 | 9.7 | 30.6 | 0.00 | 0.00 | 0.00 | 64 | 1015.0 |
| 20260903155819 | 31 | 360 | 11.3 | 30.6 | 0.00 | 0.00 | 0.00 | 64 | 1015.0 |
| 20260903155719 | 31 | 360 | 11.3 | 30.6 | 0.00 | 0.00 | 0.00 | 64 | 1015.0 |
| 20260903155619 | 31 | 360 | 9.7 | 30.6 | 0.00 | 0.00 | 0.00 | 64 | 1015.0 |
| 20260903155524 | 31 | 360 | 9.7 | 27.4 | 0.00 | 0.00 | 0.00 | 64 | 1015.0 |
| 20260903155444 | 31 | 360 | 8.0 | 27.4 | 0.00 | 0.00 | 0.00 | 64 | 1015.0 |
| 20260903155344 | 31 | 360 | 8.0 | 27.4 | 0.00 | 0.00 | 0.00 | 64 | 1015.1 |
| 20260903155243 | 31 | 360 | 8.0 | 27.4 | 0.00 | 0.00 | 0.00 | 64 | 1015.1 |
| 20260903155123 | 31 | 360 | 8.0 | 29.0 | 0.00 | 0.00 | 0.00 | 64 | 1015.0 |
| 20260903155024 | 31 | 360 | 9.7 | 29.0 | 0.00 | 0.00 | 0.00 | 64 | 1015.1 |
| 20260903154924 | 31 | 360 | 12.9 | 29.0 | 0.00 | 0.00 | 0.00 | 64 | 1015.0 |
| 20260903154826 | 31 | 360 | 14.5 | 29.0 | 0.00 | 0.00 | 0.00 | 64 | 1015.0 |
| 20260903154731 | 31 | 360 | 16.1 | 29.0 | 0.00 | 0.00 | 0.00 | 64 | 1015.0 |
| 20260903154631 | 31 | 360 | 14.5 | 29.0 | 0.00 | 0.00 | 0.00 | 64 | 1015.0 |
| 20260903154531 | 31 | 360 | 12.9 | 29.0 | 0.00 | 0.00 | 0.00 | 65 | 1014.9 |
| 20260903154432 | 31 | 360 | 12.9 | 29.0 | 0.00 | 0.00 | 0.00 | 65 | 1015.0 |
| 20260903154333 | 31 | 360 | 12.9 | 29.0 | 0.00 | 0.00 | 0.00 | 65 | 1015.0 |
| 20260903154234 | 31 | 360 | 9.7 | 32.2 | 0.00 | 0.00 | 0.00 | 66 | 1015.0 |
| 20260903154119 | 31 | 360 | 8.0 | 32.2 | 0.00 | 0.00 | 0.00 | 65 | 1015.0 |
| 20260903154020 | 31 | 360 | 4.8 | 32.2 | 0.00 | 0.00 | 0.00 | 66 | 1015.0 |
| 20260903153921 | 31 | 360 | 6.4 | 32.2 | 0.00 | 0.00 | 0.00 | 66 | 1014.9 |
| 20260903153821 | 31 | 360 | 6.4 | 32.2 | 0.00 | 0.00 | 0.00 | 67 | 1015.0 |
| 20260903153722 | 31 | 360 | 9.7 | 32.2 | 0.00 | 0.00 | 0.00 | 67 | 1015.0 |
| 20260903153623 | 30 | 360 | 9.7 | 32.2 | 0.00 | 0.00 | 0.00 | 67 | 1015.0 |
| 20260903153527 | 30 | 360 | 14.5 | 32.2 | 0.00 | 0.00 | 0.00 | 67 | 1014.9 |
| 20260903153428 | 31 | 360 | 17.7 | 32.2 | 0.00 | 0.00 | 0.00 | 68 | 1014.9 |
| 20260903153328 | 31 | 360 | 17.7 | 30.6 | 0.00 | 0.00 | 0.00 | 65 | 1015.0 |
| 20260903153229 | 31 | 360 | 12.9 | 29.0 | 0.00 | 0.00 | 0.00 | 65 | 1015.0 |
| 20260903153128 | 31 | 360 | 11.3 | 22.5 | 0.00 | 0.00 | 0.00 | 66 | 1015.0 |
| 20260903153029 | 31 | 360 | 8.0 | 22.5 | 0.00 | 0.00 | 0.00 | 67 | 1015.0 |
| 20260903152930 | 31 | 360 | 8.0 | 22.5 | 0.00 | 0.00 | 0.00 | 68 | 1015.1 |
| 20260903152835 | 31 | 360 | 6.4 | 25.7 | 0.00 | 0.00 | 0.00 | 68 | 1015.1 |
| 20260903152735 | 31 | 360 | 8.0 | 29.0 | 0.00 | 0.00 | 0.00 | 68 | 1015.1 |
| 20260903152635 | 31 | 360 | 8.0 | 29.0 | 0.00 | 0.00 | 0.00 | 68 | 1015.0 |
| 20260903152536 | 31 | 360 | 8.0 | 29.0 | 0.00 | 0.00 | 0.00 | 68 | 1015.1 |
| 20260903152416 | 31 | 360 | 9.7 | 29.0 | 0.00 | 0.00 | 0.00 | 68 | 1015.0 |
| 20260903152316 | 30 | 360 | 9.7 | 29.0 | 0.00 | 0.00 | 0.00 | 68 | 1015.0 |
| 20260903152221 | 30 | 360 | 11.3 | 29.0 | 0.00 | 0.00 | 0.00 | 69 | 1015.0 |
| 20260903152141 | 30 | 360 | 12.9 | 29.0 | 0.00 | 0.00 | 0.00 | 69 | 1015.1 |
| 20260903152021 | 30 | 360 | 12.9 | 29.0 | 0.00 | 0.00 | 0.00 | 69 | 1015.0 |
| 20260903151921 | 30 | 360 | 9.7 | 24.1 | 0.00 | 0.00 | 0.00 | 69 | 1015.0 |
| 20260903151822 | 30 | 360 | 11.3 | 24.1 | 0.00 | 0.00 | 0.00 | 69 | 1015.0 |
| 20260903151743 | 30 | 360 | 9.7 | 24.1 | 0.00 | 0.00 | 0.00 | 69 | 1015.0 |
| 20260903151623 | 30 | 360 | 8.0 | 24.1 | 0.00 | 0.00 | 0.00 | 69 | 1015.0 |
| 20260903151522 | 30 | 360 | 6.4 | 24.1 | 0.00 | 0.00 | 0.00 | 69 | 1014.9 |
| 20260903151427 | 30 | 360 | 6.4 | 24.1 | 0.00 | 0.00 | 0.00 | 69 | 1014.9 |
| 20260903151327 | 30 | 360 | 8.0 | 24.1 | 0.00 | 0.00 | 0.00 | 70 | 1014.9 |
| 20260903151226 | 30 | 360 | 9.7 | 24.1 | 0.00 | 0.00 | 0.00 | 70 | 1014.9 |
| 20260903151127 | 30 | 360 | 11.3 | 24.1 | 0.00 | 0.00 | 0.00 | 70 | 1014.8 |
| 20260903151047 | 30 | 360 | 9.7 | 24.1 | 0.00 | 0.00 | 0.00 | 70 | 1014.8 |
| 20260903150927 | 30 | 360 | 8.0 | 24.1 | 0.00 | 0.00 | 0.00 | 70 | 1014.9 |
| 20260903150828 | 30 | 360 | 6.4 | 22.5 | 0.00 | 0.00 | 0.00 | 70 | 1015.0 |
| 20260903150732 | 30 | 360 | 4.8 | 25.7 | 0.00 | 0.00 | 0.00 | 71 | 1014.9 |
| 20260903150632 | 30 | 360 | 6.4 | 25.7 | 0.00 | 0.00 | 0.00 | 71 | 1014.9 |
| 20260903150534 | 30 | 360 | 8.0 | 25.7 | 0.00 | 0.00 | 0.00 | 71 | 1015.0 |
| 20260903150433 | 30 | 360 | 9.7 | 25.7 | 0.00 | 0.00 | 0.00 | 71 | 1015.0 |
| 20260903150316 | 30 | 360 | 9.7 | 25.7 | 0.00 | 0.00 | 0.00 | 72 | 1015.0 |
| 20260903150216 | 30 | 360 | 9.7 | 25.7 | 0.00 | 0.00 | 0.00 | 72 | 1015.0 |
| 20260903150120 | 30 | 360 | 12.9 | 25.7 | 0.00 | 0.00 | 0.00 | 72 | 1015.0 |
| 20260903150021 | 30 | 360 | 11.3 | 25.7 | 0.00 | 0.00 | 0.00 | 71 | 1015.0 |
| 20260903145941 | 30 | 360 | 12.9 | 25.7 | 0.00 | 0.00 | 0.00 | 71 | 1014.9 |
| 20260903145822 | 30 | 360 | 9.7 | 24.1 | 0.00 | 0.00 | 0.00 | 71 | 1014.9 |
| 20260903145719 | 30 | 360 | 11.3 | 24.1 | 0.00 | 0.00 | 0.00 | 72 | 1015.0 |
| 20260903145620 | 30 | 360 | 11.3 | 24.1 | 0.00 | 0.00 | 0.00 | 71 | 1014.9 |
| 20260903145520 | 30 | 360 | 11.3 | 24.1 | 0.00 | 0.00 | 0.00 | 71 | 1015.0 |
| 20260903145421 | 30 | 360 | 9.7 | 24.1 | 0.00 | 0.00 | 0.00 | 71 | 1014.8 |
| 20260903145325 | 30 | 360 | 8.0 | 24.1 | 0.00 | 0.00 | 0.00 | 71 | 1014.8 |
| 20260903145225 | 30 | 360 | 8.0 | 24.1 | 0.00 | 0.00 | 0.00 | 71 | 1014.9 |
| 20260903145126 | 30 | 360 | 8.0 | 22.5 | 0.00 | 0.00 | 0.00 | 72 | 1014.9 |
| 20260903145027 | 30 | 360 | 9.7 | 22.5 | 0.00 | 0.00 | 0.00 | 72 | 1015.0 |
| 20260903144946 | 30 | 360 | 9.7 | 24.1 | 0.00 | 0.00 | 0.00 | 72 | 1014.8 |
| 20260903144826 | 30 | 360 | 11.3 | 24.1 | 0.00 | 0.00 | 0.00 | 72 | 1014.9 |
| 20260903144727 | 30 | 360 | 9.7 | 24.1 | 0.00 | 0.00 | 0.00 | 72 | 1014.9 |
| 20260903144632 | 30 | 360 | 9.7 | 32.2 | 0.00 | 0.00 | 0.00 | 72 | 1014.9 |
| 20260903144531 | 30 | 360 | 9.7 | 32.2 | 0.00 | 0.00 | 0.00 | 72 | 1014.7 |
| 20260903144432 | 30 | 360 | 9.7 | 32.2 | 0.00 | 0.00 | 0.00 | 73 | 1014.8 |
| 20260903144333 | 30 | 360 | 9.7 | 32.2 | 0.00 | 0.00 | 0.00 | 74 | 1014.8 |
| 20260903144234 | 29 | 360 | 11.3 | 32.2 | 0.00 | 0.00 | 0.00 | 74 | 1014.8 |
| 20260903144154 | 29 | 360 | 14.5 | 32.2 | 0.00 | 0.00 | 0.00 | 74 | 1014.8 |
| 20260903144033 | 29 | 360 | 14.5 | 32.2 | 0.00 | 0.00 | 0.00 | 74 | 1014.8 |
| 20260903143918 | 29 | 360 | 12.9 | 32.2 | 0.00 | 0.00 | 0.00 | 74 | 1014.8 |
| 20260903143819 | 29 | 360 | 11.3 | 35.4 | 0.00 | 0.00 | 0.00 | 74 | 1014.8 |
| 20260903143719 | 29 | 360 | 11.3 | 35.4 | 0.00 | 0.00 | 0.00 | 74 | 1014.8 |
| 20260903143620 | 29 | 360 | 12.9 | 35.4 | 0.00 | 0.00 | 0.00 | 74 | 1014.8 |
| 20260903143521 | 29 | 360 | 11.3 | 35.4 | 0.00 | 0.00 | 0.00 | 74 | 1014.8 |
| 20260903143421 | 29 | 360 | 12.9 | 35.4 | 0.00 | 0.00 | 0.00 | 74 | 1014.9 |
| 20260903143327 | 29 | 360 | 12.9 | 35.4 | 0.00 | 0.00 | 0.00 | 75 | 1014.8 |
| 20260903143226 | 28 | 360 | 14.5 | 35.4 | 0.00 | 0.00 | 0.00 | 76 | 1014.8 |
| 20260903143127 | 28 | 360 | 16.1 | 35.4 | 0.00 | 0.00 | 0.00 | 75 | 1014.8 |
| 20260903143027 | 29 | 360 | 11.3 | 35.4 | 0.00 | 0.00 | 0.00 | 75 | 1014.8 |
| 20260903142928 | 29 | 360 | 8.0 | 25.7 | 0.00 | 0.00 | 0.00 | 77 | 1014.8 |
| 20260903142831 | 29 | 360 | 8.0 | 27.4 | 0.00 | 0.00 | 0.00 | 77 | 1014.8 |
| 20260903142750 | 29 | 360 | 9.7 | 27.4 | 0.00 | 0.00 | 0.00 | 76 | 1014.8 |
| 20260903142633 | 28 | 360 | 9.7 | 27.4 | 0.00 | 0.00 | 0.00 | 77 | 1014.8 |
| 20260903142533 | 28 | 360 | 11.3 | 27.4 | 0.00 | 0.00 | 0.00 | 76 | 1014.9 |
| 20260903142433 | 28 | 360 | 11.3 | 29.0 | 0.00 | 0.00 | 0.00 | 77 | 1014.9 |
| 20260903142354 | 28 | 360 | 11.3 | 29.0 | 0.00 | 0.00 | 0.00 | 77 | 1014.9 |
| 20260903142253 | 28 | 360 | 9.7 | 30.6 | 0.00 | 0.00 | 0.00 | 77 | 1014.8 |
| 20260903142132 | 28 | 360 | 12.9 | 30.6 | 0.00 | 0.00 | 0.00 | 77 | 1015.0 |
| 20260903142032 | 28 | 360 | 11.3 | 30.6 | 0.00 | 0.00 | 0.00 | 77 | 1015.0 |
| 20260903141933 | 28 | 360 | 11.3 | 30.6 | 0.00 | 0.00 | 0.00 | 77 | 1015.0 |
| 20260903141817 | 28 | 360 | 9.7 | 30.6 | 0.00 | 0.00 | 0.00 | 77 | 1014.9 |
| 20260903141717 | 28 | 360 | 6.4 | 30.6 | 0.00 | 0.00 | 0.00 | 77 | 1015.0 |
| 20260903141618 | 28 | 360 | 8.0 | 30.6 | 0.00 | 0.00 | 0.00 | 77 | 1015.0 |
| 20260903141520 | 28 | 360 | 11.3 | 30.6 | 0.00 | 0.00 | 0.00 | 77 | 1015.0 |
| 20260903141420 | 28 | 360 | 14.5 | 30.6 | 0.00 | 0.00 | 0.00 | 77 | 1015.0 |
| 20260903141340 | 28 | 360 | 14.5 | 29.0 | 0.00 | 0.00 | 0.00 | 77 | 1015.0 |
| 20260903141220 | 28 | 360 | 14.5 | 29.0 | 0.00 | 0.00 | 0.00 | 77 | 1015.0 |
| 20260903141125 | 28 | 360 | 11.3 | 29.0 | 0.00 | 0.00 | 0.00 | 77 | 1015.0 |
| 20260903141046 | 28 | 360 | 9.7 | 22.5 | 0.00 | 0.00 | 0.00 | 77 | 1015.0 |
| 20260903140925 | 28 | 360 | 8.0 | 17.7 | 0.00 | 0.00 | 0.00 | 77 | 1015.0 |
| 20260903140825 | 28 | 360 | 8.0 | 17.7 | 0.00 | 0.00 | 0.00 | 77 | 1015.0 |
| 20260903140726 | 28 | 360 | 6.4 | 17.7 | 0.00 | 0.00 | 0.00 | 78 | 1014.9 |
| 20260903140627 | 28 | 360 | 4.8 | 19.3 | 0.00 | 0.00 | 0.00 | 78 | 1015.0 |
| 20260903140547 | 28 | 360 | 3.2 | 19.3 | 0.00 | 0.00 | 0.00 | 78 | 1015.1 |
| 20260903140447 | 28 | 360 | 4.8 | 19.3 | 0.00 | 0.00 | 0.00 | 78 | 1014.9 |
| 20260903140330 | 28 | 360 | 4.8 | 20.9 | 0.00 | 0.00 | 0.00 | 79 | 1015.0 |
| 20260903140230 | 28 | 360 | 6.4 | 22.5 | 0.00 | 0.00 | 0.00 | 79 | 1015.0 |
| 20260903140151 | 28 | 360 | 6.4 | 22.5 | 0.00 | 0.00 | 0.00 | 79 | 1015.0 |
| 20260903140050 | 28 | 360 | 6.4 | 22.5 | 0.00 | 0.00 | 0.00 | 79 | 1015.1 |
| 20260903135930 | 28 | 360 | 4.8 | 22.5 | 0.00 | 0.00 | 0.00 | 79 | 1015.1 |
| 20260903135832 | 28 | 360 | 4.8 | 22.5 | 0.00 | 0.00 | 0.00 | 79 | 1015.1 |
| 20260903135729 | 28 | 360 | 4.8 | 22.5 | 0.00 | 0.00 | 0.00 | 80 | 1015.0 |
| 20260903135630 | 28 | 360 | 8.0 | 22.5 | 0.00 | 0.00 | 0.00 | 80 | 1015.0 |
| 20260903135535 | 28 | 360 | 8.0 | 22.5 | 0.00 | 0.00 | 0.00 | 80 | 1014.9 |
| 20260903135457 | 28 | 360 | 8.0 | 22.5 | 0.00 | 0.00 | 0.00 | 80 | 1015.0 |
| 20260903135335 | 28 | 360 | 6.4 | 24.1 | 0.00 | 0.00 | 0.00 | 80 | 1014.9 |
| 20260903135216 | 28 | 360 | 8.0 | 24.1 | 0.00 | 0.00 | 0.00 | 80 | 1014.9 |
| 20260903135116 | 28 | 360 | 6.4 | 24.1 | 0.00 | 0.00 | 0.00 | 80 | 1015.0 |
| 20260903135017 | 28 | 360 | 6.4 | 24.1 | 0.00 | 0.00 | 0.00 | 80 | 1015.0 |
| 20260903134938 | 27 | 360 | 6.4 | 27.4 | 0.00 | 0.00 | 0.00 | 80 | 1014.9 |
| 20260903134822 | 27 | 360 | 8.0 | 27.4 | 0.00 | 0.00 | 0.00 | 80 | 1014.9 |
| 20260903134723 | 27 | 360 | 8.0 | 27.4 | 0.00 | 0.00 | 0.00 | 80 | 1014.9 |
| 20260903134623 | 27 | 360 | 11.3 | 27.4 | 0.00 | 0.00 | 0.00 | 80 | 1014.9 |
| 20260903134524 | 27 | 360 | 11.3 | 27.4 | 0.00 | 0.00 | 0.00 | 80 | 1015.0 |
| 20260903134423 | 27 | 360 | 11.3 | 27.4 | 0.00 | 0.00 | 0.00 | 81 | 1015.0 |
| 20260903134325 | 27 | 360 | 8.0 | 27.4 | 0.00 | 0.00 | 0.00 | 81 | 1015.0 |
| 20260903134226 | 27 | 360 | 9.7 | 27.4 | 0.00 | 0.00 | 0.00 | 80 | 1015.0 |
| 20260903134131 | 27 | 360 | 8.0 | 27.4 | 0.00 | 0.00 | 0.00 | 80 | 1015.0 |
| 20260903134051 | 27 | 360 | 9.7 | 27.4 | 0.00 | 0.00 | 0.00 | 80 | 1015.0 |
| 20260903133931 | 27 | 360 | 8.0 | 27.4 | 0.00 | 0.00 | 0.00 | 80 | 1015.1 |
| 20260903133831 | 27 | 360 | 8.0 | 27.4 | 0.00 | 0.00 | 0.00 | 80 | 1015.1 |
| 20260903133731 | 27 | 360 | 8.0 | 20.9 | 0.00 | 0.00 | 0.00 | 80 | 1015.0 |
| 20260903133632 | 27 | 360 | 8.0 | 20.9 | 0.00 | 0.00 | 0.00 | 81 | 1015.0 |
| 20260903133516 | 27 | 360 | 9.7 | 20.9 | 0.00 | 0.00 | 0.00 | 81 | 1015.0 |
| 20260903133417 | 27 | 360 | 11.3 | 20.9 | 0.00 | 0.00 | 0.00 | 81 | 1015.1 |
| 20260903133319 | 27 | 360 | 11.3 | 20.9 | 0.00 | 0.00 | 0.00 | 81 | 1015.0 |
| 20260903133219 | 27 | 360 | 9.7 | 20.9 | 0.00 | 0.00 | 0.00 | 81 | 1015.0 |
| 20260903133120 | 27 | 360 | 8.0 | 19.3 | 0.00 | 0.00 | 0.00 | 81 | 1015.0 |
| 20260903133020 | 27 | 360 | 8.0 | 17.7 | 0.00 | 0.00 | 0.00 | 81 | 1015.0 |
| 20260903132922 | 27 | 360 | 8.0 | 17.7 | 0.00 | 0.00 | 0.00 | 81 | 1015.0 |
| 20260903132826 | 27 | 360 | 6.4 | 17.7 | 0.00 | 0.00 | 0.00 | 81 | 1015.1 |
| 20260903132746 | 27 | 360 | 6.4 | 17.7 | 0.00 | 0.00 | 0.00 | 81 | 1015.1 |
| 20260903132625 | 27 | 360 | 4.8 | 16.1 | 0.00 | 0.00 | 0.00 | 82 | 1015.0 |
| 20260903132526 | 27 | 360 | 4.8 | 22.5 | 0.00 | 0.00 | 0.00 | 82 | 1015.1 |
| 20260903132446 | 27 | 360 | 4.8 | 22.5 | 0.00 | 0.00 | 0.00 | 82 | 1015.0 |
| 20260903132325 | 27 | 360 | 4.8 | 22.5 | 0.00 | 0.00 | 0.00 | 82 | 1015.1 |
| 20260903132226 | 27 | 360 | 6.4 | 22.5 | 0.00 | 0.00 | 0.00 | 82 | 1015.1 |
| 20260903132131 | 27 | 360 | 6.4 | 22.5 | 0.00 | 0.00 | 0.00 | 82 | 1015.0 |
| 20260903132031 | 27 | 360 | 6.4 | 22.5 | 0.00 | 0.00 | 0.00 | 82 | 1015.1 |
| 20260903131932 | 27 | 360 | 9.7 | 22.5 | 0.00 | 0.00 | 0.00 | 83 | 1015.1 |
| 20260903131853 | 27 | 360 | 9.7 | 22.5 | 0.00 | 0.00 | 0.00 | 83 | 1015.1 |
| 20260903131752 | 27 | 360 | 11.3 | 22.5 | 0.00 | 0.00 | 0.00 | 82 | 1015.1 |
| 20260903131632 | 27 | 360 | 9.7 | 19.3 | 0.00 | 0.00 | 0.00 | 83 | 1015.0 |
| 20260903131533 | 27 | 360 | 9.7 | 19.3 | 0.00 | 0.00 | 0.00 | 83 | 1015.0 |
| 20260903131417 | 27 | 360 | 11.3 | 22.5 | 0.00 | 0.00 | 0.00 | 83 | 1015.0 |
| 20260903131319 | 27 | 360 | 8.0 | 22.5 | 0.00 | 0.00 | 0.00 | 83 | 1015.1 |
| 20260903131219 | 27 | 360 | 6.4 | 22.5 | 0.00 | 0.00 | 0.00 | 83 | 1015.1 |
| 20260903131139 | 27 | 360 | 4.8 | 22.5 | 0.00 | 0.00 | 0.00 | 83 | 1015.1 |
| 20260903131019 | 27 | 360 | 4.8 | 22.5 | 0.00 | 0.00 | 0.00 | 83 | 1015.1 |
| 20260903130918 | 27 | 360 | 4.8 | 22.5 | 0.00 | 0.00 | 0.00 | 83 | 1015.1 |
| 20260903130820 | 27 | 360 | 4.8 | 22.5 | 0.00 | 0.00 | 0.00 | 83 | 1015.1 |
| 20260903130721 | 27 | 360 | 8.0 | 22.5 | 0.00 | 0.00 | 0.00 | 83 | 1015.1 |
| 20260903130644 | 27 | 360 | 8.0 | 22.5 | 0.00 | 0.00 | 0.00 | 83 | 1015.1 |
| 20260903130524 | 27 | 360 | 11.3 | 22.5 | 0.00 | 0.00 | 0.00 | 84 | 1015.1 |
| 20260903130445 | 27 | 360 | 8.0 | 16.1 | 0.00 | 0.00 | 0.00 | 84 | 1015.1 |
| 20260903130325 | 27 | 360 | 8.0 | 16.1 | 0.00 | 0.00 | 0.00 | 84 | 1015.0 |
| 20260903130246 | 27 | 360 | 9.7 | 16.1 | 0.00 | 0.00 | 0.00 | 84 | 1014.8 |
| 20260903130126 | 27 | 360 | 9.7 | 16.1 | 0.00 | 0.00 | 0.00 | 84 | 1014.9 |
| 20260903130046 | 27 | 360 | 9.7 | 17.7 | 0.00 | 0.00 | 0.00 | 84 | 1014.8 |
| 20260903125925 | 27 | 360 | 6.4 | 14.5 | 0.00 | 0.00 | 0.00 | 84 | 1014.9 |
| 20260903125831 | 27 | 360 | 6.4 | 14.5 | 0.00 | 0.00 | 0.00 | 84 | 1014.9 |
| 20260903125730 | 27 | 360 | 6.4 | 14.5 | 0.00 | 0.00 | 0.00 | 84 | 1014.9 |
| 20260903125632 | 27 | 360 | 6.4 | 17.7 | 0.00 | 0.00 | 0.00 | 84 | 1014.9 |
| 20260903125552 | 27 | 360 | 6.4 | 17.7 | 0.00 | 0.00 | 0.00 | 84 | 1014.9 |
| 20260903125432 | 26 | 360 | 4.8 | 17.7 | 0.00 | 0.00 | 0.00 | 84 | 1015.0 |
| 20260903125332 | 26 | 360 | 4.8 | 17.7 | 0.00 | 0.00 | 0.00 | 84 | 1015.0 |
| 20260903125233 | 26 | 360 | 4.8 | 17.7 | 0.00 | 0.00 | 0.00 | 84 | 1014.9 |
| 20260903125117 | 26 | 360 | 6.4 | 17.7 | 0.00 | 0.00 | 0.00 | 84 | 1014.9 |
| 20260903125018 | 26 | 360 | 8.0 | 17.7 | 0.00 | 0.00 | 0.00 | 85 | 1014.8 |
| 20260903124919 | 26 | 360 | 6.4 | 19.3 | 0.00 | 0.00 | 0.00 | 85 | 1014.8 |
| 20260903124819 | 26 | 360 | 6.4 | 19.3 | 0.00 | 0.00 | 0.00 | 85 | 1014.8 |
| 20260903124720 | 26 | 360 | 6.4 | 19.3 | 0.00 | 0.00 | 0.00 | 85 | 1014.7 |
| 20260903124640 | 26 | 360 | 8.0 | 19.3 | 0.00 | 0.00 | 0.00 | 85 | 1014.8 |
| 20260903124521 | 26 | 360 | 6.4 | 19.3 | 0.00 | 0.00 | 0.00 | 85 | 1014.8 |
| 20260903124425 | 26 | 360 | 6.4 | 19.3 | 0.00 | 0.00 | 0.00 | 85 | 1014.8 |
| 20260903124326 | 26 | 360 | 6.4 | 19.3 | 0.00 | 0.00 | 0.00 | 85 | 1014.8 |
| 20260903124247 | 26 | 360 | 9.7 | 19.3 | 0.00 | 0.00 | 0.00 | 85 | 1014.8 |
| 20260903124126 | 26 | 360 | 9.7 | 20.9 | 0.00 | 0.00 | 0.00 | 85 | 1014.8 |
| 20260903124046 | 26 | 360 | 8.0 | 20.9 | 0.00 | 0.00 | 0.00 | 85 | 1014.8 |
| 20260903123946 | 26 | 360 | 8.0 | 20.9 | 0.00 | 0.00 | 0.00 | 85 | 1014.8 |
| 20260903123845 | 26 | 360 | 9.7 | 20.9 | 0.00 | 0.00 | 0.00 | 85 | 1014.7 |
| 20260903123724 | 26 | 360 | 6.4 | 20.9 | 0.00 | 0.00 | 0.00 | 85 | 1014.8 |
| 20260903123629 | 26 | 360 | 4.8 | 20.9 | 0.00 | 0.00 | 0.00 | 85 | 1014.7 |
| 20260903123529 | 26 | 360 | 6.4 | 20.9 | 0.00 | 0.00 | 0.00 | 85 | 1014.7 |
| 20260903123428 | 26 | 360 | 8.0 | 20.9 | 0.00 | 0.00 | 0.00 | 85 | 1014.7 |
| 20260903123330 | 26 | 360 | 9.7 | 20.9 | 0.00 | 0.00 | 0.00 | 85 | 1014.7 |
| 20260903123231 | 26 | 360 | 6.4 | 19.3 | 0.00 | 0.00 | 0.00 | 85 | 1014.7 |
| 20260903123132 | 26 | 360 | 6.4 | 19.3 | 0.00 | 0.00 | 0.00 | 85 | 1014.7 |
| 20260903123032 | 26 | 360 | 8.0 | 19.3 | 0.00 | 0.00 | 0.00 | 85 | 1014.7 |
| 20260903122916 | 26 | 360 | 9.7 | 19.3 | 0.00 | 0.00 | 0.00 | 85 | 1014.7 |
| 20260903122839 | 26 | 360 | 9.7 | 19.3 | 0.00 | 0.00 | 0.00 | 85 | 1014.7 |
| 20260903122718 | 26 | 360 | 8.0 | 20.9 | 0.00 | 0.00 | 0.00 | 85 | 1014.7 |
| 20260903122618 | 26 | 169 | 4.8 | 20.9 | 0.00 | 0.00 | 0.00 | 85 | 1014.6 |
| 20260903122517 | 26 | 360 | 4.8 | 20.9 | 0.00 | 0.00 | 0.00 | 85 | 1014.7 |
| 20260903122419 | 26 | 360 | 6.4 | 25.7 | 0.00 | 0.00 | 0.00 | 85 | 1014.6 |
| 20260903122319 | 26 | 360 | 6.4 | 25.7 | 0.00 | 0.00 | 0.00 | 85 | 1014.6 |
| 20260903122223 | 26 | 360 | 4.8 | 25.7 | 0.00 | 0.00 | 0.00 | 85 | 1014.6 |
| 20260903122123 | 26 | 360 | 6.4 | 25.7 | 0.00 | 0.00 | 0.00 | 85 | 1014.6 |
| 20260903122025 | 26 | 360 | 8.0 | 25.7 | 0.00 | 0.00 | 0.00 | 85 | 1014.6 |
| 20260903121925 | 26 | 360 | 9.7 | 25.7 | 0.00 | 0.00 | 0.00 | 85 | 1014.5 |
| 20260903121826 | 26 | 360 | 8.0 | 25.7 | 0.00 | 0.00 | 0.00 | 85 | 1014.5 |
| 20260903121727 | 26 | 360 | 8.0 | 25.7 | 0.00 | 0.00 | 0.00 | 85 | 1014.6 |
| 20260903121628 | 26 | 360 | 8.0 | 25.7 | 0.00 | 0.00 | 0.00 | 85 | 1014.6 |
| 20260903121533 | 26 | 360 | 9.7 | 24.1 | 0.00 | 0.00 | 0.00 | 85 | 1014.5 |
| 20260903121433 | 26 | 360 | 9.7 | 24.1 | 0.00 | 0.00 | 0.00 | 85 | 1014.5 |
| 20260903121333 | 26 | 360 | 11.3 | 24.1 | 0.00 | 0.00 | 0.00 | 85 | 1014.5 |
| 20260903121235 | 26 | 360 | 9.7 | 24.1 | 0.00 | 0.00 | 0.00 | 85 | 1014.5 |
| 20260903121116 | 26 | 360 | 8.0 | 24.1 | 0.00 | 0.00 | 0.00 | 85 | 1014.5 |
| 20260903121016 | 26 | 360 | 8.0 | 24.1 | 0.00 | 0.00 | 0.00 | 85 | 1014.6 |
| 20260903120921 | 26 | 360 | 9.7 | 24.1 | 0.00 | 0.00 | 0.00 | 85 | 1014.5 |
| 20260903120822 | 26 | 360 | 9.7 | 24.1 | 0.00 | 0.00 | 0.00 | 85 | 1014.5 |
| 20260903120722 | 26 | 360 | 8.0 | 24.1 | 0.00 | 0.00 | 0.00 | 85 | 1014.5 |
| 20260903120622 | 26 | 360 | 6.4 | 24.1 | 0.00 | 0.00 | 0.00 | 85 | 1014.5 |
| 20260903120523 | 26 | 360 | 9.7 | 24.1 | 0.00 | 0.00 | 0.00 | 85 | 1014.4 |
| 20260903120444 | 26 | 184 | 11.3 | 24.1 | 0.00 | 0.00 | 0.00 | 85 | 1014.5 |
| 20260903120324 | 26 | 360 | 9.7 | 24.1 | 0.00 | 0.00 | 0.00 | 85 | 1014.4 |
| 20260903120228 | 26 | 360 | 8.0 | 20.9 | 0.00 | 0.00 | 0.00 | 85 | 1014.4 |
| 20260903120129 | 26 | 360 | 4.8 | 17.7 | 0.00 | 0.00 | 0.00 | 85 | 1014.4 |
| 20260903120050 | 26 | 360 | 8.0 | 17.7 | 0.00 | 0.00 | 0.00 | 85 | 1014.3 |
| 20260903115929 | 26 | 360 | 8.0 | 17.7 | 0.00 | 0.00 | 0.00 | 85 | 1014.4 |
| 20260903115832 | 26 | 360 | 8.0 | 17.7 | 0.00 | 0.00 | 0.00 | 85 | 1014.3 |
| 20260903115731 | 26 | 360 | 8.0 | 20.9 | 0.00 | 0.00 | 0.00 | 85 | 1014.4 |
| 20260903115630 | 26 | 360 | 6.4 | 20.9 | 0.00 | 0.00 | 0.00 | 85 | 1014.4 |
| 20260903115534 | 26 | 360 | 6.4 | 20.9 | 0.00 | 0.00 | 0.00 | 85 | 1014.3 |
| 20260903115436 | 26 | 360 | 4.8 | 20.9 | 0.00 | 0.00 | 0.00 | 85 | 1014.4 |
| 20260903115316 | 26 | 360 | 4.8 | 20.9 | 0.00 | 0.00 | 0.00 | 85 | 1014.4 |
| 20260903115216 | 26 | 360 | 8.0 | 20.9 | 0.00 | 0.00 | 0.00 | 85 | 1014.4 |
| 20260903115117 | 26 | 360 | 9.7 | 20.9 | 0.00 | 0.00 | 0.00 | 85 | 1014.3 |
| 20260903115019 | 26 | 360 | 11.3 | 24.1 | 0.00 | 0.00 | 0.00 | 85 | 1014.3 |
| 20260903114940 | 26 | 360 | 11.3 | 24.1 | 0.00 | 0.00 | 0.00 | 85 | 1014.3 |
| 20260903114823 | 26 | 360 | 9.7 | 24.1 | 0.00 | 0.00 | 0.00 | 85 | 1014.3 |
| 20260903114723 | 26 | 360 | 9.7 | 24.1 | 0.00 | 0.00 | 0.00 | 85 | 1014.3 |
| 20260903114624 | 26 | 360 | 6.4 | 24.1 | 0.00 | 0.00 | 0.00 | 85 | 1014.2 |
| 20260903114523 | 26 | 360 | 6.4 | 24.1 | 0.00 | 0.00 | 0.00 | 85 | 1014.3 |
| 20260903114425 | 26 | 360 | 6.4 | 24.1 | 0.00 | 0.00 | 0.00 | 85 | 1014.2 |
| 20260903114325 | 26 | 360 | 8.0 | 24.1 | 0.00 | 0.00 | 0.00 | 85 | 1014.2 |
| 20260903114245 | 26 | 360 | 11.3 | 24.1 | 0.00 | 0.00 | 0.00 | 85 | 1014.2 |
| 20260903114129 | 26 | 360 | 11.3 | 24.1 | 0.00 | 0.00 | 0.00 | 85 | 1014.3 |
| 20260903114030 | 26 | 360 | 11.3 | 22.5 | 0.00 | 0.00 | 0.00 | 85 | 1014.2 |
| 20260903113932 | 26 | 360 | 9.7 | 22.5 | 0.00 | 0.00 | 0.00 | 85 | 1014.2 |
| 20260903113832 | 26 | 360 | 8.0 | 20.9 | 0.00 | 0.00 | 0.00 | 85 | 1014.2 |
| 20260903113733 | 26 | 360 | 6.4 | 20.9 | 0.00 | 0.00 | 0.00 | 85 | 1014.2 |
| 20260903113634 | 26 | 360 | 4.8 | 20.9 | 0.00 | 0.00 | 0.00 | 85 | 1014.2 |
| 20260903113519 | 26 | 360 | 6.4 | 20.9 | 0.00 | 0.00 | 0.00 | 85 | 1014.2 |
| 20260903113419 | 26 | 360 | 6.4 | 20.9 | 0.00 | 0.00 | 0.00 | 85 | 1014.2 |
| 20260903113320 | 26 | 360 | 6.4 | 20.9 | 0.00 | 0.00 | 0.00 | 85 | 1014.2 |
| 20260903113220 | 26 | 360 | 6.4 | 20.9 | 0.00 | 0.00 | 0.00 | 85 | 1014.3 |
| 20260903113122 | 26 | 360 | 6.4 | 20.9 | 0.00 | 0.00 | 0.00 | 86 | 1014.3 |
| 20260903113042 | 26 | 360 | 6.4 | 20.9 | 0.00 | 0.00 | 0.00 | 86 | 1014.2 |
| 20260903112922 | 26 | 360 | 6.4 | 20.9 | 0.00 | 0.00 | 0.00 | 86 | 1014.3 |
| 20260903112828 | 26 | 360 | 8.0 | 20.9 | 0.00 | 0.00 | 0.00 | 86 | 1014.3 |
| 20260903112728 | 26 | 360 | 9.7 | 22.5 | 0.00 | 0.00 | 0.00 | 86 | 1014.3 |
| 20260903112628 | 26 | 360 | 9.7 | 22.5 | 0.00 | 0.00 | 0.00 | 86 | 1014.3 |
| 20260903112549 | 26 | 360 | 9.7 | 22.5 | 0.00 | 0.00 | 0.00 | 86 | 1014.2 |
| 20260903112427 | 26 | 360 | 9.7 | 22.5 | 0.00 | 0.00 | 0.00 | 86 | 1014.2 |
| 20260903112348 | 26 | 360 | 11.3 | 22.5 | 0.00 | 0.00 | 0.00 | 86 | 1014.2 |
| 20260903112228 | 26 | 360 | 12.9 | 22.5 | 0.00 | 0.00 | 0.00 | 86 | 1014.2 |
| 20260903112128 | 26 | 360 | 11.3 | 22.5 | 0.00 | 0.00 | 0.00 | 86 | 1014.3 |
| 20260903112033 | 26 | 360 | 11.3 | 22.5 | 0.00 | 0.00 | 0.00 | 86 | 1014.2 |
| 20260903111934 | 26 | 360 | 11.3 | 22.5 | 0.00 | 0.00 | 0.00 | 86 | 1014.2 |
| 20260903111835 | 26 | 360 | 9.7 | 20.9 | 0.00 | 0.00 | 0.00 | 86 | 1014.1 |
| 20260903111716 | 26 | 360 | 11.3 | 20.9 | 0.00 | 0.00 | 0.00 | 86 | 1014.2 |
| 20260903111617 | 26 | 360 | 9.7 | 20.9 | 0.00 | 0.00 | 0.00 | 86 | 1014.1 |
| 20260903111517 | 26 | 360 | 8.0 | 20.9 | 0.00 | 0.00 | 0.00 | 86 | 1014.2 |
| 20260903111422 | 26 | 360 | 6.4 | 20.9 | 0.00 | 0.00 | 0.00 | 86 | 1014.2 |
| 20260903111321 | 26 | 360 | 6.4 | 20.9 | 0.00 | 0.00 | 0.00 | 86 | 1014.2 |
| 20260903111222 | 26 | 360 | 6.4 | 20.9 | 0.00 | 0.00 | 0.00 | 86 | 1014.2 |
| 20260903111121 | 26 | 360 | 9.7 | 20.9 | 0.00 | 0.00 | 0.00 | 86 | 1014.2 |
| 20260903111021 | 26 | 360 | 11.3 | 20.9 | 0.00 | 0.00 | 0.00 | 86 | 1014.2 |
| 20260903110922 | 26 | 360 | 9.7 | 20.9 | 0.00 | 0.00 | 0.00 | 86 | 1014.2 |
| 20260903110843 | 26 | 360 | 9.7 | 20.9 | 0.00 | 0.00 | 0.00 | 86 | 1014.1 |
| 20260903110722 | 26 | 360 | 8.0 | 19.3 | 0.00 | 0.00 | 0.00 | 87 | 1014.2 |
| 20260903110643 | 26 | 360 | 8.0 | 20.9 | 0.00 | 0.00 | 0.00 | 87 | 1014.1 |
| 20260903110527 | 26 | 360 | 8.0 | 20.9 | 0.00 | 0.00 | 0.00 | 87 | 1014.1 |
| 20260903110426 | 26 | 360 | 8.0 | 20.9 | 0.00 | 0.00 | 0.00 | 87 | 1014.2 |
| 20260903110326 | 26 | 360 | 8.0 | 20.9 | 0.00 | 0.00 | 0.00 | 87 | 1014.1 |
| 20260903110227 | 26 | 360 | 6.4 | 20.9 | 0.00 | 0.00 | 0.00 | 87 | 1014.1 |
| 20260903110128 | 26 | 360 | 8.0 | 20.9 | 0.00 | 0.00 | 0.00 | 87 | 1014.1 |
| 20260903110027 | 26 | 360 | 8.0 | 20.9 | 0.00 | 0.00 | 0.00 | 87 | 1014.1 |
| 20260903105928 | 26 | 192 | 9.7 | 20.9 | 0.00 | 0.00 | 0.00 | 87 | 1014.1 |
| 20260903105834 | 26 | 360 | 11.3 | 20.9 | 0.00 | 0.00 | 0.00 | 87 | 1014.1 |
| 20260903105755 | 26 | 360 | 11.3 | 20.9 | 0.00 | 0.00 | 0.00 | 87 | 1014.1 |
| 20260903105633 | 26 | 360 | 9.7 | 20.9 | 0.00 | 0.00 | 0.00 | 87 | 1014.0 |
| 20260903105534 | 26 | 360 | 8.0 | 14.5 | 0.00 | 0.00 | 0.00 | 87 | 1014.1 |
| 20260903105435 | 26 | 360 | 6.4 | 14.5 | 0.00 | 0.00 | 0.00 | 87 | 1014.1 |
| 20260903105316 | 26 | 360 | 4.8 | 14.5 | 0.00 | 0.00 | 0.00 | 87 | 1014.1 |
| 20260903105217 | 26 | 360 | 6.4 | 14.5 | 0.00 | 0.00 | 0.00 | 87 | 1014.2 |
| 20260903105141 | 26 | 360 | 4.8 | 14.5 | 0.00 | 0.00 | 0.00 | 87 | 1014.2 |
| 20260903105020 | 26 | 360 | 8.0 | 14.5 | 0.00 | 0.00 | 0.00 | 87 | 1014.1 |
| 20260903104921 | 26 | 360 | 8.0 | 14.5 | 0.00 | 0.00 | 0.00 | 87 | 1014.2 |
| 20260903104822 | 26 | 360 | 6.4 | 14.5 | 0.00 | 0.00 | 0.00 | 87 | 1014.2 |
| 20260903104723 | 26 | 360 | 6.4 | 14.5 | 0.00 | 0.00 | 0.00 | 87 | 1014.1 |
| 20260903104624 | 26 | 360 | 6.4 | 14.5 | 0.00 | 0.00 | 0.00 | 87 | 1014.1 |
| 20260903104523 | 26 | 360 | 6.4 | 14.5 | 0.00 | 0.00 | 0.00 | 87 | 1014.2 |
| 20260903104427 | 26 | 360 | 6.4 | 14.5 | 0.00 | 0.00 | 0.00 | 87 | 1014.1 |
| 20260903104328 | 26 | 360 | 4.8 | 14.5 | 0.00 | 0.00 | 0.00 | 87 | 1014.2 |
| 20260903104249 | 26 | 360 | 6.4 | 14.5 | 0.00 | 0.00 | 0.00 | 87 | 1014.2 |
| 20260903104148 | 26 | 360 | 6.4 | 14.5 | 0.00 | 0.00 | 0.00 | 87 | 1014.1 |
| 20260903104047 | 26 | 360 | 8.0 | 14.5 | 0.00 | 0.00 | 0.00 | 87 | 1014.1 |
| 20260903103926 | 26 | 360 | 6.4 | 16.1 | 0.00 | 0.00 | 0.00 | 87 | 1014.1 |
| 20260903103847 | 26 | 360 | 6.4 | 17.7 | 0.00 | 0.00 | 0.00 | 87 | 1014.1 |
| 20260903103747 | 26 | 360 | 6.4 | 19.3 | 0.00 | 0.00 | 0.00 | 87 | 1014.0 |
| 20260903103627 | 26 | 360 | 6.4 | 19.3 | 0.00 | 0.00 | 0.00 | 87 | 1014.0 |
| 20260903103547 | 26 | 360 | 6.4 | 19.3 | 0.00 | 0.00 | 0.00 | 87 | 1014.0 |
| 20260903103430 | 26 | 360 | 6.4 | 19.3 | 0.00 | 0.00 | 0.00 | 87 | 1014.1 |
| 20260903103331 | 26 | 360 | 6.4 | 19.3 | 0.00 | 0.00 | 0.00 | 87 | 1014.0 |
| 20260903103232 | 26 | 360 | 8.0 | 19.3 | 0.00 | 0.00 | 0.00 | 87 | 1014.1 |
| 20260903103133 | 26 | 360 | 8.0 | 19.3 | 0.00 | 0.00 | 0.00 | 87 | 1014.1 |
| 20260903103034 | 26 | 360 | 8.0 | 19.3 | 0.00 | 0.00 | 0.00 | 87 | 1014.0 |
| 20260903102934 | 26 | 360 | 8.0 | 19.3 | 0.00 | 0.00 | 0.00 | 87 | 1014.0 |
| 20260903102819 | 26 | 360 | 6.4 | 19.3 | 0.00 | 0.00 | 0.00 | 87 | 1014.0 |
| 20260903102719 | 26 | 360 | 6.4 | 19.3 | 0.00 | 0.00 | 0.00 | 87 | 1014.0 |
| 20260903102639 | 26 | 360 | 8.0 | 19.3 | 0.00 | 0.00 | 0.00 | 87 | 1014.0 |
| 20260903102539 | 26 | 360 | 8.0 | 19.3 | 0.00 | 0.00 | 0.00 | 87 | 1014.0 |
| 20260903102438 | 26 | 360 | 6.4 | 20.9 | 0.00 | 0.00 | 0.00 | 87 | 1014.1 |
| 20260903102318 | 26 | 360 | 4.8 | 29.0 | 0.00 | 0.00 | 0.00 | 87 | 1014.0 |
| 20260903102217 | 26 | 360 | 6.4 | 29.0 | 0.00 | 0.00 | 0.00 | 87 | 1014.1 |
| 20260903102119 | 26 | 360 | 8.0 | 29.0 | 0.00 | 0.00 | 0.00 | 87 | 1014.0 |
| 20260903102024 | 26 | 360 | 8.0 | 29.0 | 0.00 | 0.00 | 0.00 | 87 | 1014.0 |
| 20260903101924 | 26 | 360 | 11.3 | 29.0 | 0.00 | 0.00 | 0.00 | 87 | 1014.0 |
| 20260903101824 | 26 | 360 | 9.7 | 29.0 | 0.00 | 0.00 | 0.00 | 87 | 1013.9 |
| 20260903101725 | 26 | 360 | 11.3 | 29.0 | 0.00 | 0.00 | 0.00 | 87 | 1014.0 |
| 20260903101646 | 26 | 360 | 12.9 | 29.0 | 0.00 | 0.00 | 0.00 | 87 | 1013.9 |
| 20260903101525 | 26 | 360 | 11.3 | 29.0 | 0.00 | 0.00 | 0.00 | 87 | 1014.0 |
| 20260903101426 | 26 | 360 | 11.3 | 29.0 | 0.00 | 0.00 | 0.00 | 87 | 1013.9 |
| 20260903101330 | 26 | 360 | 8.0 | 27.4 | 0.00 | 0.00 | 0.00 | 87 | 1013.9 |
| 20260903101231 | 26 | 360 | 6.4 | 22.5 | 0.00 | 0.00 | 0.00 | 87 | 1013.8 |
| 20260903101131 | 26 | 195 | 6.4 | 22.5 | 0.00 | 0.00 | 0.00 | 87 | 1014.0 |
| 20260903101034 | 26 | 360 | 8.0 | 22.5 | 0.00 | 0.00 | 0.00 | 87 | 1014.0 |
| 20260903100934 | 26 | 360 | 8.0 | 22.5 | 0.00 | 0.00 | 0.00 | 87 | 1014.0 |
| 20260903100816 | 26 | 360 | 8.0 | 22.5 | 0.00 | 0.00 | 0.00 | 87 | 1013.9 |
| 20260903100721 | 26 | 360 | 8.0 | 22.5 | 0.00 | 0.00 | 0.00 | 87 | 1013.9 |
| 20260903100622 | 26 | 360 | 8.0 | 20.9 | 0.00 | 0.00 | 0.00 | 87 | 1013.9 |
| 20260903100541 | 26 | 360 | 9.7 | 20.9 | 0.00 | 0.00 | 0.00 | 87 | 1013.9 |
| 20260903100421 | 26 | 360 | 9.7 | 20.9 | 0.00 | 0.00 | 0.00 | 87 | 1013.9 |
| 20260903100322 | 26 | 360 | 9.7 | 20.9 | 0.00 | 0.00 | 0.00 | 87 | 1013.9 |
| 20260903100222 | 26 | 360 | 9.7 | 20.9 | 0.00 | 0.00 | 0.00 | 87 | 1014.0 |
| 20260903100124 | 26 | 360 | 9.7 | 20.9 | 0.00 | 0.00 | 0.00 | 87 | 1013.9 |
| 20260903100028 | 26 | 360 | 8.0 | 20.9 | 0.00 | 0.00 | 0.00 | 87 | 1013.9 |
| 20260903095930 | 26 | 360 | 8.0 | 20.9 | 0.00 | 0.00 | 0.00 | 87 | 1014.0 |
| 20260903095832 | 26 | 360 | 8.0 | 20.9 | 0.00 | 0.00 | 0.00 | 87 | 1014.0 |
| 20260903095731 | 26 | 360 | 8.0 | 20.9 | 0.00 | 0.00 | 0.00 | 87 | 1013.9 |
| 20260903095632 | 26 | 360 | 9.7 | 20.9 | 0.00 | 0.00 | 0.00 | 87 | 1014.0 |
| 20260903095551 | 26 | 360 | 9.7 | 20.9 | 0.00 | 0.00 | 0.00 | 87 | 1013.9 |
| 20260903095432 | 26 | 360 | 11.3 | 20.9 | 0.00 | 0.00 | 0.00 | 87 | 1014.0 |
| 20260903095317 | 26 | 360 | 9.7 | 20.9 | 0.00 | 0.00 | 0.00 | 87 | 1014.0 |
| 20260903095238 | 26 | 360 | 8.0 | 20.9 | 0.00 | 0.00 | 0.00 | 87 | 1014.0 |
| 20260903095117 | 26 | 360 | 8.0 | 20.9 | 0.00 | 0.00 | 0.00 | 87 | 1014.0 |
| 20260903095017 | 26 | 360 | 8.0 | 17.7 | 0.00 | 0.00 | 0.00 | 87 | 1014.0 |
| 20260903094918 | 26 | 360 | 9.7 | 17.7 | 0.00 | 0.00 | 0.00 | 87 | 1014.1 |
| 20260903094819 | 26 | 360 | 9.7 | 17.7 | 0.00 | 0.00 | 0.00 | 87 | 1014.0 |
| 20260903094720 | 26 | 360 | 8.0 | 17.7 | 0.00 | 0.00 | 0.00 | 87 | 1014.1 |
| 20260903094624 | 26 | 360 | 8.0 | 17.7 | 0.00 | 0.00 | 0.00 | 87 | 1014.2 |
| 20260903094526 | 26 | 360 | 6.4 | 16.1 | 0.00 | 0.00 | 0.00 | 87 | 1014.1 |
| 20260903094427 | 26 | 360 | 8.0 | 16.1 | 0.00 | 0.00 | 0.00 | 87 | 1014.2 |
| 20260903094347 | 26 | 360 | 8.0 | 16.1 | 0.00 | 0.00 | 0.00 | 86 | 1014.1 |
| 20260903094228 | 26 | 360 | 9.7 | 16.1 | 0.00 | 0.00 | 0.00 | 86 | 1014.1 |
| 20260903094128 | 26 | 360 | 8.0 | 16.1 | 0.00 | 0.00 | 0.00 | 86 | 1014.1 |
| 20260903094028 | 26 | 360 | 6.4 | 16.1 | 0.00 | 0.00 | 0.00 | 86 | 1014.1 |
| 20260903093950 | 26 | 360 | 6.4 | 16.1 | 0.00 | 0.00 | 0.00 | 86 | 1014.1 |
| 20260903093831 | 26 | 360 | 6.4 | 16.1 | 0.00 | 0.00 | 0.00 | 86 | 1014.2 |
| 20260903093732 | 26 | 360 | 6.4 | 16.1 | 0.00 | 0.00 | 0.00 | 86 | 1014.1 |
| 20260903093653 | 26 | 360 | 6.4 | 16.1 | 0.00 | 0.00 | 0.00 | 86 | 1014.2 |
| 20260903093533 | 26 | 360 | 8.0 | 20.9 | 0.00 | 0.00 | 0.00 | 86 | 1014.1 |
| 20260903093453 | 26 | 360 | 8.0 | 20.9 | 0.00 | 0.00 | 0.00 | 86 | 1014.1 |
| 20260903093332 | 26 | 175 | 9.7 | 20.9 | 0.00 | 0.00 | 0.00 | 86 | 1014.2 |
| 20260903093254 | 26 | 360 | 9.7 | 20.9 | 0.00 | 0.00 | 0.00 | 86 | 1014.1 |
| 20260903093133 | 26 | 360 | 9.7 | 20.9 | 0.00 | 0.00 | 0.00 | 86 | 1014.2 |
| 20260903093018 | 26 | 360 | 9.7 | 20.9 | 0.00 | 0.00 | 0.00 | 86 | 1014.2 |
| 20260903092940 | 26 | 360 | 11.3 | 20.9 | 0.00 | 0.00 | 0.00 | 86 | 1014.2 |
| 20260903092819 | 26 | 360 | 9.7 | 20.9 | 0.00 | 0.00 | 0.00 | 86 | 1014.2 |
| 20260903092719 | 26 | 360 | 9.7 | 20.9 | 0.00 | 0.00 | 0.00 | 86 | 1014.2 |
| 20260903092619 | 26 | 360 | 6.4 | 19.3 | 0.00 | 0.00 | 0.00 | 86 | 1014.2 |
| 20260903092520 | 26 | 360 | 4.8 | 17.7 | 0.00 | 0.00 | 0.00 | 86 | 1014.2 |
| 20260903092420 | 26 | 360 | 6.4 | 17.7 | 0.00 | 0.00 | 0.00 | 86 | 1014.2 |
| 20260903092325 | 26 | 360 | 8.0 | 17.7 | 0.00 | 0.00 | 0.00 | 86 | 1014.3 |
| 20260903092226 | 26 | 360 | 8.0 | 20.9 | 0.00 | 0.00 | 0.00 | 86 | 1014.3 |
| 20260903092127 | 26 | 360 | 8.0 | 20.9 | 0.00 | 0.00 | 0.00 | 86 | 1014.3 |
| 20260903092027 | 26 | 360 | 8.0 | 20.9 | 0.00 | 0.00 | 0.00 | 86 | 1014.1 |
| 20260903091947 | 26 | 360 | 8.0 | 20.9 | 0.00 | 0.00 | 0.00 | 86 | 1014.2 |
| 20260903091847 | 26 | 360 | 6.4 | 20.9 | 0.00 | 0.00 | 0.00 | 86 | 1014.2 |
| 20260903091748 | 26 | 360 | 8.0 | 20.9 | 0.00 | 0.00 | 0.00 | 86 | 1014.1 |
| 20260903091627 | 26 | 360 | 9.7 | 20.9 | 0.00 | 0.00 | 0.00 | 86 | 1014.2 |
| 20260903091532 | 26 | 360 | 9.7 | 20.9 | 0.00 | 0.00 | 0.00 | 86 | 1014.2 |
| 20260903091433 | 26 | 360 | 11.3 | 20.9 | 0.00 | 0.00 | 0.00 | 86 | 1014.2 |
| 20260903091334 | 26 | 360 | 8.0 | 20.9 | 0.00 | 0.00 | 0.00 | 86 | 1014.2 |
| 20260903091234 | 26 | 360 | 6.4 | 20.9 | 0.00 | 0.00 | 0.00 | 86 | 1014.2 |
| 20260903091135 | 26 | 360 | 8.0 | 19.3 | 0.00 | 0.00 | 0.00 | 86 | 1014.2 |
| 20260903091016 | 26 | 360 | 6.4 | 20.9 | 0.00 | 0.00 | 0.00 | 86 | 1014.2 |
| 20260903090938 | 26 | 360 | 6.4 | 20.9 | 0.00 | 0.00 | 0.00 | 86 | 1014.2 |
| 20260903090821 | 26 | 360 | 6.4 | 20.9 | 0.00 | 0.00 | 0.00 | 86 | 1014.2 |
| 20260903090723 | 26 | 360 | 6.4 | 20.9 | 0.00 | 0.00 | 0.00 | 86 | 1014.2 |
| 20260903090643 | 26 | 360 | 8.0 | 20.9 | 0.00 | 0.00 | 0.00 | 86 | 1014.2 |
| 20260903090523 | 26 | 360 | 9.7 | 20.9 | 0.00 | 0.00 | 0.00 | 86 | 1014.3 |
| 20260903090444 | 26 | 360 | 8.0 | 20.9 | 0.00 | 0.00 | 0.00 | 86 | 1014.3 |
| 20260903090324 | 26 | 360 | 9.7 | 20.9 | 0.00 | 0.00 | 0.00 | 86 | 1014.3 |
| 20260903090224 | 26 | 360 | 12.9 | 20.9 | 0.00 | 0.00 | 0.00 | 86 | 1014.2 |
| 20260903090125 | 26 | 165 | 11.3 | 20.9 | 0.00 | 0.00 | 0.00 | 86 | 1014.2 |
| 20260903090029 | 26 | 360 | 9.7 | 20.9 | 0.00 | 0.00 | 0.00 | 86 | 1014.3 |
| 20260903085930 | 26 | 360 | 8.0 | 17.7 | 0.00 | 0.00 | 0.00 | 86 | 1014.3 |
| 20260903085832 | 26 | 360 | 6.4 | 17.7 | 0.00 | 0.00 | 0.00 | 86 | 1014.3 |
| 20260903085732 | 26 | 360 | 6.4 | 17.7 | 0.00 | 0.00 | 0.00 | 86 | 1014.3 |
| 20260903085633 | 26 | 360 | 8.0 | 17.7 | 0.00 | 0.00 | 0.00 | 86 | 1014.3 |
| 20260903085534 | 26 | 170 | 8.0 | 19.3 | 0.00 | 0.00 | 0.00 | 86 | 1014.3 |
| 20260903085417 | 26 | 360 | 8.0 | 20.9 | 0.00 | 0.00 | 0.00 | 86 | 1014.3 |
| 20260903085318 | 26 | 360 | 8.0 | 20.9 | 0.00 | 0.00 | 0.00 | 86 | 1014.3 |
| 20260903085219 | 26 | 170 | 6.4 | 20.9 | 0.00 | 0.00 | 0.00 | 86 | 1014.4 |
| 20260903085139 | 26 | 360 | 6.4 | 20.9 | 0.00 | 0.00 | 0.00 | 86 | 1014.3 |
| 20260903085018 | 26 | 360 | 8.0 | 20.9 | 0.00 | 0.00 | 0.00 | 86 | 1014.2 |
| 20260903084918 | 26 | 360 | 11.3 | 20.9 | 0.00 | 0.00 | 0.00 | 86 | 1014.3 |
| 20260903084819 | 26 | 360 | 11.3 | 20.9 | 0.00 | 0.00 | 0.00 | 86 | 1014.3 |
| 20260903084739 | 26 | 360 | 9.7 | 20.9 | 0.00 | 0.00 | 0.00 | 86 | 1014.3 |
| 20260903084623 | 26 | 360 | 9.7 | 20.9 | 0.00 | 0.00 | 0.00 | 86 | 1014.3 |
| 20260903084543 | 26 | 360 | 9.7 | 22.5 | 0.00 | 0.00 | 0.00 | 86 | 1014.2 |
| 20260903084424 | 26 | 360 | 11.3 | 22.5 | 0.00 | 0.00 | 0.00 | 86 | 1014.3 |
| 20260903084323 | 26 | 360 | 11.3 | 22.5 | 0.00 | 0.00 | 0.00 | 86 | 1014.2 |
| 20260903084245 | 26 | 360 | 9.7 | 25.7 | 0.00 | 0.00 | 0.00 | 85 | 1014.3 |
| 20260903084122 | 26 | 360 | 9.7 | 25.7 | 0.00 | 0.00 | 0.00 | 85 | 1014.2 |
| 20260903084023 | 26 | 360 | 9.7 | 25.7 | 0.00 | 0.00 | 0.00 | 85 | 1014.3 |
| 20260903083943 | 26 | 360 | 11.3 | 25.7 | 0.00 | 0.00 | 0.00 | 85 | 1014.3 |
| 20260903083823 | 26 | 360 | 11.3 | 25.7 | 0.00 | 0.00 | 0.00 | 85 | 1014.3 |
| 20260903083748 | 26 | 360 | 11.3 | 25.7 | 0.00 | 0.00 | 0.00 | 85 | 1014.2 |
| 20260903083628 | 26 | 360 | 12.9 | 25.7 | 0.00 | 0.00 | 0.00 | 85 | 1014.2 |
| 20260903083528 | 26 | 360 | 12.9 | 25.7 | 0.00 | 0.00 | 0.00 | 85 | 1014.2 |
| 20260903083449 | 26 | 360 | 14.5 | 25.7 | 0.00 | 0.00 | 0.00 | 85 | 1014.2 |
| 20260903083329 | 26 | 360 | 12.9 | 25.7 | 0.00 | 0.00 | 0.00 | 85 | 1014.3 |
| 20260903083229 | 26 | 360 | 12.9 | 22.5 | 0.00 | 0.00 | 0.00 | 85 | 1014.2 |
| 20260903083126 | 26 | 360 | 11.3 | 22.5 | 0.00 | 0.00 | 0.00 | 85 | 1014.3 |
| 20260903083026 | 26 | 360 | 12.9 | 22.5 | 0.00 | 0.00 | 0.00 | 85 | 1014.2 |
| 20260903082931 | 26 | 360 | 9.7 | 22.5 | 0.00 | 0.00 | 0.00 | 85 | 1014.2 |
| 20260903082832 | 26 | 360 | 9.7 | 22.5 | 0.00 | 0.00 | 0.00 | 85 | 1014.2 |
| 20260903082752 | 26 | 360 | 8.0 | 22.5 | 0.00 | 0.00 | 0.00 | 85 | 1014.2 |
| 20260903082631 | 26 | 360 | 11.3 | 24.1 | 0.00 | 0.00 | 0.00 | 85 | 1014.2 |
| 20260903082532 | 26 | 360 | 12.9 | 24.1 | 0.00 | 0.00 | 0.00 | 85 | 1014.2 |
| 20260903082432 | 26 | 360 | 12.9 | 24.1 | 0.00 | 0.00 | 0.00 | 85 | 1014.2 |
| 20260903082333 | 26 | 360 | 12.9 | 24.1 | 0.00 | 0.00 | 0.00 | 85 | 1014.2 |
| 20260903082239 | 26 | 360 | 9.7 | 24.1 | 0.00 | 0.00 | 0.00 | 85 | 1014.2 |
| 20260903082116 | 26 | 360 | 9.7 | 25.7 | 0.00 | 0.00 | 0.00 | 85 | 1014.1 |
| 20260903082037 | 26 | 360 | 8.0 | 25.7 | 0.00 | 0.00 | 0.00 | 85 | 1014.2 |
| 20260903081916 | 26 | 360 | 11.3 | 25.7 | 0.00 | 0.00 | 0.00 | 85 | 1014.2 |
| 20260903081837 | 26 | 360 | 11.3 | 25.7 | 0.00 | 0.00 | 0.00 | 85 | 1014.2 |
| 20260903081758 | 26 | 360 | 9.7 | 32.2 | 0.00 | 0.00 | 0.00 | 85 | 1014.1 |
| 20260903081657 | 26 | 360 | 14.5 | 32.2 | 0.00 | 0.00 | 0.00 | 85 | 1014.1 |
| 20260903081554 | 26 | 360 | 16.1 | 32.2 | 0.00 | 0.00 | 0.00 | 85 | 1014.1 |
| 20260903081432 | 26 | 360 | 14.5 | 32.2 | 0.00 | 0.00 | 0.00 | 85 | 1014.1 |
| 20260903081317 | 26 | 360 | 14.5 | 32.2 | 0.00 | 0.00 | 0.00 | 85 | 1014.2 |
| 20260903081218 | 26 | 360 | 12.9 | 32.2 | 0.00 | 0.00 | 0.00 | 85 | 1014.2 |
| 20260903081118 | 26 | 360 | 12.9 | 32.2 | 0.00 | 0.00 | 0.00 | 84 | 1014.2 |
| 20260903081019 | 26 | 360 | 11.3 | 32.2 | 0.00 | 0.00 | 0.00 | 84 | 1014.2 |
| 20260903080918 | 26 | 360 | 12.9 | 32.2 | 0.00 | 0.00 | 0.00 | 84 | 1014.1 |
| 20260903080819 | 26 | 360 | 14.5 | 25.7 | 0.00 | 0.00 | 0.00 | 84 | 1014.3 |
| 20260903080721 | 26 | 360 | 16.1 | 25.7 | 0.00 | 0.00 | 0.00 | 84 | 1014.2 |
| 20260903080624 | 26 | 360 | 14.5 | 25.7 | 0.00 | 0.00 | 0.00 | 84 | 1014.2 |
| 20260903080525 | 26 | 360 | 11.3 | 24.1 | 0.00 | 0.00 | 0.00 | 84 | 1014.2 |
| 20260903080425 | 26 | 360 | 12.9 | 24.1 | 0.00 | 0.00 | 0.00 | 84 | 1014.2 |
| 20260903080325 | 26 | 360 | 11.3 | 22.5 | 0.00 | 0.00 | 0.00 | 84 | 1014.2 |
| 20260903080226 | 26 | 360 | 11.3 | 22.5 | 0.00 | 0.00 | 0.00 | 84 | 1014.2 |
| 20260903080127 | 26 | 360 | 12.9 | 22.5 | 0.00 | 0.00 | 0.00 | 84 | 1014.2 |
| 20260903080027 | 26 | 360 | 11.3 | 20.9 | 0.00 | 0.00 | 0.00 | 84 | 1014.3 |
| 20260903075931 | 26 | 360 | 12.9 | 20.9 | 0.00 | 0.00 | 0.00 | 84 | 1014.3 |
| 20260903075833 | 26 | 360 | 11.3 | 20.9 | 0.00 | 0.00 | 0.00 | 84 | 1014.2 |
| 20260903075732 | 26 | 360 | 11.3 | 20.9 | 0.00 | 0.00 | 0.00 | 84 | 1014.2 |
| 20260903075652 | 26 | 360 | 11.3 | 25.7 | 0.00 | 0.00 | 0.00 | 84 | 1014.2 |
| 20260903075531 | 26 | 360 | 11.3 | 35.4 | 0.00 | 0.00 | 0.00 | 84 | 1014.3 |
| 20260903075430 | 26 | 360 | 9.7 | 35.4 | 0.00 | 0.00 | 0.00 | 84 | 1014.2 |
| 20260903075331 | 26 | 360 | 9.7 | 35.4 | 0.00 | 0.00 | 0.00 | 84 | 1014.2 |
| 20260903075234 | 26 | 360 | 9.7 | 35.4 | 0.00 | 0.00 | 0.00 | 84 | 1014.2 |
| 20260903075135 | 26 | 360 | 11.3 | 35.4 | 0.00 | 0.00 | 0.00 | 84 | 1014.3 |
| 20260903075056 | 26 | 360 | 14.5 | 32.2 | 0.00 | 0.00 | 0.00 | 84 | 1014.3 |
| 20260903074916 | 26 | 360 | 16.1 | 32.2 | 0.00 | 0.00 | 0.00 | 83 | 1014.3 |
| 20260903074836 | 26 | 360 | 17.7 | 32.2 | 0.00 | 0.00 | 0.00 | 83 | 1014.4 |
| 20260903074717 | 26 | 360 | 14.5 | 32.2 | 0.00 | 0.00 | 0.00 | 83 | 1014.4 |
| 20260903074618 | 26 | 360 | 12.9 | 32.2 | 0.00 | 0.00 | 0.00 | 83 | 1014.4 |
| 20260903074521 | 26 | 360 | 12.9 | 32.2 | 0.00 | 0.00 | 0.00 | 83 | 1014.4 |
| 20260903074422 | 26 | 360 | 12.9 | 32.2 | 0.00 | 0.00 | 0.00 | 83 | 1014.5 |
| 20260903074323 | 26 | 360 | 14.5 | 32.2 | 0.00 | 0.00 | 0.00 | 83 | 1014.4 |
| 20260903074243 | 26 | 360 | 14.5 | 32.2 | 0.00 | 0.00 | 0.00 | 83 | 1014.5 |
| 20260903074122 | 26 | 360 | 16.1 | 32.2 | 0.00 | 0.00 | 0.00 | 83 | 1014.5 |
| 20260903074023 | 26 | 360 | 12.9 | 32.2 | 0.00 | 0.00 | 0.00 | 83 | 1014.5 |
| 20260903073924 | 26 | 360 | 11.3 | 29.0 | 0.00 | 0.00 | 0.00 | 83 | 1014.5 |
| 20260903073828 | 26 | 360 | 11.3 | 29.0 | 0.00 | 0.00 | 0.00 | 83 | 1014.5 |
| 20260903073730 | 26 | 360 | 12.9 | 29.0 | 0.00 | 0.00 | 0.00 | 83 | 1014.5 |
| 20260903073630 | 26 | 360 | 16.1 | 29.0 | 0.00 | 0.00 | 0.00 | 83 | 1014.5 |
| 20260903073531 | 26 | 360 | 16.1 | 29.0 | 0.00 | 0.00 | 0.00 | 83 | 1014.5 |
| 20260903073432 | 26 | 360 | 16.1 | 29.0 | 0.00 | 0.00 | 0.00 | 83 | 1014.5 |
| 20260903073333 | 26 | 360 | 12.9 | 24.1 | 0.00 | 0.00 | 0.00 | 82 | 1014.5 |
| 20260903073218 | 26 | 360 | 12.9 | 24.1 | 0.00 | 0.00 | 0.00 | 82 | 1014.5 |
| 20260903073139 | 26 | 360 | 12.9 | 25.7 | 0.00 | 0.00 | 0.00 | 82 | 1014.5 |
| 20260903073020 | 26 | 360 | 12.9 | 25.7 | 0.00 | 0.00 | 0.00 | 82 | 1014.5 |
| 20260903072921 | 26 | 360 | 14.5 | 25.7 | 0.00 | 0.00 | 0.00 | 82 | 1014.4 |
| 20260903072821 | 27 | 360 | 12.9 | 25.7 | 0.00 | 0.00 | 0.00 | 82 | 1014.5 |
| 20260903072721 | 27 | 360 | 11.3 | 25.7 | 0.00 | 0.00 | 0.00 | 82 | 1014.4 |
| 20260903072623 | 27 | 360 | 9.7 | 25.7 | 0.00 | 0.00 | 0.00 | 82 | 1014.4 |
| 20260903072527 | 27 | 178 | 11.3 | 25.7 | 0.00 | 0.00 | 0.00 | 82 | 1014.4 |
| 20260903072447 | 27 | 360 | 9.7 | 25.7 | 0.00 | 0.00 | 0.00 | 82 | 1014.4 |
| 20260903072328 | 27 | 360 | 11.3 | 25.7 | 0.00 | 0.00 | 0.00 | 81 | 1014.4 |
| 20260903072229 | 27 | 360 | 11.3 | 27.4 | 0.00 | 0.00 | 0.00 | 81 | 1014.4 |
| 20260903072129 | 27 | 360 | 9.7 | 29.0 | 0.00 | 0.00 | 0.00 | 81 | 1014.4 |
| 20260903072030 | 27 | 360 | 12.9 | 29.0 | 0.00 | 0.00 | 0.00 | 81 | 1014.3 |
| 20260903071931 | 27 | 360 | 14.5 | 29.0 | 0.00 | 0.00 | 0.00 | 81 | 1014.4 |
| 20260903071836 | 27 | 360 | 14.5 | 29.0 | 0.00 | 0.00 | 0.00 | 81 | 1014.4 |
| 20260903071735 | 27 | 360 | 17.7 | 29.0 | 0.00 | 0.00 | 0.00 | 81 | 1014.5 |
| 20260903071616 | 27 | 360 | 12.9 | 24.1 | 0.00 | 0.00 | 0.00 | 81 | 1014.4 |
| 20260903071518 | 27 | 360 | 12.9 | 24.1 | 0.00 | 0.00 | 0.00 | 81 | 1014.4 |
| 20260903071438 | 27 | 360 | 11.3 | 24.1 | 0.00 | 0.00 | 0.00 | 81 | 1014.4 |
| 20260903071318 | 27 | 360 | 12.9 | 24.1 | 0.00 | 0.00 | 0.00 | 80 | 1014.4 |
| 20260903071219 | 27 | 360 | 12.9 | 24.1 | 0.00 | 0.00 | 0.00 | 80 | 1014.5 |
| 20260903071124 | 27 | 360 | 12.9 | 24.1 | 0.00 | 0.00 | 0.00 | 80 | 1014.4 |
| 20260903071024 | 27 | 360 | 12.9 | 24.1 | 0.00 | 0.00 | 0.00 | 80 | 1014.4 |
| 20260903070923 | 27 | 360 | 12.9 | 24.1 | 0.00 | 0.00 | 0.00 | 80 | 1014.5 |
| 20260903070822 | 27 | 360 | 12.9 | 30.6 | 0.00 | 0.00 | 0.00 | 80 | 1014.5 |
| 20260903070722 | 27 | 360 | 12.9 | 30.6 | 0.00 | 0.00 | 0.00 | 80 | 1014.5 |
| 20260903070623 | 27 | 360 | 12.9 | 30.6 | 0.00 | 0.00 | 0.00 | 80 | 1014.5 |
| 20260903070522 | 27 | 360 | 12.9 | 30.6 | 0.00 | 0.00 | 0.00 | 80 | 1014.5 |
| 20260903070442 | 27 | 360 | 12.9 | 30.6 | 0.00 | 0.00 | 0.00 | 80 | 1014.5 |
| 20260903070402 | 27 | 161 | 12.9 | 30.6 | 0.00 | 0.00 | 0.00 | 80 | 1014.5 |
| 20260903070239 | 27 | 360 | 14.5 | 30.6 | 0.00 | 0.00 | 0.00 | 79 | 1014.5 |
| 20260903070142 | 27 | 360 | 14.5 | 30.6 | 0.00 | 0.00 | 0.00 | 79 | 1014.5 |
| 20260903070039 | 27 | 360 | 12.9 | 30.6 | 0.00 | 0.00 | 0.00 | 79 | 1014.5 |
| 20260903065937 | 27 | 360 | 12.9 | 30.6 | 0.00 | 0.00 | 0.00 | 79 | 1014.5 |
| 20260903065837 | 27 | 360 | 9.7 | 25.7 | 0.00 | 0.00 | 0.00 | 79 | 1014.5 |
| 20260903065735 | 27 | 360 | 9.7 | 25.7 | 0.00 | 0.00 | 0.00 | 79 | 1014.5 |
| 20260903065634 | 27 | 360 | 8.0 | 25.7 | 0.00 | 0.00 | 0.00 | 79 | 1014.5 |
| 20260903065532 | 27 | 360 | 11.3 | 25.7 | 0.00 | 0.00 | 0.00 | 79 | 1014.5 |
| 20260903065453 | 27 | 360 | 11.3 | 25.7 | 0.00 | 0.00 | 0.00 | 79 | 1014.5 |